<?xml version="1.0" encoding="UTF-8" standalone="no" ?>
<gpx xmlns="http://www.topografix.com/GPX/1/1" xmlns:xsi="http://www.w3.org/2001/XMLSchema-instance" xsi:schemaLocation="http://www.topografix.com/GPX/1/1 http://www.topografix.com/GPX/1/1/gpx.xsd" version="1.1" creator="VisuGPX - https://www.visugpx.com">
  <metadata>
    <name>RANDO LE SAUVAGE 43170 CHANALEILLES 26 KM</name>
    <desc><![CDATA[RANDO LE SAUVAGE CHANALEILLES 26 KM.DEPART ARRIVEE LE SAUVAGE (43170).SAINT ROCH.LA LOUBEYRE. CHANALEILLES.LES NARCETTES.]]></desc>
  </metadata>
  <trk>
    <name><![CDATA[2024-10-31 15:58:18]]></name>
    <extensions>
      <line xmlns="http://www.topografix.com/GPX/gpx_style/0/2">
        <color>0000FF</color>
        <width>4</width>
      </line>
    </extensions>
    <trkseg>
      <trkpt lat="44.82402" lon="3.48806">
        <ele>1300.32</ele>
        <time>2024-10-31T08:06:35Z</time>
      </trkpt>
      <trkpt lat="44.82401" lon="3.48807">
        <ele>1298.88</ele>
        <time>2024-10-31T08:06:56Z</time>
      </trkpt>
      <trkpt lat="44.824" lon="3.4881">
        <ele>1300.32</ele>
        <time>2024-10-31T08:07:15Z</time>
      </trkpt>
      <trkpt lat="44.82401" lon="3.4881">
        <ele>1300.8</ele>
        <time>2024-10-31T08:07:28Z</time>
      </trkpt>
      <trkpt lat="44.82403" lon="3.48809">
        <ele>1298.88</ele>
        <time>2024-10-31T08:07:56Z</time>
      </trkpt>
      <trkpt lat="44.82403" lon="3.4881">
        <ele>1300.8</ele>
        <time>2024-10-31T08:08:17Z</time>
      </trkpt>
      <trkpt lat="44.82405" lon="3.48806">
        <ele>1300.8</ele>
        <time>2024-10-31T08:08:30Z</time>
      </trkpt>
      <trkpt lat="44.82406" lon="3.48808">
        <ele>1300.8</ele>
        <time>2024-10-31T08:08:46Z</time>
      </trkpt>
      <trkpt lat="44.82406" lon="3.48804">
        <ele>1299.84</ele>
        <time>2024-10-31T08:08:58Z</time>
      </trkpt>
      <trkpt lat="44.82407" lon="3.48805">
        <ele>1299.84</ele>
        <time>2024-10-31T08:09:10Z</time>
      </trkpt>
      <trkpt lat="44.82408" lon="3.48805">
        <ele>1299.36</ele>
        <time>2024-10-31T08:09:26Z</time>
      </trkpt>
      <trkpt lat="44.82412" lon="3.48803">
        <ele>1297.44</ele>
        <time>2024-10-31T08:09:49Z</time>
      </trkpt>
      <trkpt lat="44.82413" lon="3.48803">
        <ele>1297.44</ele>
        <time>2024-10-31T08:09:50Z</time>
      </trkpt>
      <trkpt lat="44.8242" lon="3.48795">
        <ele>1298.4</ele>
        <time>2024-10-31T08:10:03Z</time>
      </trkpt>
      <trkpt lat="44.82429" lon="3.48778">
        <ele>1298.88</ele>
        <time>2024-10-31T08:10:19Z</time>
      </trkpt>
      <trkpt lat="44.8243" lon="3.48772">
        <ele>1298.88</ele>
        <time>2024-10-31T08:10:28Z</time>
      </trkpt>
      <trkpt lat="44.82432" lon="3.48772">
        <ele>1299.36</ele>
        <time>2024-10-31T08:10:30Z</time>
      </trkpt>
      <trkpt lat="44.82444" lon="3.4876">
        <ele>1298.88</ele>
        <time>2024-10-31T08:10:47Z</time>
      </trkpt>
      <trkpt lat="44.8244" lon="3.48756">
        <ele>1297.92</ele>
        <time>2024-10-31T08:10:54Z</time>
      </trkpt>
      <trkpt lat="44.82435" lon="3.48755">
        <ele>1295.51</ele>
        <time>2024-10-31T08:11:10Z</time>
      </trkpt>
      <trkpt lat="44.82434" lon="3.48754">
        <ele>1294.07</ele>
        <time>2024-10-31T08:11:24Z</time>
      </trkpt>
      <trkpt lat="44.82424" lon="3.4875">
        <ele>1293.59</ele>
        <time>2024-10-31T08:11:34Z</time>
      </trkpt>
      <trkpt lat="44.82423" lon="3.48755">
        <ele>1293.59</ele>
        <time>2024-10-31T08:11:48Z</time>
      </trkpt>
      <trkpt lat="44.82424" lon="3.48753">
        <ele>1295.51</ele>
        <time>2024-10-31T08:12:05Z</time>
      </trkpt>
      <trkpt lat="44.82418" lon="3.4875">
        <ele>1295.03</ele>
        <time>2024-10-31T08:12:15Z</time>
      </trkpt>
      <trkpt lat="44.82393" lon="3.48752">
        <ele>1293.59</ele>
        <time>2024-10-31T08:12:32Z</time>
      </trkpt>
      <trkpt lat="44.8237" lon="3.48756">
        <ele>1293.59</ele>
        <time>2024-10-31T08:12:47Z</time>
      </trkpt>
      <trkpt lat="44.82344" lon="3.48756">
        <ele>1292.63</ele>
        <time>2024-10-31T08:13:05Z</time>
      </trkpt>
      <trkpt lat="44.82325" lon="3.48748">
        <ele>1293.11</ele>
        <time>2024-10-31T08:13:21Z</time>
      </trkpt>
      <trkpt lat="44.82315" lon="3.48723">
        <ele>1294.55</ele>
        <time>2024-10-31T08:13:34Z</time>
      </trkpt>
      <trkpt lat="44.82317" lon="3.48713">
        <ele>1294.55</ele>
        <time>2024-10-31T08:13:41Z</time>
      </trkpt>
      <trkpt lat="44.82317" lon="3.48711">
        <ele>1294.55</ele>
        <time>2024-10-31T08:13:42Z</time>
      </trkpt>
      <trkpt lat="44.82318" lon="3.48697">
        <ele>1294.55</ele>
        <time>2024-10-31T08:13:52Z</time>
      </trkpt>
      <trkpt lat="44.82319" lon="3.48678">
        <ele>1295.03</ele>
        <time>2024-10-31T08:14:04Z</time>
      </trkpt>
      <trkpt lat="44.82319" lon="3.48661">
        <ele>1294.55</ele>
        <time>2024-10-31T08:14:16Z</time>
      </trkpt>
      <trkpt lat="44.82319" lon="3.48659">
        <ele>1294.55</ele>
        <time>2024-10-31T08:14:17Z</time>
      </trkpt>
      <trkpt lat="44.82319" lon="3.48657">
        <ele>1294.07</ele>
        <time>2024-10-31T08:14:18Z</time>
      </trkpt>
      <trkpt lat="44.82322" lon="3.4864">
        <ele>1292.15</ele>
        <time>2024-10-31T08:14:29Z</time>
      </trkpt>
      <trkpt lat="44.82327" lon="3.48622">
        <ele>1290.71</ele>
        <time>2024-10-31T08:14:40Z</time>
      </trkpt>
      <trkpt lat="44.82325" lon="3.4861">
        <ele>1289.27</ele>
        <time>2024-10-31T08:14:47Z</time>
      </trkpt>
      <trkpt lat="44.82325" lon="3.48608">
        <ele>1289.27</ele>
        <time>2024-10-31T08:14:48Z</time>
      </trkpt>
      <trkpt lat="44.82326" lon="3.48594">
        <ele>1287.82</ele>
        <time>2024-10-31T08:14:57Z</time>
      </trkpt>
      <trkpt lat="44.82326" lon="3.48591">
        <ele>1288.3</ele>
        <time>2024-10-31T08:14:58Z</time>
      </trkpt>
      <trkpt lat="44.82326" lon="3.48589">
        <ele>1287.82</ele>
        <time>2024-10-31T08:14:59Z</time>
      </trkpt>
      <trkpt lat="44.82328" lon="3.4857">
        <ele>1288.78</ele>
        <time>2024-10-31T08:15:11Z</time>
      </trkpt>
      <trkpt lat="44.82332" lon="3.48551">
        <ele>1291.67</ele>
        <time>2024-10-31T08:15:22Z</time>
      </trkpt>
      <trkpt lat="44.82334" lon="3.48533">
        <ele>1293.11</ele>
        <time>2024-10-31T08:15:32Z</time>
      </trkpt>
      <trkpt lat="44.82333" lon="3.48513">
        <ele>1295.51</ele>
        <time>2024-10-31T08:15:43Z</time>
      </trkpt>
      <trkpt lat="44.82335" lon="3.48494">
        <ele>1297.92</ele>
        <time>2024-10-31T08:15:55Z</time>
      </trkpt>
      <trkpt lat="44.82336" lon="3.48476">
        <ele>1299.84</ele>
        <time>2024-10-31T08:16:07Z</time>
      </trkpt>
      <trkpt lat="44.82335" lon="3.48456">
        <ele>1302.72</ele>
        <time>2024-10-31T08:16:20Z</time>
      </trkpt>
      <trkpt lat="44.82335" lon="3.48438">
        <ele>1307.53</ele>
        <time>2024-10-31T08:16:34Z</time>
      </trkpt>
      <trkpt lat="44.82329" lon="3.4842">
        <ele>1310.9</ele>
        <time>2024-10-31T08:16:47Z</time>
      </trkpt>
      <trkpt lat="44.82325" lon="3.48399">
        <ele>1308.97</ele>
        <time>2024-10-31T08:17:02Z</time>
      </trkpt>
      <trkpt lat="44.82322" lon="3.4839">
        <ele>1307.53</ele>
        <time>2024-10-31T08:17:08Z</time>
      </trkpt>
      <trkpt lat="44.82311" lon="3.48361">
        <ele>1304.65</ele>
        <time>2024-10-31T08:17:23Z</time>
      </trkpt>
      <trkpt lat="44.82304" lon="3.48329">
        <ele>1303.2</ele>
        <time>2024-10-31T08:17:39Z</time>
      </trkpt>
      <trkpt lat="44.823" lon="3.48319">
        <ele>1301.76</ele>
        <time>2024-10-31T08:17:45Z</time>
      </trkpt>
      <trkpt lat="44.82299" lon="3.48317">
        <ele>1301.76</ele>
        <time>2024-10-31T08:17:46Z</time>
      </trkpt>
      <trkpt lat="44.82299" lon="3.48315">
        <ele>1301.28</ele>
        <time>2024-10-31T08:17:47Z</time>
      </trkpt>
      <trkpt lat="44.82284" lon="3.48289">
        <ele>1300.32</ele>
        <time>2024-10-31T08:18:04Z</time>
      </trkpt>
      <trkpt lat="44.82274" lon="3.48269">
        <ele>1301.76</ele>
        <time>2024-10-31T08:18:19Z</time>
      </trkpt>
      <trkpt lat="44.82262" lon="3.48253">
        <ele>1304.17</ele>
        <time>2024-10-31T08:18:31Z</time>
      </trkpt>
      <trkpt lat="44.82244" lon="3.48234">
        <ele>1305.61</ele>
        <time>2024-10-31T08:18:48Z</time>
      </trkpt>
      <trkpt lat="44.82234" lon="3.48224">
        <ele>1305.13</ele>
        <time>2024-10-31T08:19:05Z</time>
      </trkpt>
      <trkpt lat="44.82214" lon="3.48204">
        <ele>1304.17</ele>
        <time>2024-10-31T08:19:22Z</time>
      </trkpt>
      <trkpt lat="44.82203" lon="3.48179">
        <ele>1305.61</ele>
        <time>2024-10-31T08:19:37Z</time>
      </trkpt>
      <trkpt lat="44.82197" lon="3.48148">
        <ele>1305.61</ele>
        <time>2024-10-31T08:19:53Z</time>
      </trkpt>
      <trkpt lat="44.82193" lon="3.48118">
        <ele>1305.61</ele>
        <time>2024-10-31T08:20:09Z</time>
      </trkpt>
      <trkpt lat="44.82194" lon="3.48099">
        <ele>1305.13</ele>
        <time>2024-10-31T08:20:20Z</time>
      </trkpt>
      <trkpt lat="44.82198" lon="3.48087">
        <ele>1304.65</ele>
        <time>2024-10-31T08:20:29Z</time>
      </trkpt>
      <trkpt lat="44.82199" lon="3.48085">
        <ele>1304.65</ele>
        <time>2024-10-31T08:20:30Z</time>
      </trkpt>
      <trkpt lat="44.822" lon="3.48084">
        <ele>1304.65</ele>
        <time>2024-10-31T08:20:31Z</time>
      </trkpt>
      <trkpt lat="44.82201" lon="3.48083">
        <ele>1304.65</ele>
        <time>2024-10-31T08:20:32Z</time>
      </trkpt>
      <trkpt lat="44.82204" lon="3.4808">
        <ele>1304.65</ele>
        <time>2024-10-31T08:20:36Z</time>
      </trkpt>
      <trkpt lat="44.82212" lon="3.48061">
        <ele>1304.65</ele>
        <time>2024-10-31T08:20:48Z</time>
      </trkpt>
      <trkpt lat="44.82218" lon="3.48036">
        <ele>1305.13</ele>
        <time>2024-10-31T08:21:03Z</time>
      </trkpt>
      <trkpt lat="44.82224" lon="3.48018">
        <ele>1305.61</ele>
        <time>2024-10-31T08:21:15Z</time>
      </trkpt>
      <trkpt lat="44.82224" lon="3.48014">
        <ele>1305.61</ele>
        <time>2024-10-31T08:21:18Z</time>
      </trkpt>
      <trkpt lat="44.82224" lon="3.48011">
        <ele>1305.61</ele>
        <time>2024-10-31T08:21:19Z</time>
      </trkpt>
      <trkpt lat="44.82228" lon="3.47993">
        <ele>1306.57</ele>
        <time>2024-10-31T08:21:30Z</time>
      </trkpt>
      <trkpt lat="44.8223" lon="3.47975">
        <ele>1306.57</ele>
        <time>2024-10-31T08:21:39Z</time>
      </trkpt>
      <trkpt lat="44.8223" lon="3.47959">
        <ele>1306.57</ele>
        <time>2024-10-31T08:21:48Z</time>
      </trkpt>
      <trkpt lat="44.82229" lon="3.47955">
        <ele>1307.05</ele>
        <time>2024-10-31T08:21:50Z</time>
      </trkpt>
      <trkpt lat="44.82229" lon="3.47949">
        <ele>1308.01</ele>
        <time>2024-10-31T08:21:55Z</time>
      </trkpt>
      <trkpt lat="44.82228" lon="3.47946">
        <ele>1308.01</ele>
        <time>2024-10-31T08:21:56Z</time>
      </trkpt>
      <trkpt lat="44.82225" lon="3.47927">
        <ele>1310.9</ele>
        <time>2024-10-31T08:22:06Z</time>
      </trkpt>
      <trkpt lat="44.82225" lon="3.47906">
        <ele>1314.26</ele>
        <time>2024-10-31T08:22:19Z</time>
      </trkpt>
      <trkpt lat="44.82225" lon="3.47897">
        <ele>1314.74</ele>
        <time>2024-10-31T08:22:23Z</time>
      </trkpt>
      <trkpt lat="44.82224" lon="3.47883">
        <ele>1315.7</ele>
        <time>2024-10-31T08:22:32Z</time>
      </trkpt>
      <trkpt lat="44.82221" lon="3.47863">
        <ele>1316.66</ele>
        <time>2024-10-31T08:22:43Z</time>
      </trkpt>
      <trkpt lat="44.8222" lon="3.47845">
        <ele>1315.22</ele>
        <time>2024-10-31T08:22:54Z</time>
      </trkpt>
      <trkpt lat="44.82223" lon="3.4783">
        <ele>1313.78</ele>
        <time>2024-10-31T08:23:02Z</time>
      </trkpt>
      <trkpt lat="44.82225" lon="3.47825">
        <ele>1312.82</ele>
        <time>2024-10-31T08:23:05Z</time>
      </trkpt>
      <trkpt lat="44.82228" lon="3.47817">
        <ele>1311.38</ele>
        <time>2024-10-31T08:23:10Z</time>
      </trkpt>
      <trkpt lat="44.8223" lon="3.47813">
        <ele>1310.9</ele>
        <time>2024-10-31T08:23:13Z</time>
      </trkpt>
      <trkpt lat="44.82233" lon="3.47811">
        <ele>1310.41</ele>
        <time>2024-10-31T08:23:16Z</time>
      </trkpt>
      <trkpt lat="44.82234" lon="3.47809">
        <ele>1310.41</ele>
        <time>2024-10-31T08:23:17Z</time>
      </trkpt>
      <trkpt lat="44.82248" lon="3.47797">
        <ele>1308.01</ele>
        <time>2024-10-31T08:23:29Z</time>
      </trkpt>
      <trkpt lat="44.82262" lon="3.47793">
        <ele>1308.01</ele>
        <time>2024-10-31T08:23:43Z</time>
      </trkpt>
      <trkpt lat="44.82271" lon="3.47788">
        <ele>1308.97</ele>
        <time>2024-10-31T08:23:52Z</time>
      </trkpt>
      <trkpt lat="44.82287" lon="3.47774">
        <ele>1309.45</ele>
        <time>2024-10-31T08:24:04Z</time>
      </trkpt>
      <trkpt lat="44.82299" lon="3.47755">
        <ele>1307.53</ele>
        <time>2024-10-31T08:24:16Z</time>
      </trkpt>
      <trkpt lat="44.82302" lon="3.47747">
        <ele>1307.05</ele>
        <time>2024-10-31T08:24:21Z</time>
      </trkpt>
      <trkpt lat="44.82311" lon="3.47729">
        <ele>1308.01</ele>
        <time>2024-10-31T08:24:32Z</time>
      </trkpt>
      <trkpt lat="44.82316" lon="3.47717">
        <ele>1308.01</ele>
        <time>2024-10-31T08:24:41Z</time>
      </trkpt>
      <trkpt lat="44.82317" lon="3.47715">
        <ele>1308.01</ele>
        <time>2024-10-31T08:24:42Z</time>
      </trkpt>
      <trkpt lat="44.82321" lon="3.47708">
        <ele>1307.53</ele>
        <time>2024-10-31T08:24:46Z</time>
      </trkpt>
      <trkpt lat="44.82327" lon="3.47692">
        <ele>1308.01</ele>
        <time>2024-10-31T08:24:57Z</time>
      </trkpt>
      <trkpt lat="44.82331" lon="3.47681">
        <ele>1308.49</ele>
        <time>2024-10-31T08:25:04Z</time>
      </trkpt>
      <trkpt lat="44.82336" lon="3.47655">
        <ele>1309.45</ele>
        <time>2024-10-31T08:25:18Z</time>
      </trkpt>
      <trkpt lat="44.82336" lon="3.47623">
        <ele>1309.93</ele>
        <time>2024-10-31T08:25:36Z</time>
      </trkpt>
      <trkpt lat="44.82331" lon="3.47597">
        <ele>1308.49</ele>
        <time>2024-10-31T08:25:51Z</time>
      </trkpt>
      <trkpt lat="44.82328" lon="3.47573">
        <ele>1309.93</ele>
        <time>2024-10-31T08:26:05Z</time>
      </trkpt>
      <trkpt lat="44.82326" lon="3.47551">
        <ele>1309.45</ele>
        <time>2024-10-31T08:26:17Z</time>
      </trkpt>
      <trkpt lat="44.82327" lon="3.47549">
        <ele>1308.97</ele>
        <time>2024-10-31T08:26:18Z</time>
      </trkpt>
      <trkpt lat="44.82333" lon="3.47508">
        <ele>1305.13</ele>
        <time>2024-10-31T08:26:41Z</time>
      </trkpt>
      <trkpt lat="44.82343" lon="3.47474">
        <ele>1301.76</ele>
        <time>2024-10-31T08:27:01Z</time>
      </trkpt>
      <trkpt lat="44.82355" lon="3.47458">
        <ele>1301.28</ele>
        <time>2024-10-31T08:27:13Z</time>
      </trkpt>
      <trkpt lat="44.82378" lon="3.47432">
        <ele>1301.28</ele>
        <time>2024-10-31T08:27:34Z</time>
      </trkpt>
      <trkpt lat="44.82397" lon="3.47406">
        <ele>1309.45</ele>
        <time>2024-10-31T08:27:51Z</time>
      </trkpt>
      <trkpt lat="44.82405" lon="3.47383">
        <ele>1311.38</ele>
        <time>2024-10-31T08:28:06Z</time>
      </trkpt>
      <trkpt lat="44.82413" lon="3.47357">
        <ele>1312.34</ele>
        <time>2024-10-31T08:28:21Z</time>
      </trkpt>
      <trkpt lat="44.82421" lon="3.47335">
        <ele>1312.34</ele>
        <time>2024-10-31T08:28:35Z</time>
      </trkpt>
      <trkpt lat="44.82429" lon="3.47309">
        <ele>1311.86</ele>
        <time>2024-10-31T08:28:51Z</time>
      </trkpt>
      <trkpt lat="44.82438" lon="3.47283">
        <ele>1309.93</ele>
        <time>2024-10-31T08:29:09Z</time>
      </trkpt>
      <trkpt lat="44.82442" lon="3.47276">
        <ele>1309.45</ele>
        <time>2024-10-31T08:29:25Z</time>
      </trkpt>
      <trkpt lat="44.82447" lon="3.47264">
        <ele>1308.49</ele>
        <time>2024-10-31T08:29:44Z</time>
      </trkpt>
      <trkpt lat="44.82455" lon="3.47242">
        <ele>1309.45</ele>
        <time>2024-10-31T08:30:07Z</time>
      </trkpt>
      <trkpt lat="44.82471" lon="3.47217">
        <ele>1313.78</ele>
        <time>2024-10-31T08:30:32Z</time>
      </trkpt>
      <trkpt lat="44.82474" lon="3.47211">
        <ele>1314.26</ele>
        <time>2024-10-31T08:30:37Z</time>
      </trkpt>
      <trkpt lat="44.82489" lon="3.47194">
        <ele>1319.55</ele>
        <time>2024-10-31T08:30:51Z</time>
      </trkpt>
      <trkpt lat="44.825" lon="3.47185">
        <ele>1324.83</ele>
        <time>2024-10-31T08:31:04Z</time>
      </trkpt>
      <trkpt lat="44.8251" lon="3.47179">
        <ele>1328.2</ele>
        <time>2024-10-31T08:31:16Z</time>
      </trkpt>
      <trkpt lat="44.82532" lon="3.47167">
        <ele>1332.04</ele>
        <time>2024-10-31T08:31:37Z</time>
      </trkpt>
      <trkpt lat="44.82548" lon="3.47143">
        <ele>1333.97</ele>
        <time>2024-10-31T08:31:56Z</time>
      </trkpt>
      <trkpt lat="44.82569" lon="3.47112">
        <ele>1335.41</ele>
        <time>2024-10-31T08:32:18Z</time>
      </trkpt>
      <trkpt lat="44.82594" lon="3.47084">
        <ele>1333.97</ele>
        <time>2024-10-31T08:32:38Z</time>
      </trkpt>
      <trkpt lat="44.82611" lon="3.47057">
        <ele>1331.56</ele>
        <time>2024-10-31T08:32:56Z</time>
      </trkpt>
      <trkpt lat="44.82624" lon="3.47019">
        <ele>1332.52</ele>
        <time>2024-10-31T08:33:16Z</time>
      </trkpt>
      <trkpt lat="44.82629" lon="3.46985">
        <ele>1330.12</ele>
        <time>2024-10-31T08:33:34Z</time>
      </trkpt>
      <trkpt lat="44.82634" lon="3.46952">
        <ele>1331.56</ele>
        <time>2024-10-31T08:33:54Z</time>
      </trkpt>
      <trkpt lat="44.82639" lon="3.4692">
        <ele>1330.6</ele>
        <time>2024-10-31T08:34:14Z</time>
      </trkpt>
      <trkpt lat="44.82642" lon="3.46898">
        <ele>1330.6</ele>
        <time>2024-10-31T08:34:27Z</time>
      </trkpt>
      <trkpt lat="44.82641" lon="3.46896">
        <ele>1330.6</ele>
        <time>2024-10-31T08:34:28Z</time>
      </trkpt>
      <trkpt lat="44.82644" lon="3.46874">
        <ele>1328.2</ele>
        <time>2024-10-31T08:34:42Z</time>
      </trkpt>
      <trkpt lat="44.82649" lon="3.46851">
        <ele>1327.24</ele>
        <time>2024-10-31T08:34:55Z</time>
      </trkpt>
      <trkpt lat="44.82654" lon="3.46826">
        <ele>1326.76</ele>
        <time>2024-10-31T08:35:08Z</time>
      </trkpt>
      <trkpt lat="44.82656" lon="3.46815">
        <ele>1326.28</ele>
        <time>2024-10-31T08:35:15Z</time>
      </trkpt>
      <trkpt lat="44.82657" lon="3.46813">
        <ele>1326.28</ele>
        <time>2024-10-31T08:35:16Z</time>
      </trkpt>
      <trkpt lat="44.82657" lon="3.46811">
        <ele>1325.8</ele>
        <time>2024-10-31T08:35:17Z</time>
      </trkpt>
      <trkpt lat="44.82657" lon="3.46809">
        <ele>1325.8</ele>
        <time>2024-10-31T08:35:18Z</time>
      </trkpt>
      <trkpt lat="44.82658" lon="3.468">
        <ele>1325.31</ele>
        <time>2024-10-31T08:35:24Z</time>
      </trkpt>
      <trkpt lat="44.82658" lon="3.46783">
        <ele>1323.87</ele>
        <time>2024-10-31T08:35:35Z</time>
      </trkpt>
      <trkpt lat="44.82661" lon="3.46772">
        <ele>1323.87</ele>
        <time>2024-10-31T08:35:41Z</time>
      </trkpt>
      <trkpt lat="44.82667" lon="3.46745">
        <ele>1325.31</ele>
        <time>2024-10-31T08:35:53Z</time>
      </trkpt>
      <trkpt lat="44.82676" lon="3.46726">
        <ele>1324.35</ele>
        <time>2024-10-31T08:36:06Z</time>
      </trkpt>
      <trkpt lat="44.82687" lon="3.46712">
        <ele>1324.35</ele>
        <time>2024-10-31T08:36:20Z</time>
      </trkpt>
      <trkpt lat="44.827" lon="3.46701">
        <ele>1322.43</ele>
        <time>2024-10-31T08:36:32Z</time>
      </trkpt>
      <trkpt lat="44.82711" lon="3.4669">
        <ele>1322.91</ele>
        <time>2024-10-31T08:36:43Z</time>
      </trkpt>
      <trkpt lat="44.82724" lon="3.46684">
        <ele>1320.03</ele>
        <time>2024-10-31T08:36:53Z</time>
      </trkpt>
      <trkpt lat="44.82736" lon="3.46674">
        <ele>1320.03</ele>
        <time>2024-10-31T08:37:03Z</time>
      </trkpt>
      <trkpt lat="44.82752" lon="3.46665">
        <ele>1321.47</ele>
        <time>2024-10-31T08:37:13Z</time>
      </trkpt>
      <trkpt lat="44.82765" lon="3.46655">
        <ele>1322.91</ele>
        <time>2024-10-31T08:37:24Z</time>
      </trkpt>
      <trkpt lat="44.82769" lon="3.46652">
        <ele>1322.91</ele>
        <time>2024-10-31T08:37:30Z</time>
      </trkpt>
      <trkpt lat="44.82781" lon="3.46643">
        <ele>1320.99</ele>
        <time>2024-10-31T08:37:41Z</time>
      </trkpt>
      <trkpt lat="44.82797" lon="3.46634">
        <ele>1321.95</ele>
        <time>2024-10-31T08:37:52Z</time>
      </trkpt>
      <trkpt lat="44.82811" lon="3.46623">
        <ele>1321.47</ele>
        <time>2024-10-31T08:38:03Z</time>
      </trkpt>
      <trkpt lat="44.82825" lon="3.46612">
        <ele>1322.43</ele>
        <time>2024-10-31T08:38:15Z</time>
      </trkpt>
      <trkpt lat="44.82826" lon="3.46611">
        <ele>1322.43</ele>
        <time>2024-10-31T08:38:16Z</time>
      </trkpt>
      <trkpt lat="44.82828" lon="3.46609">
        <ele>1321.95</ele>
        <time>2024-10-31T08:38:17Z</time>
      </trkpt>
      <trkpt lat="44.82829" lon="3.46608">
        <ele>1321.95</ele>
        <time>2024-10-31T08:38:18Z</time>
      </trkpt>
      <trkpt lat="44.82841" lon="3.46606">
        <ele>1320.03</ele>
        <time>2024-10-31T08:38:28Z</time>
      </trkpt>
      <trkpt lat="44.82847" lon="3.46607">
        <ele>1319.07</ele>
        <time>2024-10-31T08:38:34Z</time>
      </trkpt>
      <trkpt lat="44.82848" lon="3.46607">
        <ele>1319.07</ele>
        <time>2024-10-31T08:38:35Z</time>
      </trkpt>
      <trkpt lat="44.8285" lon="3.46608">
        <ele>1319.07</ele>
        <time>2024-10-31T08:38:36Z</time>
      </trkpt>
      <trkpt lat="44.8287" lon="3.46616">
        <ele>1317.14</ele>
        <time>2024-10-31T08:38:49Z</time>
      </trkpt>
      <trkpt lat="44.82881" lon="3.46626">
        <ele>1317.14</ele>
        <time>2024-10-31T08:39:00Z</time>
      </trkpt>
      <trkpt lat="44.82895" lon="3.46638">
        <ele>1317.62</ele>
        <time>2024-10-31T08:39:12Z</time>
      </trkpt>
      <trkpt lat="44.8291" lon="3.46652">
        <ele>1318.59</ele>
        <time>2024-10-31T08:39:23Z</time>
      </trkpt>
      <trkpt lat="44.82912" lon="3.46653">
        <ele>1319.07</ele>
        <time>2024-10-31T08:39:26Z</time>
      </trkpt>
      <trkpt lat="44.82925" lon="3.46661">
        <ele>1319.07</ele>
        <time>2024-10-31T08:39:37Z</time>
      </trkpt>
      <trkpt lat="44.82944" lon="3.4668">
        <ele>1320.51</ele>
        <time>2024-10-31T08:39:59Z</time>
      </trkpt>
      <trkpt lat="44.82977" lon="3.46711">
        <ele>1319.55</ele>
        <time>2024-10-31T08:40:23Z</time>
      </trkpt>
      <trkpt lat="44.82996" lon="3.4672">
        <ele>1319.07</ele>
        <time>2024-10-31T08:40:39Z</time>
      </trkpt>
      <trkpt lat="44.83026" lon="3.46726">
        <ele>1321.47</ele>
        <time>2024-10-31T08:41:02Z</time>
      </trkpt>
      <trkpt lat="44.83055" lon="3.46717">
        <ele>1322.43</ele>
        <time>2024-10-31T08:41:25Z</time>
      </trkpt>
      <trkpt lat="44.83069" lon="3.46701">
        <ele>1320.99</ele>
        <time>2024-10-31T08:41:32Z</time>
      </trkpt>
      <trkpt lat="44.83096" lon="3.46673">
        <ele>1319.55</ele>
        <time>2024-10-31T08:41:53Z</time>
      </trkpt>
      <trkpt lat="44.8311" lon="3.46641">
        <ele>1319.07</ele>
        <time>2024-10-31T08:42:13Z</time>
      </trkpt>
      <trkpt lat="44.83118" lon="3.46607">
        <ele>1318.59</ele>
        <time>2024-10-31T08:42:34Z</time>
      </trkpt>
      <trkpt lat="44.83132" lon="3.46572">
        <ele>1316.66</ele>
        <time>2024-10-31T08:42:56Z</time>
      </trkpt>
      <trkpt lat="44.8314" lon="3.4654">
        <ele>1313.78</ele>
        <time>2024-10-31T08:43:15Z</time>
      </trkpt>
      <trkpt lat="44.83149" lon="3.46504">
        <ele>1312.34</ele>
        <time>2024-10-31T08:43:33Z</time>
      </trkpt>
      <trkpt lat="44.83153" lon="3.46471">
        <ele>1312.34</ele>
        <time>2024-10-31T08:43:52Z</time>
      </trkpt>
      <trkpt lat="44.83164" lon="3.46429">
        <ele>1309.93</ele>
        <time>2024-10-31T08:44:14Z</time>
      </trkpt>
      <trkpt lat="44.83176" lon="3.46387">
        <ele>1311.86</ele>
        <time>2024-10-31T08:44:35Z</time>
      </trkpt>
      <trkpt lat="44.83176" lon="3.46354">
        <ele>1314.74</ele>
        <time>2024-10-31T08:44:52Z</time>
      </trkpt>
      <trkpt lat="44.83168" lon="3.46322">
        <ele>1314.26</ele>
        <time>2024-10-31T08:45:10Z</time>
      </trkpt>
      <trkpt lat="44.83166" lon="3.46279">
        <ele>1315.22</ele>
        <time>2024-10-31T08:45:33Z</time>
      </trkpt>
      <trkpt lat="44.83177" lon="3.46259">
        <ele>1314.26</ele>
        <time>2024-10-31T08:45:51Z</time>
      </trkpt>
      <trkpt lat="44.8318" lon="3.46257">
        <ele>1314.26</ele>
        <time>2024-10-31T08:46:11Z</time>
      </trkpt>
      <trkpt lat="44.8318" lon="3.46263">
        <ele>1313.78</ele>
        <time>2024-10-31T08:46:27Z</time>
      </trkpt>
      <trkpt lat="44.83182" lon="3.46265">
        <ele>1313.3</ele>
        <time>2024-10-31T08:46:42Z</time>
      </trkpt>
      <trkpt lat="44.83179" lon="3.46264">
        <ele>1313.78</ele>
        <time>2024-10-31T08:47:05Z</time>
      </trkpt>
      <trkpt lat="44.83178" lon="3.46261">
        <ele>1313.3</ele>
        <time>2024-10-31T08:47:20Z</time>
      </trkpt>
      <trkpt lat="44.83174" lon="3.46263">
        <ele>1311.38</ele>
        <time>2024-10-31T08:47:36Z</time>
      </trkpt>
      <trkpt lat="44.83175" lon="3.46264">
        <ele>1312.34</ele>
        <time>2024-10-31T08:47:53Z</time>
      </trkpt>
      <trkpt lat="44.83177" lon="3.46246">
        <ele>1312.82</ele>
        <time>2024-10-31T08:48:13Z</time>
      </trkpt>
      <trkpt lat="44.83174" lon="3.46232">
        <ele>1311.86</ele>
        <time>2024-10-31T08:48:26Z</time>
      </trkpt>
      <trkpt lat="44.83173" lon="3.4623">
        <ele>1311.38</ele>
        <time>2024-10-31T08:48:27Z</time>
      </trkpt>
      <trkpt lat="44.83172" lon="3.46228">
        <ele>1311.38</ele>
        <time>2024-10-31T08:48:28Z</time>
      </trkpt>
      <trkpt lat="44.8317" lon="3.46223">
        <ele>1310.41</ele>
        <time>2024-10-31T08:48:31Z</time>
      </trkpt>
      <trkpt lat="44.83169" lon="3.46222">
        <ele>1310.41</ele>
        <time>2024-10-31T08:48:32Z</time>
      </trkpt>
      <trkpt lat="44.83169" lon="3.46221">
        <ele>1310.41</ele>
        <time>2024-10-31T08:48:33Z</time>
      </trkpt>
      <trkpt lat="44.83168" lon="3.46219">
        <ele>1310.41</ele>
        <time>2024-10-31T08:48:34Z</time>
      </trkpt>
      <trkpt lat="44.83167" lon="3.46217">
        <ele>1310.41</ele>
        <time>2024-10-31T08:48:35Z</time>
      </trkpt>
      <trkpt lat="44.83155" lon="3.46186">
        <ele>1306.57</ele>
        <time>2024-10-31T08:48:54Z</time>
      </trkpt>
      <trkpt lat="44.83143" lon="3.46161">
        <ele>1305.13</ele>
        <time>2024-10-31T08:49:10Z</time>
      </trkpt>
      <trkpt lat="44.83135" lon="3.46134">
        <ele>1303.2</ele>
        <time>2024-10-31T08:49:27Z</time>
      </trkpt>
      <trkpt lat="44.83134" lon="3.46125">
        <ele>1302.72</ele>
        <time>2024-10-31T08:49:40Z</time>
      </trkpt>
      <trkpt lat="44.83121" lon="3.46102">
        <ele>1303.2</ele>
        <time>2024-10-31T08:49:57Z</time>
      </trkpt>
      <trkpt lat="44.83112" lon="3.46072">
        <ele>1304.65</ele>
        <time>2024-10-31T08:50:15Z</time>
      </trkpt>
      <trkpt lat="44.83108" lon="3.46039">
        <ele>1305.61</ele>
        <time>2024-10-31T08:50:34Z</time>
      </trkpt>
      <trkpt lat="44.831" lon="3.46007">
        <ele>1305.13</ele>
        <time>2024-10-31T08:50:52Z</time>
      </trkpt>
      <trkpt lat="44.83091" lon="3.45968">
        <ele>1302.72</ele>
        <time>2024-10-31T08:51:12Z</time>
      </trkpt>
      <trkpt lat="44.83081" lon="3.45933">
        <ele>1300.32</ele>
        <time>2024-10-31T08:51:31Z</time>
      </trkpt>
      <trkpt lat="44.83073" lon="3.45894">
        <ele>1300.32</ele>
        <time>2024-10-31T08:51:51Z</time>
      </trkpt>
      <trkpt lat="44.83065" lon="3.45863">
        <ele>1302.24</ele>
        <time>2024-10-31T08:52:09Z</time>
      </trkpt>
      <trkpt lat="44.8307" lon="3.45854">
        <ele>1301.76</ele>
        <time>2024-10-31T08:52:18Z</time>
      </trkpt>
      <trkpt lat="44.83086" lon="3.45846">
        <ele>1298.88</ele>
        <time>2024-10-31T08:52:36Z</time>
      </trkpt>
      <trkpt lat="44.83089" lon="3.45845">
        <ele>1296.96</ele>
        <time>2024-10-31T08:52:53Z</time>
      </trkpt>
      <trkpt lat="44.83085" lon="3.45841">
        <ele>1296.96</ele>
        <time>2024-10-31T08:53:19Z</time>
      </trkpt>
      <trkpt lat="44.83084" lon="3.45838">
        <ele>1296.48</ele>
        <time>2024-10-31T08:53:35Z</time>
      </trkpt>
      <trkpt lat="44.83068" lon="3.45824">
        <ele>1295.51</ele>
        <time>2024-10-31T08:53:52Z</time>
      </trkpt>
      <trkpt lat="44.83067" lon="3.45822">
        <ele>1295.03</ele>
        <time>2024-10-31T08:53:53Z</time>
      </trkpt>
      <trkpt lat="44.83052" lon="3.45801">
        <ele>1294.07</ele>
        <time>2024-10-31T08:54:11Z</time>
      </trkpt>
      <trkpt lat="44.8305" lon="3.45766">
        <ele>1292.15</ele>
        <time>2024-10-31T08:54:31Z</time>
      </trkpt>
      <trkpt lat="44.8305" lon="3.45763">
        <ele>1291.67</ele>
        <time>2024-10-31T08:54:32Z</time>
      </trkpt>
      <trkpt lat="44.8305" lon="3.4576">
        <ele>1291.67</ele>
        <time>2024-10-31T08:54:33Z</time>
      </trkpt>
      <trkpt lat="44.83044" lon="3.45728">
        <ele>1290.71</ele>
        <time>2024-10-31T08:54:50Z</time>
      </trkpt>
      <trkpt lat="44.83032" lon="3.45695">
        <ele>1291.19</ele>
        <time>2024-10-31T08:55:10Z</time>
      </trkpt>
      <trkpt lat="44.83012" lon="3.45664">
        <ele>1294.07</ele>
        <time>2024-10-31T08:55:31Z</time>
      </trkpt>
      <trkpt lat="44.82991" lon="3.45645">
        <ele>1296.96</ele>
        <time>2024-10-31T08:55:52Z</time>
      </trkpt>
      <trkpt lat="44.82962" lon="3.45632">
        <ele>1296.96</ele>
        <time>2024-10-31T08:56:14Z</time>
      </trkpt>
      <trkpt lat="44.82949" lon="3.45629">
        <ele>1296.48</ele>
        <time>2024-10-31T08:56:29Z</time>
      </trkpt>
      <trkpt lat="44.82919" lon="3.45616">
        <ele>1296.96</ele>
        <time>2024-10-31T08:56:51Z</time>
      </trkpt>
      <trkpt lat="44.82911" lon="3.45614">
        <ele>1296.48</ele>
        <time>2024-10-31T08:57:14Z</time>
      </trkpt>
      <trkpt lat="44.829" lon="3.45603">
        <ele>1295.99</ele>
        <time>2024-10-31T08:57:30Z</time>
      </trkpt>
      <trkpt lat="44.82881" lon="3.45587">
        <ele>1296.96</ele>
        <time>2024-10-31T08:57:52Z</time>
      </trkpt>
      <trkpt lat="44.82861" lon="3.45576">
        <ele>1297.92</ele>
        <time>2024-10-31T08:58:11Z</time>
      </trkpt>
      <trkpt lat="44.82852" lon="3.45559">
        <ele>1294.55</ele>
        <time>2024-10-31T08:58:30Z</time>
      </trkpt>
      <trkpt lat="44.82855" lon="3.45555">
        <ele>1291.67</ele>
        <time>2024-10-31T08:58:51Z</time>
      </trkpt>
      <trkpt lat="44.82857" lon="3.45562">
        <ele>1291.19</ele>
        <time>2024-10-31T08:59:17Z</time>
      </trkpt>
      <trkpt lat="44.82867" lon="3.45586">
        <ele>1291.19</ele>
        <time>2024-10-31T08:59:48Z</time>
      </trkpt>
      <trkpt lat="44.8285" lon="3.45551">
        <ele>1291.67</ele>
        <time>2024-10-31T09:01:17Z</time>
      </trkpt>
      <trkpt lat="44.8285" lon="3.45551">
        <ele>1276.77</ele>
        <time>2024-10-31T09:01:34Z</time>
      </trkpt>
      <trkpt lat="44.82843" lon="3.45533">
        <ele>1252.25</ele>
        <time>2024-10-31T09:01:57Z</time>
      </trkpt>
      <trkpt lat="44.82842" lon="3.45532">
        <ele>1243.6</ele>
        <time>2024-10-31T09:02:27Z</time>
      </trkpt>
      <trkpt lat="44.82841" lon="3.45535">
        <ele>1259.46</ele>
        <time>2024-10-31T09:02:51Z</time>
      </trkpt>
      <trkpt lat="44.82831" lon="3.45541">
        <ele>1264.27</ele>
        <time>2024-10-31T09:03:08Z</time>
      </trkpt>
      <trkpt lat="44.82832" lon="3.45544">
        <ele>1272.92</ele>
        <time>2024-10-31T09:03:26Z</time>
      </trkpt>
      <trkpt lat="44.82827" lon="3.45549">
        <ele>1272.44</ele>
        <time>2024-10-31T09:03:49Z</time>
      </trkpt>
      <trkpt lat="44.82808" lon="3.45554">
        <ele>1273.88</ele>
        <time>2024-10-31T09:04:05Z</time>
      </trkpt>
      <trkpt lat="44.82819" lon="3.45576">
        <ele>1280.61</ele>
        <time>2024-10-31T09:04:20Z</time>
      </trkpt>
      <trkpt lat="44.82822" lon="3.4558">
        <ele>1282.54</ele>
        <time>2024-10-31T09:04:35Z</time>
      </trkpt>
      <trkpt lat="44.82826" lon="3.45582">
        <ele>1283.02</ele>
        <time>2024-10-31T09:04:55Z</time>
      </trkpt>
      <trkpt lat="44.82822" lon="3.45582">
        <ele>1285.42</ele>
        <time>2024-10-31T09:05:06Z</time>
      </trkpt>
      <trkpt lat="44.82821" lon="3.45574">
        <ele>1285.9</ele>
        <time>2024-10-31T09:05:32Z</time>
      </trkpt>
      <trkpt lat="44.8282" lon="3.45573">
        <ele>1284.46</ele>
        <time>2024-10-31T09:05:49Z</time>
      </trkpt>
      <trkpt lat="44.82818" lon="3.45566">
        <ele>1286.38</ele>
        <time>2024-10-31T09:06:13Z</time>
      </trkpt>
      <trkpt lat="44.82817" lon="3.45568">
        <ele>1286.38</ele>
        <time>2024-10-31T09:06:23Z</time>
      </trkpt>
      <trkpt lat="44.82804" lon="3.45559">
        <ele>1285.9</ele>
        <time>2024-10-31T09:06:38Z</time>
      </trkpt>
      <trkpt lat="44.82784" lon="3.45534">
        <ele>1282.06</ele>
        <time>2024-10-31T09:06:58Z</time>
      </trkpt>
      <trkpt lat="44.82771" lon="3.45517">
        <ele>1280.61</ele>
        <time>2024-10-31T09:07:14Z</time>
      </trkpt>
      <trkpt lat="44.82769" lon="3.45513">
        <ele>1280.61</ele>
        <time>2024-10-31T09:07:16Z</time>
      </trkpt>
      <trkpt lat="44.82771" lon="3.45505">
        <ele>1280.13</ele>
        <time>2024-10-31T09:07:21Z</time>
      </trkpt>
      <trkpt lat="44.82785" lon="3.45487">
        <ele>1282.06</ele>
        <time>2024-10-31T09:07:33Z</time>
      </trkpt>
      <trkpt lat="44.82793" lon="3.45476">
        <ele>1284.94</ele>
        <time>2024-10-31T09:07:44Z</time>
      </trkpt>
      <trkpt lat="44.82806" lon="3.45463">
        <ele>1286.86</ele>
        <time>2024-10-31T09:07:55Z</time>
      </trkpt>
      <trkpt lat="44.82816" lon="3.45454">
        <ele>1287.34</ele>
        <time>2024-10-31T09:08:06Z</time>
      </trkpt>
      <trkpt lat="44.8283" lon="3.45447">
        <ele>1288.3</ele>
        <time>2024-10-31T09:08:17Z</time>
      </trkpt>
      <trkpt lat="44.82832" lon="3.45447">
        <ele>1288.3</ele>
        <time>2024-10-31T09:08:18Z</time>
      </trkpt>
      <trkpt lat="44.82833" lon="3.45448">
        <ele>1288.3</ele>
        <time>2024-10-31T09:08:19Z</time>
      </trkpt>
      <trkpt lat="44.82836" lon="3.45448">
        <ele>1287.82</ele>
        <time>2024-10-31T09:08:22Z</time>
      </trkpt>
      <trkpt lat="44.82838" lon="3.45448">
        <ele>1287.82</ele>
        <time>2024-10-31T09:08:23Z</time>
      </trkpt>
      <trkpt lat="44.82852" lon="3.45445">
        <ele>1287.34</ele>
        <time>2024-10-31T09:08:34Z</time>
      </trkpt>
      <trkpt lat="44.82867" lon="3.4544">
        <ele>1288.3</ele>
        <time>2024-10-31T09:08:47Z</time>
      </trkpt>
      <trkpt lat="44.82881" lon="3.45435">
        <ele>1290.23</ele>
        <time>2024-10-31T09:09:00Z</time>
      </trkpt>
      <trkpt lat="44.82895" lon="3.4543">
        <ele>1292.15</ele>
        <time>2024-10-31T09:09:12Z</time>
      </trkpt>
      <trkpt lat="44.8291" lon="3.45422">
        <ele>1295.51</ele>
        <time>2024-10-31T09:09:26Z</time>
      </trkpt>
      <trkpt lat="44.82923" lon="3.45418">
        <ele>1298.88</ele>
        <time>2024-10-31T09:09:38Z</time>
      </trkpt>
      <trkpt lat="44.82938" lon="3.45413">
        <ele>1300.32</ele>
        <time>2024-10-31T09:09:53Z</time>
      </trkpt>
      <trkpt lat="44.8294" lon="3.45417">
        <ele>1304.17</ele>
        <time>2024-10-31T09:10:20Z</time>
      </trkpt>
      <trkpt lat="44.82959" lon="3.45413">
        <ele>1307.05</ele>
        <time>2024-10-31T09:10:37Z</time>
      </trkpt>
      <trkpt lat="44.82981" lon="3.454">
        <ele>1309.45</ele>
        <time>2024-10-31T09:10:56Z</time>
      </trkpt>
      <trkpt lat="44.83004" lon="3.4538">
        <ele>1312.82</ele>
        <time>2024-10-31T09:11:16Z</time>
      </trkpt>
      <trkpt lat="44.83025" lon="3.45368">
        <ele>1316.18</ele>
        <time>2024-10-31T09:11:34Z</time>
      </trkpt>
      <trkpt lat="44.83043" lon="3.45357">
        <ele>1318.59</ele>
        <time>2024-10-31T09:11:50Z</time>
      </trkpt>
      <trkpt lat="44.83064" lon="3.45344">
        <ele>1319.07</ele>
        <time>2024-10-31T09:12:08Z</time>
      </trkpt>
      <trkpt lat="44.83086" lon="3.45326">
        <ele>1320.03</ele>
        <time>2024-10-31T09:12:27Z</time>
      </trkpt>
      <trkpt lat="44.8311" lon="3.45309">
        <ele>1322.91</ele>
        <time>2024-10-31T09:12:46Z</time>
      </trkpt>
      <trkpt lat="44.8312" lon="3.453">
        <ele>1325.31</ele>
        <time>2024-10-31T09:12:57Z</time>
      </trkpt>
      <trkpt lat="44.83123" lon="3.45297">
        <ele>1325.8</ele>
        <time>2024-10-31T09:13:00Z</time>
      </trkpt>
      <trkpt lat="44.83145" lon="3.45286">
        <ele>1329.16</ele>
        <time>2024-10-31T09:13:20Z</time>
      </trkpt>
      <trkpt lat="44.83161" lon="3.45273">
        <ele>1332.52</ele>
        <time>2024-10-31T09:13:36Z</time>
      </trkpt>
      <trkpt lat="44.83183" lon="3.45259">
        <ele>1334.93</ele>
        <time>2024-10-31T09:13:54Z</time>
      </trkpt>
      <trkpt lat="44.83206" lon="3.45249">
        <ele>1337.81</ele>
        <time>2024-10-31T09:14:14Z</time>
      </trkpt>
      <trkpt lat="44.83229" lon="3.45231">
        <ele>1339.73</ele>
        <time>2024-10-31T09:14:35Z</time>
      </trkpt>
      <trkpt lat="44.8325" lon="3.4521">
        <ele>1342.14</ele>
        <time>2024-10-31T09:14:55Z</time>
      </trkpt>
      <trkpt lat="44.83269" lon="3.4519">
        <ele>1343.58</ele>
        <time>2024-10-31T09:15:12Z</time>
      </trkpt>
      <trkpt lat="44.83286" lon="3.45176">
        <ele>1344.54</ele>
        <time>2024-10-31T09:15:31Z</time>
      </trkpt>
      <trkpt lat="44.83292" lon="3.45171">
        <ele>1346.94</ele>
        <time>2024-10-31T09:15:43Z</time>
      </trkpt>
      <trkpt lat="44.83288" lon="3.45172">
        <ele>1347.43</ele>
        <time>2024-10-31T09:15:56Z</time>
      </trkpt>
      <trkpt lat="44.8329" lon="3.45169">
        <ele>1346.46</ele>
        <time>2024-10-31T09:16:08Z</time>
      </trkpt>
      <trkpt lat="44.83309" lon="3.45154">
        <ele>1345.98</ele>
        <time>2024-10-31T09:16:29Z</time>
      </trkpt>
      <trkpt lat="44.8332" lon="3.45143">
        <ele>1345.02</ele>
        <time>2024-10-31T09:16:41Z</time>
      </trkpt>
      <trkpt lat="44.83324" lon="3.45141">
        <ele>1345.02</ele>
        <time>2024-10-31T09:16:45Z</time>
      </trkpt>
      <trkpt lat="44.83326" lon="3.4514">
        <ele>1344.54</ele>
        <time>2024-10-31T09:16:46Z</time>
      </trkpt>
      <trkpt lat="44.83327" lon="3.45139">
        <ele>1344.54</ele>
        <time>2024-10-31T09:16:47Z</time>
      </trkpt>
      <trkpt lat="44.83329" lon="3.45137">
        <ele>1344.54</ele>
        <time>2024-10-31T09:16:48Z</time>
      </trkpt>
      <trkpt lat="44.8333" lon="3.45136">
        <ele>1344.54</ele>
        <time>2024-10-31T09:16:49Z</time>
      </trkpt>
      <trkpt lat="44.83339" lon="3.45128">
        <ele>1343.58</ele>
        <time>2024-10-31T09:16:58Z</time>
      </trkpt>
      <trkpt lat="44.83349" lon="3.45119">
        <ele>1342.14</ele>
        <time>2024-10-31T09:17:09Z</time>
      </trkpt>
      <trkpt lat="44.83357" lon="3.45111">
        <ele>1342.62</ele>
        <time>2024-10-31T09:17:17Z</time>
      </trkpt>
      <trkpt lat="44.8337" lon="3.45097">
        <ele>1341.66</ele>
        <time>2024-10-31T09:17:31Z</time>
      </trkpt>
      <trkpt lat="44.83374" lon="3.4509">
        <ele>1341.18</ele>
        <time>2024-10-31T09:17:36Z</time>
      </trkpt>
      <trkpt lat="44.83375" lon="3.45088">
        <ele>1341.18</ele>
        <time>2024-10-31T09:17:37Z</time>
      </trkpt>
      <trkpt lat="44.83377" lon="3.45082">
        <ele>1340.7</ele>
        <time>2024-10-31T09:17:41Z</time>
      </trkpt>
      <trkpt lat="44.83378" lon="3.4508">
        <ele>1340.22</ele>
        <time>2024-10-31T09:17:42Z</time>
      </trkpt>
      <trkpt lat="44.83379" lon="3.45079">
        <ele>1340.22</ele>
        <time>2024-10-31T09:17:43Z</time>
      </trkpt>
      <trkpt lat="44.83386" lon="3.45053">
        <ele>1338.29</ele>
        <time>2024-10-31T09:17:59Z</time>
      </trkpt>
      <trkpt lat="44.83394" lon="3.45041">
        <ele>1336.85</ele>
        <time>2024-10-31T09:18:13Z</time>
      </trkpt>
      <trkpt lat="44.83395" lon="3.45042">
        <ele>1336.85</ele>
        <time>2024-10-31T09:18:14Z</time>
      </trkpt>
      <trkpt lat="44.83404" lon="3.45063">
        <ele>1337.81</ele>
        <time>2024-10-31T09:18:30Z</time>
      </trkpt>
      <trkpt lat="44.83415" lon="3.45094">
        <ele>1341.18</ele>
        <time>2024-10-31T09:18:50Z</time>
      </trkpt>
      <trkpt lat="44.83425" lon="3.45126">
        <ele>1344.06</ele>
        <time>2024-10-31T09:19:09Z</time>
      </trkpt>
      <trkpt lat="44.83433" lon="3.45154">
        <ele>1345.5</ele>
        <time>2024-10-31T09:19:25Z</time>
      </trkpt>
      <trkpt lat="44.8344" lon="3.45183">
        <ele>1345.02</ele>
        <time>2024-10-31T09:19:41Z</time>
      </trkpt>
      <trkpt lat="44.83448" lon="3.45208">
        <ele>1343.58</ele>
        <time>2024-10-31T09:19:56Z</time>
      </trkpt>
      <trkpt lat="44.83452" lon="3.45219">
        <ele>1343.1</ele>
        <time>2024-10-31T09:20:03Z</time>
      </trkpt>
      <trkpt lat="44.83461" lon="3.45244">
        <ele>1342.62</ele>
        <time>2024-10-31T09:20:18Z</time>
      </trkpt>
      <trkpt lat="44.8347" lon="3.45271">
        <ele>1341.66</ele>
        <time>2024-10-31T09:20:35Z</time>
      </trkpt>
      <trkpt lat="44.83479" lon="3.45299">
        <ele>1341.66</ele>
        <time>2024-10-31T09:20:52Z</time>
      </trkpt>
      <trkpt lat="44.83488" lon="3.4533">
        <ele>1343.58</ele>
        <time>2024-10-31T09:21:08Z</time>
      </trkpt>
      <trkpt lat="44.83496" lon="3.45363">
        <ele>1345.98</ele>
        <time>2024-10-31T09:21:27Z</time>
      </trkpt>
      <trkpt lat="44.83505" lon="3.45388">
        <ele>1348.39</ele>
        <time>2024-10-31T09:21:43Z</time>
      </trkpt>
      <trkpt lat="44.83513" lon="3.4541">
        <ele>1349.83</ele>
        <time>2024-10-31T09:21:58Z</time>
      </trkpt>
      <trkpt lat="44.83521" lon="3.45436">
        <ele>1351.27</ele>
        <time>2024-10-31T09:22:15Z</time>
      </trkpt>
      <trkpt lat="44.83526" lon="3.45453">
        <ele>1351.75</ele>
        <time>2024-10-31T09:22:30Z</time>
      </trkpt>
      <trkpt lat="44.83534" lon="3.45475">
        <ele>1353.19</ele>
        <time>2024-10-31T09:22:45Z</time>
      </trkpt>
      <trkpt lat="44.83541" lon="3.45504">
        <ele>1356.56</ele>
        <time>2024-10-31T09:23:03Z</time>
      </trkpt>
      <trkpt lat="44.83547" lon="3.45528">
        <ele>1358.96</ele>
        <time>2024-10-31T09:23:18Z</time>
      </trkpt>
      <trkpt lat="44.83554" lon="3.45553">
        <ele>1360.88</ele>
        <time>2024-10-31T09:23:35Z</time>
      </trkpt>
      <trkpt lat="44.83559" lon="3.45568">
        <ele>1362.33</ele>
        <time>2024-10-31T09:23:48Z</time>
      </trkpt>
      <trkpt lat="44.83568" lon="3.45595">
        <ele>1365.69</ele>
        <time>2024-10-31T09:24:08Z</time>
      </trkpt>
      <trkpt lat="44.83576" lon="3.45618">
        <ele>1367.61</ele>
        <time>2024-10-31T09:24:27Z</time>
      </trkpt>
      <trkpt lat="44.83582" lon="3.45642">
        <ele>1370.98</ele>
        <time>2024-10-31T09:24:44Z</time>
      </trkpt>
      <trkpt lat="44.8359" lon="3.45664">
        <ele>1374.82</ele>
        <time>2024-10-31T09:25:02Z</time>
      </trkpt>
      <trkpt lat="44.83594" lon="3.45666">
        <ele>1376.75</ele>
        <time>2024-10-31T09:25:25Z</time>
      </trkpt>
      <trkpt lat="44.83594" lon="3.45667">
        <ele>1377.71</ele>
        <time>2024-10-31T09:25:42Z</time>
      </trkpt>
      <trkpt lat="44.83603" lon="3.45692">
        <ele>1379.63</ele>
        <time>2024-10-31T09:26:00Z</time>
      </trkpt>
      <trkpt lat="44.8361" lon="3.4572">
        <ele>1382.51</ele>
        <time>2024-10-31T09:26:17Z</time>
      </trkpt>
      <trkpt lat="44.83617" lon="3.45743">
        <ele>1383.96</ele>
        <time>2024-10-31T09:26:33Z</time>
      </trkpt>
      <trkpt lat="44.83624" lon="3.45769">
        <ele>1386.84</ele>
        <time>2024-10-31T09:26:49Z</time>
      </trkpt>
      <trkpt lat="44.83629" lon="3.45785">
        <ele>1390.68</ele>
        <time>2024-10-31T09:26:59Z</time>
      </trkpt>
      <trkpt lat="44.83637" lon="3.45812">
        <ele>1394.53</ele>
        <time>2024-10-31T09:27:16Z</time>
      </trkpt>
      <trkpt lat="44.83645" lon="3.45837">
        <ele>1395.49</ele>
        <time>2024-10-31T09:27:33Z</time>
      </trkpt>
      <trkpt lat="44.83653" lon="3.45853">
        <ele>1395.97</ele>
        <time>2024-10-31T09:27:45Z</time>
      </trkpt>
      <trkpt lat="44.83654" lon="3.45853">
        <ele>1395.97</ele>
        <time>2024-10-31T09:27:46Z</time>
      </trkpt>
      <trkpt lat="44.83667" lon="3.45855">
        <ele>1397.89</ele>
        <time>2024-10-31T09:27:56Z</time>
      </trkpt>
      <trkpt lat="44.83678" lon="3.45857">
        <ele>1399.82</ele>
        <time>2024-10-31T09:28:06Z</time>
      </trkpt>
      <trkpt lat="44.83686" lon="3.45857">
        <ele>1402.22</ele>
        <time>2024-10-31T09:28:14Z</time>
      </trkpt>
      <trkpt lat="44.83695" lon="3.45856">
        <ele>1404.14</ele>
        <time>2024-10-31T09:28:25Z</time>
      </trkpt>
      <trkpt lat="44.83697" lon="3.45857">
        <ele>1404.14</ele>
        <time>2024-10-31T09:28:28Z</time>
      </trkpt>
      <trkpt lat="44.8371" lon="3.45862">
        <ele>1404.14</ele>
        <time>2024-10-31T09:28:42Z</time>
      </trkpt>
      <trkpt lat="44.83721" lon="3.45862">
        <ele>1403.66</ele>
        <time>2024-10-31T09:28:53Z</time>
      </trkpt>
      <trkpt lat="44.83724" lon="3.4586">
        <ele>1403.66</ele>
        <time>2024-10-31T09:28:55Z</time>
      </trkpt>
      <trkpt lat="44.8374" lon="3.45863">
        <ele>1404.62</ele>
        <time>2024-10-31T09:29:12Z</time>
      </trkpt>
      <trkpt lat="44.83763" lon="3.45864">
        <ele>1407.03</ele>
        <time>2024-10-31T09:29:33Z</time>
      </trkpt>
      <trkpt lat="44.83789" lon="3.45864">
        <ele>1408.95</ele>
        <time>2024-10-31T09:29:52Z</time>
      </trkpt>
      <trkpt lat="44.83817" lon="3.45867">
        <ele>1410.39</ele>
        <time>2024-10-31T09:30:15Z</time>
      </trkpt>
      <trkpt lat="44.83845" lon="3.45871">
        <ele>1411.35</ele>
        <time>2024-10-31T09:30:41Z</time>
      </trkpt>
      <trkpt lat="44.83868" lon="3.45872">
        <ele>1415.68</ele>
        <time>2024-10-31T09:31:03Z</time>
      </trkpt>
      <trkpt lat="44.83895" lon="3.45873">
        <ele>1417.12</ele>
        <time>2024-10-31T09:31:27Z</time>
      </trkpt>
      <trkpt lat="44.8392" lon="3.45876">
        <ele>1420.49</ele>
        <time>2024-10-31T09:31:46Z</time>
      </trkpt>
      <trkpt lat="44.83942" lon="3.45871">
        <ele>1421.93</ele>
        <time>2024-10-31T09:32:06Z</time>
      </trkpt>
      <trkpt lat="44.83962" lon="3.45856">
        <ele>1422.41</ele>
        <time>2024-10-31T09:32:24Z</time>
      </trkpt>
      <trkpt lat="44.83987" lon="3.45841">
        <ele>1420.97</ele>
        <time>2024-10-31T09:32:44Z</time>
      </trkpt>
      <trkpt lat="44.84015" lon="3.45826">
        <ele>1422.41</ele>
        <time>2024-10-31T09:33:06Z</time>
      </trkpt>
      <trkpt lat="44.84038" lon="3.45814">
        <ele>1421.93</ele>
        <time>2024-10-31T09:33:26Z</time>
      </trkpt>
      <trkpt lat="44.84062" lon="3.45798">
        <ele>1421.93</ele>
        <time>2024-10-31T09:33:47Z</time>
      </trkpt>
      <trkpt lat="44.84087" lon="3.45784">
        <ele>1420.97</ele>
        <time>2024-10-31T09:34:07Z</time>
      </trkpt>
      <trkpt lat="44.84105" lon="3.4577">
        <ele>1420.97</ele>
        <time>2024-10-31T09:34:23Z</time>
      </trkpt>
      <trkpt lat="44.84117" lon="3.45765">
        <ele>1419.52</ele>
        <time>2024-10-31T09:34:33Z</time>
      </trkpt>
      <trkpt lat="44.84132" lon="3.45754">
        <ele>1418.56</ele>
        <time>2024-10-31T09:34:44Z</time>
      </trkpt>
      <trkpt lat="44.84143" lon="3.45746">
        <ele>1419.52</ele>
        <time>2024-10-31T09:34:54Z</time>
      </trkpt>
      <trkpt lat="44.84156" lon="3.45738">
        <ele>1418.08</ele>
        <time>2024-10-31T09:35:06Z</time>
      </trkpt>
      <trkpt lat="44.84166" lon="3.4573">
        <ele>1416.16</ele>
        <time>2024-10-31T09:35:15Z</time>
      </trkpt>
      <trkpt lat="44.84169" lon="3.45728">
        <ele>1415.68</ele>
        <time>2024-10-31T09:35:19Z</time>
      </trkpt>
      <trkpt lat="44.84187" lon="3.45715">
        <ele>1411.35</ele>
        <time>2024-10-31T09:35:35Z</time>
      </trkpt>
      <trkpt lat="44.84199" lon="3.45708">
        <ele>1408.95</ele>
        <time>2024-10-31T09:35:48Z</time>
      </trkpt>
      <trkpt lat="44.84221" lon="3.45696">
        <ele>1406.07</ele>
        <time>2024-10-31T09:36:09Z</time>
      </trkpt>
      <trkpt lat="44.84243" lon="3.45682">
        <ele>1403.66</ele>
        <time>2024-10-31T09:36:28Z</time>
      </trkpt>
      <trkpt lat="44.84244" lon="3.45681">
        <ele>1403.66</ele>
        <time>2024-10-31T09:36:29Z</time>
      </trkpt>
      <trkpt lat="44.84266" lon="3.45668">
        <ele>1401.74</ele>
        <time>2024-10-31T09:36:48Z</time>
      </trkpt>
      <trkpt lat="44.84288" lon="3.45653">
        <ele>1398.86</ele>
        <time>2024-10-31T09:37:09Z</time>
      </trkpt>
      <trkpt lat="44.84307" lon="3.4564">
        <ele>1398.86</ele>
        <time>2024-10-31T09:37:26Z</time>
      </trkpt>
      <trkpt lat="44.84334" lon="3.45625">
        <ele>1398.86</ele>
        <time>2024-10-31T09:37:47Z</time>
      </trkpt>
      <trkpt lat="44.84355" lon="3.45609">
        <ele>1398.86</ele>
        <time>2024-10-31T09:38:06Z</time>
      </trkpt>
      <trkpt lat="44.84375" lon="3.45597">
        <ele>1399.34</ele>
        <time>2024-10-31T09:38:23Z</time>
      </trkpt>
      <trkpt lat="44.84394" lon="3.45585">
        <ele>1399.34</ele>
        <time>2024-10-31T09:38:41Z</time>
      </trkpt>
      <trkpt lat="44.84397" lon="3.45585">
        <ele>1398.86</ele>
        <time>2024-10-31T09:38:59Z</time>
      </trkpt>
      <trkpt lat="44.84411" lon="3.45577">
        <ele>1398.37</ele>
        <time>2024-10-31T09:39:16Z</time>
      </trkpt>
      <trkpt lat="44.84419" lon="3.45569">
        <ele>1397.89</ele>
        <time>2024-10-31T09:39:31Z</time>
      </trkpt>
      <trkpt lat="44.84427" lon="3.45558">
        <ele>1397.89</ele>
        <time>2024-10-31T09:39:45Z</time>
      </trkpt>
      <trkpt lat="44.84434" lon="3.45535">
        <ele>1396.93</ele>
        <time>2024-10-31T09:39:59Z</time>
      </trkpt>
      <trkpt lat="44.84435" lon="3.45528">
        <ele>1395.97</ele>
        <time>2024-10-31T09:40:03Z</time>
      </trkpt>
      <trkpt lat="44.84439" lon="3.45508">
        <ele>1395.97</ele>
        <time>2024-10-31T09:40:14Z</time>
      </trkpt>
      <trkpt lat="44.84446" lon="3.45493">
        <ele>1396.45</ele>
        <time>2024-10-31T09:40:25Z</time>
      </trkpt>
      <trkpt lat="44.84452" lon="3.45477">
        <ele>1397.41</ele>
        <time>2024-10-31T09:40:34Z</time>
      </trkpt>
      <trkpt lat="44.84458" lon="3.45458">
        <ele>1398.86</ele>
        <time>2024-10-31T09:40:45Z</time>
      </trkpt>
      <trkpt lat="44.84463" lon="3.45438">
        <ele>1399.34</ele>
        <time>2024-10-31T09:40:57Z</time>
      </trkpt>
      <trkpt lat="44.84467" lon="3.45422">
        <ele>1399.34</ele>
        <time>2024-10-31T09:41:07Z</time>
      </trkpt>
      <trkpt lat="44.84468" lon="3.45417">
        <ele>1399.34</ele>
        <time>2024-10-31T09:41:10Z</time>
      </trkpt>
      <trkpt lat="44.8447" lon="3.45408">
        <ele>1398.86</ele>
        <time>2024-10-31T09:41:16Z</time>
      </trkpt>
      <trkpt lat="44.84471" lon="3.45386">
        <ele>1396.93</ele>
        <time>2024-10-31T09:41:29Z</time>
      </trkpt>
      <trkpt lat="44.84475" lon="3.45366">
        <ele>1395.01</ele>
        <time>2024-10-31T09:41:41Z</time>
      </trkpt>
      <trkpt lat="44.84476" lon="3.45359">
        <ele>1394.53</ele>
        <time>2024-10-31T09:41:49Z</time>
      </trkpt>
      <trkpt lat="44.84477" lon="3.45353">
        <ele>1393.57</ele>
        <time>2024-10-31T09:42:03Z</time>
      </trkpt>
      <trkpt lat="44.84482" lon="3.45356">
        <ele>1394.05</ele>
        <time>2024-10-31T09:42:14Z</time>
      </trkpt>
      <trkpt lat="44.84486" lon="3.45357">
        <ele>1393.57</ele>
        <time>2024-10-31T09:42:20Z</time>
      </trkpt>
      <trkpt lat="44.84488" lon="3.45352">
        <ele>1393.57</ele>
        <time>2024-10-31T09:42:25Z</time>
      </trkpt>
      <trkpt lat="44.84494" lon="3.45335">
        <ele>1394.05</ele>
        <time>2024-10-31T09:42:37Z</time>
      </trkpt>
      <trkpt lat="44.84498" lon="3.45325">
        <ele>1393.09</ele>
        <time>2024-10-31T09:42:49Z</time>
      </trkpt>
      <trkpt lat="44.84499" lon="3.45317">
        <ele>1393.57</ele>
        <time>2024-10-31T09:43:00Z</time>
      </trkpt>
      <trkpt lat="44.84498" lon="3.45316">
        <ele>1393.57</ele>
        <time>2024-10-31T09:43:02Z</time>
      </trkpt>
      <trkpt lat="44.84491" lon="3.45308">
        <ele>1395.97</ele>
        <time>2024-10-31T09:43:13Z</time>
      </trkpt>
      <trkpt lat="44.84492" lon="3.45305">
        <ele>1396.45</ele>
        <time>2024-10-31T09:43:16Z</time>
      </trkpt>
      <trkpt lat="44.84497" lon="3.45286">
        <ele>1398.37</ele>
        <time>2024-10-31T09:43:26Z</time>
      </trkpt>
      <trkpt lat="44.84499" lon="3.45271">
        <ele>1399.82</ele>
        <time>2024-10-31T09:43:36Z</time>
      </trkpt>
      <trkpt lat="44.84503" lon="3.45255">
        <ele>1401.26</ele>
        <time>2024-10-31T09:43:46Z</time>
      </trkpt>
      <trkpt lat="44.84508" lon="3.45238">
        <ele>1403.66</ele>
        <time>2024-10-31T09:43:57Z</time>
      </trkpt>
      <trkpt lat="44.84511" lon="3.45218">
        <ele>1405.1</ele>
        <time>2024-10-31T09:44:06Z</time>
      </trkpt>
      <trkpt lat="44.84516" lon="3.45201">
        <ele>1402.22</ele>
        <time>2024-10-31T09:44:17Z</time>
      </trkpt>
      <trkpt lat="44.84519" lon="3.45186">
        <ele>1401.26</ele>
        <time>2024-10-31T09:44:26Z</time>
      </trkpt>
      <trkpt lat="44.84523" lon="3.45169">
        <ele>1400.78</ele>
        <time>2024-10-31T09:44:36Z</time>
      </trkpt>
      <trkpt lat="44.84524" lon="3.45167">
        <ele>1400.78</ele>
        <time>2024-10-31T09:44:37Z</time>
      </trkpt>
      <trkpt lat="44.84528" lon="3.4516">
        <ele>1400.3</ele>
        <time>2024-10-31T09:44:42Z</time>
      </trkpt>
      <trkpt lat="44.84534" lon="3.45143">
        <ele>1400.78</ele>
        <time>2024-10-31T09:44:54Z</time>
      </trkpt>
      <trkpt lat="44.84549" lon="3.45137">
        <ele>1400.3</ele>
        <time>2024-10-31T09:45:12Z</time>
      </trkpt>
      <trkpt lat="44.84555" lon="3.45134">
        <ele>1400.3</ele>
        <time>2024-10-31T09:45:18Z</time>
      </trkpt>
      <trkpt lat="44.84569" lon="3.45121">
        <ele>1399.34</ele>
        <time>2024-10-31T09:45:29Z</time>
      </trkpt>
      <trkpt lat="44.8458" lon="3.45115">
        <ele>1398.37</ele>
        <time>2024-10-31T09:45:39Z</time>
      </trkpt>
      <trkpt lat="44.84585" lon="3.45112">
        <ele>1395.97</ele>
        <time>2024-10-31T09:45:51Z</time>
      </trkpt>
      <trkpt lat="44.84589" lon="3.4511">
        <ele>1395.49</ele>
        <time>2024-10-31T09:45:53Z</time>
      </trkpt>
      <trkpt lat="44.84604" lon="3.45102">
        <ele>1392.61</ele>
        <time>2024-10-31T09:46:04Z</time>
      </trkpt>
      <trkpt lat="44.84614" lon="3.45096">
        <ele>1391.17</ele>
        <time>2024-10-31T09:46:13Z</time>
      </trkpt>
      <trkpt lat="44.84626" lon="3.45089">
        <ele>1391.17</ele>
        <time>2024-10-31T09:46:23Z</time>
      </trkpt>
      <trkpt lat="44.84641" lon="3.45081">
        <ele>1392.13</ele>
        <time>2024-10-31T09:46:34Z</time>
      </trkpt>
      <trkpt lat="44.84654" lon="3.45072">
        <ele>1392.61</ele>
        <time>2024-10-31T09:46:45Z</time>
      </trkpt>
      <trkpt lat="44.84667" lon="3.45064">
        <ele>1392.13</ele>
        <time>2024-10-31T09:46:56Z</time>
      </trkpt>
      <trkpt lat="44.84682" lon="3.45054">
        <ele>1391.17</ele>
        <time>2024-10-31T09:47:08Z</time>
      </trkpt>
      <trkpt lat="44.84694" lon="3.45045">
        <ele>1392.13</ele>
        <time>2024-10-31T09:47:18Z</time>
      </trkpt>
      <trkpt lat="44.84707" lon="3.45038">
        <ele>1393.09</ele>
        <time>2024-10-31T09:47:29Z</time>
      </trkpt>
      <trkpt lat="44.84708" lon="3.45039">
        <ele>1393.57</ele>
        <time>2024-10-31T09:47:32Z</time>
      </trkpt>
      <trkpt lat="44.84716" lon="3.45037">
        <ele>1393.57</ele>
        <time>2024-10-31T09:47:37Z</time>
      </trkpt>
      <trkpt lat="44.84727" lon="3.45027">
        <ele>1393.57</ele>
        <time>2024-10-31T09:47:48Z</time>
      </trkpt>
      <trkpt lat="44.8474" lon="3.45014">
        <ele>1391.65</ele>
        <time>2024-10-31T09:48:00Z</time>
      </trkpt>
      <trkpt lat="44.84741" lon="3.45013">
        <ele>1391.65</ele>
        <time>2024-10-31T09:48:02Z</time>
      </trkpt>
      <trkpt lat="44.8475" lon="3.45001">
        <ele>1389.24</ele>
        <time>2024-10-31T09:48:13Z</time>
      </trkpt>
      <trkpt lat="44.84761" lon="3.44987">
        <ele>1386.84</ele>
        <time>2024-10-31T09:48:27Z</time>
      </trkpt>
      <trkpt lat="44.84769" lon="3.44975">
        <ele>1385.4</ele>
        <time>2024-10-31T09:48:38Z</time>
      </trkpt>
      <trkpt lat="44.8477" lon="3.44975">
        <ele>1384.92</ele>
        <time>2024-10-31T09:49:00Z</time>
      </trkpt>
      <trkpt lat="44.84771" lon="3.44974">
        <ele>1383.47</ele>
        <time>2024-10-31T09:49:20Z</time>
      </trkpt>
      <trkpt lat="44.84771" lon="3.44972">
        <ele>1382.99</ele>
        <time>2024-10-31T09:49:38Z</time>
      </trkpt>
      <trkpt lat="44.84768" lon="3.44968">
        <ele>1382.03</ele>
        <time>2024-10-31T09:50:00Z</time>
      </trkpt>
      <trkpt lat="44.84774" lon="3.44967">
        <ele>1379.63</ele>
        <time>2024-10-31T09:50:20Z</time>
      </trkpt>
      <trkpt lat="44.84779" lon="3.4496">
        <ele>1379.15</ele>
        <time>2024-10-31T09:50:39Z</time>
      </trkpt>
      <trkpt lat="44.84782" lon="3.44957">
        <ele>1377.23</ele>
        <time>2024-10-31T09:50:56Z</time>
      </trkpt>
      <trkpt lat="44.84783" lon="3.44957">
        <ele>1376.26</ele>
        <time>2024-10-31T09:51:23Z</time>
      </trkpt>
      <trkpt lat="44.84788" lon="3.44958">
        <ele>1376.26</ele>
        <time>2024-10-31T09:51:47Z</time>
      </trkpt>
      <trkpt lat="44.84793" lon="3.4495">
        <ele>1375.78</ele>
        <time>2024-10-31T09:52:02Z</time>
      </trkpt>
      <trkpt lat="44.84806" lon="3.44934">
        <ele>1375.78</ele>
        <time>2024-10-31T09:52:20Z</time>
      </trkpt>
      <trkpt lat="44.84818" lon="3.4492">
        <ele>1375.78</ele>
        <time>2024-10-31T09:52:37Z</time>
      </trkpt>
      <trkpt lat="44.84824" lon="3.44911">
        <ele>1376.26</ele>
        <time>2024-10-31T09:52:53Z</time>
      </trkpt>
      <trkpt lat="44.84823" lon="3.44921">
        <ele>1374.34</ele>
        <time>2024-10-31T09:53:08Z</time>
      </trkpt>
      <trkpt lat="44.84834" lon="3.4491">
        <ele>1373.38</ele>
        <time>2024-10-31T09:53:26Z</time>
      </trkpt>
      <trkpt lat="44.84842" lon="3.4489">
        <ele>1373.38</ele>
        <time>2024-10-31T09:53:45Z</time>
      </trkpt>
      <trkpt lat="44.84846" lon="3.44889">
        <ele>1375.3</ele>
        <time>2024-10-31T09:53:49Z</time>
      </trkpt>
      <trkpt lat="44.84851" lon="3.44887">
        <ele>1375.78</ele>
        <time>2024-10-31T09:53:55Z</time>
      </trkpt>
      <trkpt lat="44.8486" lon="3.44871">
        <ele>1376.26</ele>
        <time>2024-10-31T09:54:08Z</time>
      </trkpt>
      <trkpt lat="44.84871" lon="3.44858">
        <ele>1379.63</ele>
        <time>2024-10-31T09:54:20Z</time>
      </trkpt>
      <trkpt lat="44.84873" lon="3.44856">
        <ele>1380.11</ele>
        <time>2024-10-31T09:54:23Z</time>
      </trkpt>
      <trkpt lat="44.84882" lon="3.44845">
        <ele>1382.03</ele>
        <time>2024-10-31T09:54:34Z</time>
      </trkpt>
      <trkpt lat="44.84885" lon="3.44843">
        <ele>1382.03</ele>
        <time>2024-10-31T09:54:37Z</time>
      </trkpt>
      <trkpt lat="44.84894" lon="3.44833">
        <ele>1382.99</ele>
        <time>2024-10-31T09:54:49Z</time>
      </trkpt>
      <trkpt lat="44.84904" lon="3.44816">
        <ele>1382.51</ele>
        <time>2024-10-31T09:55:03Z</time>
      </trkpt>
      <trkpt lat="44.84914" lon="3.44807">
        <ele>1383.96</ele>
        <time>2024-10-31T09:55:12Z</time>
      </trkpt>
      <trkpt lat="44.84921" lon="3.44798">
        <ele>1384.44</ele>
        <time>2024-10-31T09:55:21Z</time>
      </trkpt>
      <trkpt lat="44.84929" lon="3.44786">
        <ele>1384.92</ele>
        <time>2024-10-31T09:55:31Z</time>
      </trkpt>
      <trkpt lat="44.84942" lon="3.44773">
        <ele>1385.88</ele>
        <time>2024-10-31T09:55:42Z</time>
      </trkpt>
      <trkpt lat="44.84952" lon="3.44759">
        <ele>1385.88</ele>
        <time>2024-10-31T09:55:54Z</time>
      </trkpt>
      <trkpt lat="44.84961" lon="3.44752">
        <ele>1385.4</ele>
        <time>2024-10-31T09:56:06Z</time>
      </trkpt>
      <trkpt lat="44.84969" lon="3.44748">
        <ele>1384.92</ele>
        <time>2024-10-31T09:56:15Z</time>
      </trkpt>
      <trkpt lat="44.84982" lon="3.44748">
        <ele>1383.96</ele>
        <time>2024-10-31T09:56:35Z</time>
      </trkpt>
      <trkpt lat="44.85008" lon="3.44737">
        <ele>1382.99</ele>
        <time>2024-10-31T09:56:52Z</time>
      </trkpt>
      <trkpt lat="44.8502" lon="3.44732">
        <ele>1383.47</ele>
        <time>2024-10-31T09:57:02Z</time>
      </trkpt>
      <trkpt lat="44.85033" lon="3.44729">
        <ele>1383.96</ele>
        <time>2024-10-31T09:57:12Z</time>
      </trkpt>
      <trkpt lat="44.85047" lon="3.44724">
        <ele>1384.92</ele>
        <time>2024-10-31T09:57:24Z</time>
      </trkpt>
      <trkpt lat="44.85059" lon="3.44718">
        <ele>1385.4</ele>
        <time>2024-10-31T09:57:34Z</time>
      </trkpt>
      <trkpt lat="44.85073" lon="3.44715">
        <ele>1387.32</ele>
        <time>2024-10-31T09:57:45Z</time>
      </trkpt>
      <trkpt lat="44.85086" lon="3.44711">
        <ele>1387.32</ele>
        <time>2024-10-31T09:57:55Z</time>
      </trkpt>
      <trkpt lat="44.85099" lon="3.44706">
        <ele>1388.28</ele>
        <time>2024-10-31T09:58:07Z</time>
      </trkpt>
      <trkpt lat="44.85111" lon="3.44704">
        <ele>1388.28</ele>
        <time>2024-10-31T09:58:18Z</time>
      </trkpt>
      <trkpt lat="44.85114" lon="3.44702">
        <ele>1387.8</ele>
        <time>2024-10-31T09:58:21Z</time>
      </trkpt>
      <trkpt lat="44.85129" lon="3.44697">
        <ele>1388.28</ele>
        <time>2024-10-31T09:58:34Z</time>
      </trkpt>
      <trkpt lat="44.85131" lon="3.44696">
        <ele>1388.28</ele>
        <time>2024-10-31T09:58:36Z</time>
      </trkpt>
      <trkpt lat="44.85147" lon="3.44691">
        <ele>1385.4</ele>
        <time>2024-10-31T09:58:49Z</time>
      </trkpt>
      <trkpt lat="44.85151" lon="3.4469">
        <ele>1386.36</ele>
        <time>2024-10-31T09:58:54Z</time>
      </trkpt>
      <trkpt lat="44.85156" lon="3.4469">
        <ele>1386.84</ele>
        <time>2024-10-31T09:59:00Z</time>
      </trkpt>
      <trkpt lat="44.85174" lon="3.44684">
        <ele>1389.72</ele>
        <time>2024-10-31T09:59:13Z</time>
      </trkpt>
      <trkpt lat="44.85189" lon="3.44679">
        <ele>1390.68</ele>
        <time>2024-10-31T09:59:25Z</time>
      </trkpt>
      <trkpt lat="44.85202" lon="3.44675">
        <ele>1390.68</ele>
        <time>2024-10-31T09:59:37Z</time>
      </trkpt>
      <trkpt lat="44.85217" lon="3.44669">
        <ele>1391.65</ele>
        <time>2024-10-31T09:59:49Z</time>
      </trkpt>
      <trkpt lat="44.8523" lon="3.44666">
        <ele>1392.61</ele>
        <time>2024-10-31T10:00:00Z</time>
      </trkpt>
      <trkpt lat="44.85244" lon="3.44662">
        <ele>1388.76</ele>
        <time>2024-10-31T10:00:10Z</time>
      </trkpt>
      <trkpt lat="44.85254" lon="3.4466">
        <ele>1387.32</ele>
        <time>2024-10-31T10:00:18Z</time>
      </trkpt>
      <trkpt lat="44.85271" lon="3.44652">
        <ele>1386.36</ele>
        <time>2024-10-31T10:00:31Z</time>
      </trkpt>
      <trkpt lat="44.85288" lon="3.44646">
        <ele>1384.92</ele>
        <time>2024-10-31T10:00:45Z</time>
      </trkpt>
      <trkpt lat="44.853" lon="3.44643">
        <ele>1382.99</ele>
        <time>2024-10-31T10:00:54Z</time>
      </trkpt>
      <trkpt lat="44.85308" lon="3.44641">
        <ele>1381.07</ele>
        <time>2024-10-31T10:01:06Z</time>
      </trkpt>
      <trkpt lat="44.85315" lon="3.44639">
        <ele>1379.63</ele>
        <time>2024-10-31T10:01:12Z</time>
      </trkpt>
      <trkpt lat="44.85318" lon="3.44632">
        <ele>1379.15</ele>
        <time>2024-10-31T10:01:16Z</time>
      </trkpt>
      <trkpt lat="44.85326" lon="3.4462">
        <ele>1376.26</ele>
        <time>2024-10-31T10:01:30Z</time>
      </trkpt>
      <trkpt lat="44.85332" lon="3.44613">
        <ele>1373.86</ele>
        <time>2024-10-31T10:01:50Z</time>
      </trkpt>
      <trkpt lat="44.85345" lon="3.44604">
        <ele>1371.46</ele>
        <time>2024-10-31T10:02:08Z</time>
      </trkpt>
      <trkpt lat="44.85356" lon="3.44585">
        <ele>1370.02</ele>
        <time>2024-10-31T10:02:33Z</time>
      </trkpt>
      <trkpt lat="44.85362" lon="3.44563">
        <ele>1371.46</ele>
        <time>2024-10-31T10:02:54Z</time>
      </trkpt>
      <trkpt lat="44.85373" lon="3.44527">
        <ele>1371.94</ele>
        <time>2024-10-31T10:03:16Z</time>
      </trkpt>
      <trkpt lat="44.85374" lon="3.44523">
        <ele>1371.46</ele>
        <time>2024-10-31T10:03:18Z</time>
      </trkpt>
      <trkpt lat="44.85374" lon="3.44487">
        <ele>1375.3</ele>
        <time>2024-10-31T10:03:33Z</time>
      </trkpt>
      <trkpt lat="44.85378" lon="3.44467">
        <ele>1376.75</ele>
        <time>2024-10-31T10:03:46Z</time>
      </trkpt>
      <trkpt lat="44.85381" lon="3.44446">
        <ele>1376.75</ele>
        <time>2024-10-31T10:03:57Z</time>
      </trkpt>
      <trkpt lat="44.85387" lon="3.44426">
        <ele>1377.23</ele>
        <time>2024-10-31T10:04:09Z</time>
      </trkpt>
      <trkpt lat="44.8539" lon="3.44406">
        <ele>1377.71</ele>
        <time>2024-10-31T10:04:22Z</time>
      </trkpt>
      <trkpt lat="44.85394" lon="3.44386">
        <ele>1377.23</ele>
        <time>2024-10-31T10:04:34Z</time>
      </trkpt>
      <trkpt lat="44.85397" lon="3.44369">
        <ele>1376.75</ele>
        <time>2024-10-31T10:04:46Z</time>
      </trkpt>
      <trkpt lat="44.85401" lon="3.44345">
        <ele>1378.67</ele>
        <time>2024-10-31T10:04:59Z</time>
      </trkpt>
      <trkpt lat="44.85403" lon="3.44338">
        <ele>1378.67</ele>
        <time>2024-10-31T10:05:05Z</time>
      </trkpt>
      <trkpt lat="44.85406" lon="3.44331">
        <ele>1378.67</ele>
        <time>2024-10-31T10:05:11Z</time>
      </trkpt>
      <trkpt lat="44.85409" lon="3.443">
        <ele>1378.19</ele>
        <time>2024-10-31T10:05:25Z</time>
      </trkpt>
      <trkpt lat="44.85412" lon="3.44278">
        <ele>1378.67</ele>
        <time>2024-10-31T10:05:37Z</time>
      </trkpt>
      <trkpt lat="44.85416" lon="3.44259">
        <ele>1378.67</ele>
        <time>2024-10-31T10:05:48Z</time>
      </trkpt>
      <trkpt lat="44.85422" lon="3.44239">
        <ele>1376.75</ele>
        <time>2024-10-31T10:06:01Z</time>
      </trkpt>
      <trkpt lat="44.85423" lon="3.44237">
        <ele>1376.75</ele>
        <time>2024-10-31T10:06:03Z</time>
      </trkpt>
      <trkpt lat="44.8543" lon="3.44219">
        <ele>1376.26</ele>
        <time>2024-10-31T10:06:19Z</time>
      </trkpt>
      <trkpt lat="44.85449" lon="3.44211">
        <ele>1373.86</ele>
        <time>2024-10-31T10:06:40Z</time>
      </trkpt>
      <trkpt lat="44.85449" lon="3.44199">
        <ele>1374.82</ele>
        <time>2024-10-31T10:07:03Z</time>
      </trkpt>
      <trkpt lat="44.85457" lon="3.44178">
        <ele>1377.23</ele>
        <time>2024-10-31T10:07:21Z</time>
      </trkpt>
      <trkpt lat="44.85455" lon="3.44176">
        <ele>1376.75</ele>
        <time>2024-10-31T10:07:37Z</time>
      </trkpt>
      <trkpt lat="44.85457" lon="3.44174">
        <ele>1380.11</ele>
        <time>2024-10-31T10:08:00Z</time>
      </trkpt>
      <trkpt lat="44.85452" lon="3.44178">
        <ele>1380.11</ele>
        <time>2024-10-31T10:08:18Z</time>
      </trkpt>
      <trkpt lat="44.85445" lon="3.44181">
        <ele>1381.55</ele>
        <time>2024-10-31T10:08:48Z</time>
      </trkpt>
      <trkpt lat="44.85459" lon="3.44177">
        <ele>1379.15</ele>
        <time>2024-10-31T10:09:11Z</time>
      </trkpt>
      <trkpt lat="44.85468" lon="3.44174">
        <ele>1377.71</ele>
        <time>2024-10-31T10:09:46Z</time>
      </trkpt>
      <trkpt lat="44.85471" lon="3.44174">
        <ele>1380.11</ele>
        <time>2024-10-31T10:10:18Z</time>
      </trkpt>
      <trkpt lat="44.85468" lon="3.44176">
        <ele>1384.92</ele>
        <time>2024-10-31T10:10:46Z</time>
      </trkpt>
      <trkpt lat="44.85472" lon="3.44178">
        <ele>1389.24</ele>
        <time>2024-10-31T10:11:22Z</time>
      </trkpt>
      <trkpt lat="44.85462" lon="3.44179">
        <ele>1385.88</ele>
        <time>2024-10-31T10:11:45Z</time>
      </trkpt>
      <trkpt lat="44.85461" lon="3.44176">
        <ele>1387.32</ele>
        <time>2024-10-31T10:12:08Z</time>
      </trkpt>
      <trkpt lat="44.85465" lon="3.44182">
        <ele>1390.2</ele>
        <time>2024-10-31T10:12:34Z</time>
      </trkpt>
      <trkpt lat="44.85467" lon="3.44179">
        <ele>1391.65</ele>
        <time>2024-10-31T10:13:01Z</time>
      </trkpt>
      <trkpt lat="44.85463" lon="3.44174">
        <ele>1392.13</ele>
        <time>2024-10-31T10:13:25Z</time>
      </trkpt>
      <trkpt lat="44.85459" lon="3.44182">
        <ele>1395.97</ele>
        <time>2024-10-31T10:13:52Z</time>
      </trkpt>
      <trkpt lat="44.8545" lon="3.44171">
        <ele>1397.41</ele>
        <time>2024-10-31T10:14:12Z</time>
      </trkpt>
      <trkpt lat="44.8545" lon="3.44166">
        <ele>1393.09</ele>
        <time>2024-10-31T10:14:28Z</time>
      </trkpt>
      <trkpt lat="44.85469" lon="3.44167">
        <ele>1390.2</ele>
        <time>2024-10-31T10:14:46Z</time>
      </trkpt>
      <trkpt lat="44.85489" lon="3.44159">
        <ele>1389.24</ele>
        <time>2024-10-31T10:15:06Z</time>
      </trkpt>
      <trkpt lat="44.85503" lon="3.44157">
        <ele>1391.17</ele>
        <time>2024-10-31T10:15:24Z</time>
      </trkpt>
      <trkpt lat="44.85518" lon="3.4415">
        <ele>1393.09</ele>
        <time>2024-10-31T10:15:42Z</time>
      </trkpt>
      <trkpt lat="44.85539" lon="3.44143">
        <ele>1396.93</ele>
        <time>2024-10-31T10:16:01Z</time>
      </trkpt>
      <trkpt lat="44.85553" lon="3.44135">
        <ele>1399.82</ele>
        <time>2024-10-31T10:16:17Z</time>
      </trkpt>
      <trkpt lat="44.85571" lon="3.44127">
        <ele>1404.62</ele>
        <time>2024-10-31T10:16:38Z</time>
      </trkpt>
      <trkpt lat="44.85595" lon="3.44112">
        <ele>1407.03</ele>
        <time>2024-10-31T10:16:59Z</time>
      </trkpt>
      <trkpt lat="44.85612" lon="3.44098">
        <ele>1407.51</ele>
        <time>2024-10-31T10:17:15Z</time>
      </trkpt>
      <trkpt lat="44.85625" lon="3.44094">
        <ele>1410.39</ele>
        <time>2024-10-31T10:17:33Z</time>
      </trkpt>
      <trkpt lat="44.85644" lon="3.44088">
        <ele>1414.24</ele>
        <time>2024-10-31T10:17:52Z</time>
      </trkpt>
      <trkpt lat="44.85673" lon="3.44076">
        <ele>1416.64</ele>
        <time>2024-10-31T10:18:15Z</time>
      </trkpt>
      <trkpt lat="44.85697" lon="3.44064">
        <ele>1418.08</ele>
        <time>2024-10-31T10:18:35Z</time>
      </trkpt>
      <trkpt lat="44.85717" lon="3.44048">
        <ele>1420.49</ele>
        <time>2024-10-31T10:18:52Z</time>
      </trkpt>
      <trkpt lat="44.85737" lon="3.44039">
        <ele>1420.49</ele>
        <time>2024-10-31T10:19:08Z</time>
      </trkpt>
      <trkpt lat="44.85762" lon="3.44028">
        <ele>1420.49</ele>
        <time>2024-10-31T10:19:27Z</time>
      </trkpt>
      <trkpt lat="44.85779" lon="3.44021">
        <ele>1421.93</ele>
        <time>2024-10-31T10:19:43Z</time>
      </trkpt>
      <trkpt lat="44.85805" lon="3.44004">
        <ele>1422.41</ele>
        <time>2024-10-31T10:20:02Z</time>
      </trkpt>
      <trkpt lat="44.85829" lon="3.43993">
        <ele>1422.41</ele>
        <time>2024-10-31T10:20:21Z</time>
      </trkpt>
      <trkpt lat="44.85856" lon="3.43981">
        <ele>1420</ele>
        <time>2024-10-31T10:20:40Z</time>
      </trkpt>
      <trkpt lat="44.8588" lon="3.43969">
        <ele>1419.04</ele>
        <time>2024-10-31T10:20:57Z</time>
      </trkpt>
      <trkpt lat="44.85905" lon="3.43961">
        <ele>1417.6</ele>
        <time>2024-10-31T10:21:14Z</time>
      </trkpt>
      <trkpt lat="44.8593" lon="3.43948">
        <ele>1415.68</ele>
        <time>2024-10-31T10:21:32Z</time>
      </trkpt>
      <trkpt lat="44.85956" lon="3.43939">
        <ele>1414.72</ele>
        <time>2024-10-31T10:21:52Z</time>
      </trkpt>
      <trkpt lat="44.85978" lon="3.43929">
        <ele>1414.72</ele>
        <time>2024-10-31T10:22:11Z</time>
      </trkpt>
      <trkpt lat="44.86006" lon="3.43915">
        <ele>1417.12</ele>
        <time>2024-10-31T10:22:32Z</time>
      </trkpt>
      <trkpt lat="44.86029" lon="3.43903">
        <ele>1417.6</ele>
        <time>2024-10-31T10:22:50Z</time>
      </trkpt>
      <trkpt lat="44.86051" lon="3.4389">
        <ele>1417.12</ele>
        <time>2024-10-31T10:23:06Z</time>
      </trkpt>
      <trkpt lat="44.86076" lon="3.43881">
        <ele>1416.16</ele>
        <time>2024-10-31T10:23:26Z</time>
      </trkpt>
      <trkpt lat="44.86093" lon="3.43878">
        <ele>1414.24</ele>
        <time>2024-10-31T10:23:38Z</time>
      </trkpt>
      <trkpt lat="44.86103" lon="3.43877">
        <ele>1416.16</ele>
        <time>2024-10-31T10:23:57Z</time>
      </trkpt>
      <trkpt lat="44.86118" lon="3.43875">
        <ele>1415.68</ele>
        <time>2024-10-31T10:24:16Z</time>
      </trkpt>
      <trkpt lat="44.86142" lon="3.43876">
        <ele>1414.24</ele>
        <time>2024-10-31T10:24:36Z</time>
      </trkpt>
      <trkpt lat="44.86168" lon="3.43873">
        <ele>1417.12</ele>
        <time>2024-10-31T10:24:56Z</time>
      </trkpt>
      <trkpt lat="44.86194" lon="3.4387">
        <ele>1419.52</ele>
        <time>2024-10-31T10:25:16Z</time>
      </trkpt>
      <trkpt lat="44.86223" lon="3.43871">
        <ele>1418.56</ele>
        <time>2024-10-31T10:25:38Z</time>
      </trkpt>
      <trkpt lat="44.8625" lon="3.43872">
        <ele>1416.64</ele>
        <time>2024-10-31T10:25:58Z</time>
      </trkpt>
      <trkpt lat="44.86271" lon="3.4387">
        <ele>1417.6</ele>
        <time>2024-10-31T10:26:16Z</time>
      </trkpt>
      <trkpt lat="44.86297" lon="3.43871">
        <ele>1416.64</ele>
        <time>2024-10-31T10:26:35Z</time>
      </trkpt>
      <trkpt lat="44.86321" lon="3.43868">
        <ele>1414.24</ele>
        <time>2024-10-31T10:26:54Z</time>
      </trkpt>
      <trkpt lat="44.8634" lon="3.43867">
        <ele>1411.83</ele>
        <time>2024-10-31T10:27:08Z</time>
      </trkpt>
      <trkpt lat="44.86364" lon="3.43863">
        <ele>1410.39</ele>
        <time>2024-10-31T10:27:27Z</time>
      </trkpt>
      <trkpt lat="44.86393" lon="3.4386">
        <ele>1409.43</ele>
        <time>2024-10-31T10:27:50Z</time>
      </trkpt>
      <trkpt lat="44.86416" lon="3.43865">
        <ele>1408.47</ele>
        <time>2024-10-31T10:28:09Z</time>
      </trkpt>
      <trkpt lat="44.86436" lon="3.43865">
        <ele>1407.51</ele>
        <time>2024-10-31T10:28:26Z</time>
      </trkpt>
      <trkpt lat="44.86459" lon="3.4386">
        <ele>1408.47</ele>
        <time>2024-10-31T10:28:45Z</time>
      </trkpt>
      <trkpt lat="44.86484" lon="3.43858">
        <ele>1409.43</ele>
        <time>2024-10-31T10:29:05Z</time>
      </trkpt>
      <trkpt lat="44.86514" lon="3.43858">
        <ele>1410.39</ele>
        <time>2024-10-31T10:29:27Z</time>
      </trkpt>
      <trkpt lat="44.8654" lon="3.43858">
        <ele>1409.43</ele>
        <time>2024-10-31T10:29:46Z</time>
      </trkpt>
      <trkpt lat="44.8657" lon="3.43858">
        <ele>1408.95</ele>
        <time>2024-10-31T10:30:09Z</time>
      </trkpt>
      <trkpt lat="44.86598" lon="3.43857">
        <ele>1408.95</ele>
        <time>2024-10-31T10:30:30Z</time>
      </trkpt>
      <trkpt lat="44.86626" lon="3.43855">
        <ele>1407.99</ele>
        <time>2024-10-31T10:30:51Z</time>
      </trkpt>
      <trkpt lat="44.86648" lon="3.43855">
        <ele>1407.99</ele>
        <time>2024-10-31T10:31:09Z</time>
      </trkpt>
      <trkpt lat="44.86676" lon="3.43853">
        <ele>1407.03</ele>
        <time>2024-10-31T10:31:30Z</time>
      </trkpt>
      <trkpt lat="44.86705" lon="3.43851">
        <ele>1409.43</ele>
        <time>2024-10-31T10:31:50Z</time>
      </trkpt>
      <trkpt lat="44.86734" lon="3.43847">
        <ele>1412.31</ele>
        <time>2024-10-31T10:32:12Z</time>
      </trkpt>
      <trkpt lat="44.8676" lon="3.43846">
        <ele>1416.16</ele>
        <time>2024-10-31T10:32:34Z</time>
      </trkpt>
      <trkpt lat="44.86775" lon="3.43842">
        <ele>1419.04</ele>
        <time>2024-10-31T10:32:51Z</time>
      </trkpt>
      <trkpt lat="44.86795" lon="3.43841">
        <ele>1422.89</ele>
        <time>2024-10-31T10:33:08Z</time>
      </trkpt>
      <trkpt lat="44.86803" lon="3.43842">
        <ele>1423.37</ele>
        <time>2024-10-31T10:33:14Z</time>
      </trkpt>
      <trkpt lat="44.86818" lon="3.43852">
        <ele>1425.29</ele>
        <time>2024-10-31T10:33:32Z</time>
      </trkpt>
      <trkpt lat="44.86826" lon="3.43842">
        <ele>1423.85</ele>
        <time>2024-10-31T10:33:39Z</time>
      </trkpt>
      <trkpt lat="44.86836" lon="3.43835">
        <ele>1420.97</ele>
        <time>2024-10-31T10:33:47Z</time>
      </trkpt>
      <trkpt lat="44.86852" lon="3.43832">
        <ele>1420</ele>
        <time>2024-10-31T10:34:01Z</time>
      </trkpt>
      <trkpt lat="44.86864" lon="3.43836">
        <ele>1416.64</ele>
        <time>2024-10-31T10:34:16Z</time>
      </trkpt>
      <trkpt lat="44.86865" lon="3.43839">
        <ele>1415.2</ele>
        <time>2024-10-31T10:34:27Z</time>
      </trkpt>
      <trkpt lat="44.86868" lon="3.43844">
        <ele>1414.72</ele>
        <time>2024-10-31T10:34:32Z</time>
      </trkpt>
      <trkpt lat="44.86866" lon="3.43857">
        <ele>1414.24</ele>
        <time>2024-10-31T10:34:44Z</time>
      </trkpt>
      <trkpt lat="44.86865" lon="3.43869">
        <ele>1414.72</ele>
        <time>2024-10-31T10:34:55Z</time>
      </trkpt>
      <trkpt lat="44.86859" lon="3.43885">
        <ele>1415.68</ele>
        <time>2024-10-31T10:35:14Z</time>
      </trkpt>
      <trkpt lat="44.86856" lon="3.43919">
        <ele>1410.87</ele>
        <time>2024-10-31T10:35:32Z</time>
      </trkpt>
      <trkpt lat="44.86859" lon="3.43954">
        <ele>1410.87</ele>
        <time>2024-10-31T10:35:50Z</time>
      </trkpt>
      <trkpt lat="44.86859" lon="3.43974">
        <ele>1412.79</ele>
        <time>2024-10-31T10:36:00Z</time>
      </trkpt>
      <trkpt lat="44.86852" lon="3.44008">
        <ele>1415.68</ele>
        <time>2024-10-31T10:36:18Z</time>
      </trkpt>
      <trkpt lat="44.86852" lon="3.44042">
        <ele>1416.16</ele>
        <time>2024-10-31T10:36:38Z</time>
      </trkpt>
      <trkpt lat="44.86855" lon="3.44059">
        <ele>1414.24</ele>
        <time>2024-10-31T10:36:53Z</time>
      </trkpt>
      <trkpt lat="44.86851" lon="3.44088">
        <ele>1413.76</ele>
        <time>2024-10-31T10:37:13Z</time>
      </trkpt>
      <trkpt lat="44.86845" lon="3.44117">
        <ele>1413.28</ele>
        <time>2024-10-31T10:37:30Z</time>
      </trkpt>
      <trkpt lat="44.86846" lon="3.44153">
        <ele>1411.35</ele>
        <time>2024-10-31T10:37:48Z</time>
      </trkpt>
      <trkpt lat="44.8684" lon="3.44183">
        <ele>1412.79</ele>
        <time>2024-10-31T10:38:06Z</time>
      </trkpt>
      <trkpt lat="44.86835" lon="3.44216">
        <ele>1418.56</ele>
        <time>2024-10-31T10:38:26Z</time>
      </trkpt>
      <trkpt lat="44.8683" lon="3.44253">
        <ele>1422.41</ele>
        <time>2024-10-31T10:38:48Z</time>
      </trkpt>
      <trkpt lat="44.86825" lon="3.44284">
        <ele>1421.93</ele>
        <time>2024-10-31T10:39:04Z</time>
      </trkpt>
      <trkpt lat="44.86815" lon="3.44318">
        <ele>1423.85</ele>
        <time>2024-10-31T10:39:24Z</time>
      </trkpt>
      <trkpt lat="44.86807" lon="3.44346">
        <ele>1424.33</ele>
        <time>2024-10-31T10:39:42Z</time>
      </trkpt>
      <trkpt lat="44.86796" lon="3.44377">
        <ele>1423.85</ele>
        <time>2024-10-31T10:40:00Z</time>
      </trkpt>
      <trkpt lat="44.86783" lon="3.44406">
        <ele>1425.29</ele>
        <time>2024-10-31T10:40:18Z</time>
      </trkpt>
      <trkpt lat="44.86773" lon="3.44436">
        <ele>1424.81</ele>
        <time>2024-10-31T10:40:37Z</time>
      </trkpt>
      <trkpt lat="44.86762" lon="3.44468">
        <ele>1425.29</ele>
        <time>2024-10-31T10:40:57Z</time>
      </trkpt>
      <trkpt lat="44.86751" lon="3.44495">
        <ele>1427.7</ele>
        <time>2024-10-31T10:41:15Z</time>
      </trkpt>
      <trkpt lat="44.86749" lon="3.44528">
        <ele>1420</ele>
        <time>2024-10-31T10:41:31Z</time>
      </trkpt>
      <trkpt lat="44.86738" lon="3.44546">
        <ele>1419.04</ele>
        <time>2024-10-31T10:41:47Z</time>
      </trkpt>
      <trkpt lat="44.86733" lon="3.44563">
        <ele>1419.04</ele>
        <time>2024-10-31T10:41:58Z</time>
      </trkpt>
      <trkpt lat="44.86723" lon="3.44591">
        <ele>1418.08</ele>
        <time>2024-10-31T10:42:16Z</time>
      </trkpt>
      <trkpt lat="44.86715" lon="3.44619">
        <ele>1416.64</ele>
        <time>2024-10-31T10:42:32Z</time>
      </trkpt>
      <trkpt lat="44.86705" lon="3.44649">
        <ele>1415.68</ele>
        <time>2024-10-31T10:42:51Z</time>
      </trkpt>
      <trkpt lat="44.86693" lon="3.44683">
        <ele>1413.76</ele>
        <time>2024-10-31T10:43:12Z</time>
      </trkpt>
      <trkpt lat="44.86684" lon="3.44717">
        <ele>1410.87</ele>
        <time>2024-10-31T10:43:32Z</time>
      </trkpt>
      <trkpt lat="44.86673" lon="3.44749">
        <ele>1408.47</ele>
        <time>2024-10-31T10:43:51Z</time>
      </trkpt>
      <trkpt lat="44.86671" lon="3.44757">
        <ele>1407.03</ele>
        <time>2024-10-31T10:43:56Z</time>
      </trkpt>
      <trkpt lat="44.86662" lon="3.44783">
        <ele>1403.66</ele>
        <time>2024-10-31T10:44:15Z</time>
      </trkpt>
      <trkpt lat="44.86653" lon="3.44809">
        <ele>1402.7</ele>
        <time>2024-10-31T10:44:32Z</time>
      </trkpt>
      <trkpt lat="44.8665" lon="3.44836">
        <ele>1399.34</ele>
        <time>2024-10-31T10:44:47Z</time>
      </trkpt>
      <trkpt lat="44.86646" lon="3.44868">
        <ele>1394.05</ele>
        <time>2024-10-31T10:45:05Z</time>
      </trkpt>
      <trkpt lat="44.86644" lon="3.44902">
        <ele>1388.28</ele>
        <time>2024-10-31T10:45:25Z</time>
      </trkpt>
      <trkpt lat="44.86644" lon="3.44909">
        <ele>1387.32</ele>
        <time>2024-10-31T10:45:28Z</time>
      </trkpt>
      <trkpt lat="44.86644" lon="3.44937">
        <ele>1383.47</ele>
        <time>2024-10-31T10:45:46Z</time>
      </trkpt>
      <trkpt lat="44.86645" lon="3.44965">
        <ele>1381.55</ele>
        <time>2024-10-31T10:46:04Z</time>
      </trkpt>
      <trkpt lat="44.86641" lon="3.44994">
        <ele>1380.59</ele>
        <time>2024-10-31T10:46:22Z</time>
      </trkpt>
      <trkpt lat="44.86637" lon="3.4503">
        <ele>1382.99</ele>
        <time>2024-10-31T10:46:42Z</time>
      </trkpt>
      <trkpt lat="44.86632" lon="3.4506">
        <ele>1384.92</ele>
        <time>2024-10-31T10:47:00Z</time>
      </trkpt>
      <trkpt lat="44.86628" lon="3.45094">
        <ele>1384.92</ele>
        <time>2024-10-31T10:47:19Z</time>
      </trkpt>
      <trkpt lat="44.86632" lon="3.45128">
        <ele>1380.59</ele>
        <time>2024-10-31T10:47:36Z</time>
      </trkpt>
      <trkpt lat="44.86631" lon="3.45155">
        <ele>1376.75</ele>
        <time>2024-10-31T10:47:51Z</time>
      </trkpt>
      <trkpt lat="44.86633" lon="3.45186">
        <ele>1370.5</ele>
        <time>2024-10-31T10:48:09Z</time>
      </trkpt>
      <trkpt lat="44.86633" lon="3.45217">
        <ele>1363.77</ele>
        <time>2024-10-31T10:48:28Z</time>
      </trkpt>
      <trkpt lat="44.86633" lon="3.45247">
        <ele>1357.52</ele>
        <time>2024-10-31T10:48:49Z</time>
      </trkpt>
      <trkpt lat="44.86633" lon="3.4528">
        <ele>1353.19</ele>
        <time>2024-10-31T10:49:11Z</time>
      </trkpt>
      <trkpt lat="44.86635" lon="3.45319">
        <ele>1345.98</ele>
        <time>2024-10-31T10:49:32Z</time>
      </trkpt>
      <trkpt lat="44.86634" lon="3.4534">
        <ele>1342.14</ele>
        <time>2024-10-31T10:49:48Z</time>
      </trkpt>
      <trkpt lat="44.86633" lon="3.45377">
        <ele>1333.97</ele>
        <time>2024-10-31T10:50:11Z</time>
      </trkpt>
      <trkpt lat="44.86634" lon="3.45403">
        <ele>1327.24</ele>
        <time>2024-10-31T10:50:28Z</time>
      </trkpt>
      <trkpt lat="44.86633" lon="3.45431">
        <ele>1323.39</ele>
        <time>2024-10-31T10:50:43Z</time>
      </trkpt>
      <trkpt lat="44.86635" lon="3.4545">
        <ele>1319.55</ele>
        <time>2024-10-31T10:50:56Z</time>
      </trkpt>
      <trkpt lat="44.86635" lon="3.45475">
        <ele>1316.18</ele>
        <time>2024-10-31T10:51:14Z</time>
      </trkpt>
      <trkpt lat="44.86637" lon="3.45491">
        <ele>1316.66</ele>
        <time>2024-10-31T10:51:30Z</time>
      </trkpt>
      <trkpt lat="44.86639" lon="3.45505">
        <ele>1315.7</ele>
        <time>2024-10-31T10:51:46Z</time>
      </trkpt>
      <trkpt lat="44.86639" lon="3.45517">
        <ele>1316.66</ele>
        <time>2024-10-31T10:52:02Z</time>
      </trkpt>
      <trkpt lat="44.86637" lon="3.45542">
        <ele>1317.62</ele>
        <time>2024-10-31T10:52:19Z</time>
      </trkpt>
      <trkpt lat="44.86639" lon="3.45555">
        <ele>1316.66</ele>
        <time>2024-10-31T10:52:35Z</time>
      </trkpt>
      <trkpt lat="44.86644" lon="3.45589">
        <ele>1316.66</ele>
        <time>2024-10-31T10:52:52Z</time>
      </trkpt>
      <trkpt lat="44.86646" lon="3.4562">
        <ele>1318.1</ele>
        <time>2024-10-31T10:53:08Z</time>
      </trkpt>
      <trkpt lat="44.86647" lon="3.45646">
        <ele>1319.55</ele>
        <time>2024-10-31T10:53:25Z</time>
      </trkpt>
      <trkpt lat="44.86647" lon="3.45665">
        <ele>1320.99</ele>
        <time>2024-10-31T10:53:36Z</time>
      </trkpt>
      <trkpt lat="44.86643" lon="3.45686">
        <ele>1320.03</ele>
        <time>2024-10-31T10:53:47Z</time>
      </trkpt>
      <trkpt lat="44.86641" lon="3.45703">
        <ele>1320.03</ele>
        <time>2024-10-31T10:53:57Z</time>
      </trkpt>
      <trkpt lat="44.86638" lon="3.4572">
        <ele>1320.51</ele>
        <time>2024-10-31T10:54:08Z</time>
      </trkpt>
      <trkpt lat="44.86638" lon="3.45724">
        <ele>1320.99</ele>
        <time>2024-10-31T10:54:25Z</time>
      </trkpt>
      <trkpt lat="44.86638" lon="3.45733">
        <ele>1320.99</ele>
        <time>2024-10-31T10:54:43Z</time>
      </trkpt>
      <trkpt lat="44.86637" lon="3.45745">
        <ele>1320.03</ele>
        <time>2024-10-31T10:55:06Z</time>
      </trkpt>
      <trkpt lat="44.86643" lon="3.45778">
        <ele>1317.14</ele>
        <time>2024-10-31T10:55:27Z</time>
      </trkpt>
      <trkpt lat="44.8665" lon="3.45809">
        <ele>1315.22</ele>
        <time>2024-10-31T10:55:47Z</time>
      </trkpt>
      <trkpt lat="44.86658" lon="3.4584">
        <ele>1312.82</ele>
        <time>2024-10-31T10:56:05Z</time>
      </trkpt>
      <trkpt lat="44.86664" lon="3.45865">
        <ele>1311.38</ele>
        <time>2024-10-31T10:56:22Z</time>
      </trkpt>
      <trkpt lat="44.86673" lon="3.45897">
        <ele>1311.38</ele>
        <time>2024-10-31T10:56:41Z</time>
      </trkpt>
      <trkpt lat="44.86684" lon="3.45931">
        <ele>1309.45</ele>
        <time>2024-10-31T10:57:02Z</time>
      </trkpt>
      <trkpt lat="44.8669" lon="3.45973">
        <ele>1310.9</ele>
        <time>2024-10-31T10:57:21Z</time>
      </trkpt>
      <trkpt lat="44.86692" lon="3.46001">
        <ele>1311.86</ele>
        <time>2024-10-31T10:57:36Z</time>
      </trkpt>
      <trkpt lat="44.86697" lon="3.46033">
        <ele>1311.86</ele>
        <time>2024-10-31T10:57:54Z</time>
      </trkpt>
      <trkpt lat="44.86697" lon="3.46047">
        <ele>1312.82</ele>
        <time>2024-10-31T10:58:10Z</time>
      </trkpt>
      <trkpt lat="44.86703" lon="3.46059">
        <ele>1315.7</ele>
        <time>2024-10-31T10:58:41Z</time>
      </trkpt>
      <trkpt lat="44.86711" lon="3.46095">
        <ele>1315.7</ele>
        <time>2024-10-31T10:59:01Z</time>
      </trkpt>
      <trkpt lat="44.86713" lon="3.46128">
        <ele>1316.18</ele>
        <time>2024-10-31T10:59:18Z</time>
      </trkpt>
      <trkpt lat="44.86718" lon="3.46157">
        <ele>1318.1</ele>
        <time>2024-10-31T10:59:34Z</time>
      </trkpt>
      <trkpt lat="44.86715" lon="3.46185">
        <ele>1319.07</ele>
        <time>2024-10-31T10:59:49Z</time>
      </trkpt>
      <trkpt lat="44.86713" lon="3.46196">
        <ele>1319.55</ele>
        <time>2024-10-31T10:59:59Z</time>
      </trkpt>
      <trkpt lat="44.86704" lon="3.46214">
        <ele>1320.03</ele>
        <time>2024-10-31T11:00:16Z</time>
      </trkpt>
      <trkpt lat="44.86698" lon="3.46234">
        <ele>1321.95</ele>
        <time>2024-10-31T11:00:28Z</time>
      </trkpt>
      <trkpt lat="44.86693" lon="3.46243">
        <ele>1323.39</ele>
        <time>2024-10-31T11:00:35Z</time>
      </trkpt>
      <trkpt lat="44.86682" lon="3.46281">
        <ele>1326.76</ele>
        <time>2024-10-31T11:00:56Z</time>
      </trkpt>
      <trkpt lat="44.86677" lon="3.46308">
        <ele>1328.2</ele>
        <time>2024-10-31T11:01:15Z</time>
      </trkpt>
      <trkpt lat="44.86677" lon="3.46348">
        <ele>1324.83</ele>
        <time>2024-10-31T11:01:34Z</time>
      </trkpt>
      <trkpt lat="44.86675" lon="3.4638">
        <ele>1320.99</ele>
        <time>2024-10-31T11:01:52Z</time>
      </trkpt>
      <trkpt lat="44.86676" lon="3.46414">
        <ele>1316.66</ele>
        <time>2024-10-31T11:02:11Z</time>
      </trkpt>
      <trkpt lat="44.86676" lon="3.46417">
        <ele>1316.18</ele>
        <time>2024-10-31T11:02:13Z</time>
      </trkpt>
      <trkpt lat="44.86676" lon="3.46451">
        <ele>1313.3</ele>
        <time>2024-10-31T11:02:31Z</time>
      </trkpt>
      <trkpt lat="44.86678" lon="3.46487">
        <ele>1314.74</ele>
        <time>2024-10-31T11:02:51Z</time>
      </trkpt>
      <trkpt lat="44.86676" lon="3.46506">
        <ele>1313.3</ele>
        <time>2024-10-31T11:03:02Z</time>
      </trkpt>
      <trkpt lat="44.86663" lon="3.46531">
        <ele>1313.3</ele>
        <time>2024-10-31T11:03:18Z</time>
      </trkpt>
      <trkpt lat="44.86656" lon="3.46555">
        <ele>1313.78</ele>
        <time>2024-10-31T11:03:34Z</time>
      </trkpt>
      <trkpt lat="44.86652" lon="3.46562">
        <ele>1312.82</ele>
        <time>2024-10-31T11:03:52Z</time>
      </trkpt>
      <trkpt lat="44.86652" lon="3.46564">
        <ele>1312.82</ele>
        <time>2024-10-31T11:04:21Z</time>
      </trkpt>
      <trkpt lat="44.86647" lon="3.46569">
        <ele>1320.03</ele>
        <time>2024-10-31T11:04:59Z</time>
      </trkpt>
      <trkpt lat="44.86653" lon="3.46583">
        <ele>1320.99</ele>
        <time>2024-10-31T11:05:19Z</time>
      </trkpt>
      <trkpt lat="44.86659" lon="3.46616">
        <ele>1322.43</ele>
        <time>2024-10-31T11:05:41Z</time>
      </trkpt>
      <trkpt lat="44.86664" lon="3.4666">
        <ele>1321.47</ele>
        <time>2024-10-31T11:06:05Z</time>
      </trkpt>
      <trkpt lat="44.8667" lon="3.46704">
        <ele>1324.83</ele>
        <time>2024-10-31T11:06:28Z</time>
      </trkpt>
      <trkpt lat="44.86669" lon="3.4673">
        <ele>1327.24</ele>
        <time>2024-10-31T11:06:44Z</time>
      </trkpt>
      <trkpt lat="44.86668" lon="3.46758">
        <ele>1329.16</ele>
        <time>2024-10-31T11:07:02Z</time>
      </trkpt>
      <trkpt lat="44.86671" lon="3.46789">
        <ele>1331.56</ele>
        <time>2024-10-31T11:07:21Z</time>
      </trkpt>
      <trkpt lat="44.86674" lon="3.46822">
        <ele>1332.52</ele>
        <time>2024-10-31T11:07:41Z</time>
      </trkpt>
      <trkpt lat="44.86674" lon="3.4687">
        <ele>1334.45</ele>
        <time>2024-10-31T11:08:03Z</time>
      </trkpt>
      <trkpt lat="44.86677" lon="3.46887">
        <ele>1332.04</ele>
        <time>2024-10-31T11:08:12Z</time>
      </trkpt>
      <trkpt lat="44.86679" lon="3.46922">
        <ele>1322.91</ele>
        <time>2024-10-31T11:08:31Z</time>
      </trkpt>
      <trkpt lat="44.86679" lon="3.46952">
        <ele>1317.62</ele>
        <time>2024-10-31T11:08:50Z</time>
      </trkpt>
      <trkpt lat="44.86673" lon="3.46982">
        <ele>1314.74</ele>
        <time>2024-10-31T11:09:09Z</time>
      </trkpt>
      <trkpt lat="44.86672" lon="3.46989">
        <ele>1313.3</ele>
        <time>2024-10-31T11:09:13Z</time>
      </trkpt>
      <trkpt lat="44.86659" lon="3.47016">
        <ele>1311.86</ele>
        <time>2024-10-31T11:09:31Z</time>
      </trkpt>
      <trkpt lat="44.86657" lon="3.47043">
        <ele>1308.49</ele>
        <time>2024-10-31T11:09:46Z</time>
      </trkpt>
      <trkpt lat="44.8665" lon="3.4707">
        <ele>1306.09</ele>
        <time>2024-10-31T11:10:03Z</time>
      </trkpt>
      <trkpt lat="44.86639" lon="3.47094">
        <ele>1306.57</ele>
        <time>2024-10-31T11:10:20Z</time>
      </trkpt>
      <trkpt lat="44.86632" lon="3.47127">
        <ele>1305.13</ele>
        <time>2024-10-31T11:10:40Z</time>
      </trkpt>
      <trkpt lat="44.86623" lon="3.47164">
        <ele>1302.24</ele>
        <time>2024-10-31T11:11:00Z</time>
      </trkpt>
      <trkpt lat="44.86615" lon="3.47199">
        <ele>1299.84</ele>
        <time>2024-10-31T11:11:21Z</time>
      </trkpt>
      <trkpt lat="44.86605" lon="3.47231">
        <ele>1295.51</ele>
        <time>2024-10-31T11:11:42Z</time>
      </trkpt>
      <trkpt lat="44.86596" lon="3.47273">
        <ele>1292.63</ele>
        <time>2024-10-31T11:12:04Z</time>
      </trkpt>
      <trkpt lat="44.86584" lon="3.47299">
        <ele>1290.23</ele>
        <time>2024-10-31T11:12:23Z</time>
      </trkpt>
      <trkpt lat="44.86563" lon="3.47312">
        <ele>1287.34</ele>
        <time>2024-10-31T11:12:42Z</time>
      </trkpt>
      <trkpt lat="44.8654" lon="3.47326">
        <ele>1284.46</ele>
        <time>2024-10-31T11:13:05Z</time>
      </trkpt>
      <trkpt lat="44.86515" lon="3.47336">
        <ele>1284.46</ele>
        <time>2024-10-31T11:13:26Z</time>
      </trkpt>
      <trkpt lat="44.86495" lon="3.47336">
        <ele>1285.9</ele>
        <time>2024-10-31T11:13:47Z</time>
      </trkpt>
      <trkpt lat="44.86481" lon="3.47329">
        <ele>1287.34</ele>
        <time>2024-10-31T11:14:01Z</time>
      </trkpt>
      <trkpt lat="44.86455" lon="3.47324">
        <ele>1288.78</ele>
        <time>2024-10-31T11:14:22Z</time>
      </trkpt>
      <trkpt lat="44.86435" lon="3.47318">
        <ele>1287.82</ele>
        <time>2024-10-31T11:14:38Z</time>
      </trkpt>
      <trkpt lat="44.86416" lon="3.47315">
        <ele>1283.5</ele>
        <time>2024-10-31T11:14:56Z</time>
      </trkpt>
      <trkpt lat="44.86405" lon="3.47308">
        <ele>1278.69</ele>
        <time>2024-10-31T11:15:14Z</time>
      </trkpt>
      <trkpt lat="44.86393" lon="3.47303">
        <ele>1279.65</ele>
        <time>2024-10-31T11:15:23Z</time>
      </trkpt>
      <trkpt lat="44.86391" lon="3.47305">
        <ele>1279.17</ele>
        <time>2024-10-31T11:15:25Z</time>
      </trkpt>
      <trkpt lat="44.8639" lon="3.47308">
        <ele>1278.21</ele>
        <time>2024-10-31T11:15:26Z</time>
      </trkpt>
      <trkpt lat="44.86395" lon="3.47326">
        <ele>1277.25</ele>
        <time>2024-10-31T11:15:41Z</time>
      </trkpt>
      <trkpt lat="44.86402" lon="3.47339">
        <ele>1273.88</ele>
        <time>2024-10-31T11:15:53Z</time>
      </trkpt>
      <trkpt lat="44.86403" lon="3.47341">
        <ele>1273.88</ele>
        <time>2024-10-31T11:15:54Z</time>
      </trkpt>
      <trkpt lat="44.86412" lon="3.47352">
        <ele>1270.04</ele>
        <time>2024-10-31T11:16:11Z</time>
      </trkpt>
      <trkpt lat="44.86421" lon="3.47379">
        <ele>1267.64</ele>
        <time>2024-10-31T11:16:29Z</time>
      </trkpt>
      <trkpt lat="44.86421" lon="3.47395">
        <ele>1262.83</ele>
        <time>2024-10-31T11:16:46Z</time>
      </trkpt>
      <trkpt lat="44.8642" lon="3.47401">
        <ele>1258.5</ele>
        <time>2024-10-31T11:17:15Z</time>
      </trkpt>
      <trkpt lat="44.86418" lon="3.47432">
        <ele>1256.58</ele>
        <time>2024-10-31T11:17:33Z</time>
      </trkpt>
      <trkpt lat="44.86413" lon="3.47458">
        <ele>1255.62</ele>
        <time>2024-10-31T11:17:50Z</time>
      </trkpt>
      <trkpt lat="44.86412" lon="3.47469">
        <ele>1254.18</ele>
        <time>2024-10-31T11:18:05Z</time>
      </trkpt>
      <trkpt lat="44.86405" lon="3.47477">
        <ele>1252.25</ele>
        <time>2024-10-31T11:18:21Z</time>
      </trkpt>
      <trkpt lat="44.86406" lon="3.4748">
        <ele>1251.29</ele>
        <time>2024-10-31T11:18:39Z</time>
      </trkpt>
      <trkpt lat="44.86407" lon="3.47481">
        <ele>1251.77</ele>
        <time>2024-10-31T11:19:09Z</time>
      </trkpt>
      <trkpt lat="44.86404" lon="3.47481">
        <ele>1253.7</ele>
        <time>2024-10-31T11:19:42Z</time>
      </trkpt>
      <trkpt lat="44.86396" lon="3.47473">
        <ele>1261.39</ele>
        <time>2024-10-31T11:20:07Z</time>
      </trkpt>
      <trkpt lat="44.86398" lon="3.47474">
        <ele>1270.04</ele>
        <time>2024-10-31T11:20:34Z</time>
      </trkpt>
      <trkpt lat="44.86399" lon="3.47475">
        <ele>1270.52</ele>
        <time>2024-10-31T11:21:09Z</time>
      </trkpt>
      <trkpt lat="44.86401" lon="3.47479">
        <ele>1266.19</ele>
        <time>2024-10-31T11:21:45Z</time>
      </trkpt>
      <trkpt lat="44.864" lon="3.47482">
        <ele>1267.64</ele>
        <time>2024-10-31T11:22:11Z</time>
      </trkpt>
      <trkpt lat="44.86399" lon="3.47482">
        <ele>1268.12</ele>
        <time>2024-10-31T11:22:38Z</time>
      </trkpt>
      <trkpt lat="44.864" lon="3.47479">
        <ele>1266.19</ele>
        <time>2024-10-31T11:23:05Z</time>
      </trkpt>
      <trkpt lat="44.86406" lon="3.47493">
        <ele>1266.67</ele>
        <time>2024-10-31T11:23:31Z</time>
      </trkpt>
      <trkpt lat="44.86409" lon="3.47483">
        <ele>1257.06</ele>
        <time>2024-10-31T11:24:02Z</time>
      </trkpt>
      <trkpt lat="44.86403" lon="3.47479">
        <ele>1260.91</ele>
        <time>2024-10-31T11:24:35Z</time>
      </trkpt>
      <trkpt lat="44.86407" lon="3.47482">
        <ele>1255.14</ele>
        <time>2024-10-31T11:25:10Z</time>
      </trkpt>
      <trkpt lat="44.8641" lon="3.47481">
        <ele>1251.77</ele>
        <time>2024-10-31T11:25:35Z</time>
      </trkpt>
      <trkpt lat="44.86408" lon="3.47481">
        <ele>1251.77</ele>
        <time>2024-10-31T11:26:04Z</time>
      </trkpt>
      <trkpt lat="44.86407" lon="3.47479">
        <ele>1251.29</ele>
        <time>2024-10-31T11:26:41Z</time>
      </trkpt>
      <trkpt lat="44.86406" lon="3.47477">
        <ele>1254.66</ele>
        <time>2024-10-31T11:27:14Z</time>
      </trkpt>
      <trkpt lat="44.86409" lon="3.47471">
        <ele>1253.22</ele>
        <time>2024-10-31T11:27:43Z</time>
      </trkpt>
      <trkpt lat="44.8641" lon="3.4747">
        <ele>1246.97</ele>
        <time>2024-10-31T11:28:09Z</time>
      </trkpt>
      <trkpt lat="44.86409" lon="3.47479">
        <ele>1247.93</ele>
        <time>2024-10-31T11:28:33Z</time>
      </trkpt>
      <trkpt lat="44.86413" lon="3.47478">
        <ele>1248.41</ele>
        <time>2024-10-31T11:28:54Z</time>
      </trkpt>
      <trkpt lat="44.86406" lon="3.47477">
        <ele>1249.85</ele>
        <time>2024-10-31T11:29:20Z</time>
      </trkpt>
      <trkpt lat="44.86403" lon="3.47474">
        <ele>1248.89</ele>
        <time>2024-10-31T11:29:48Z</time>
      </trkpt>
      <trkpt lat="44.86404" lon="3.47466">
        <ele>1253.22</ele>
        <time>2024-10-31T11:30:13Z</time>
      </trkpt>
      <trkpt lat="44.86407" lon="3.4748">
        <ele>1255.62</ele>
        <time>2024-10-31T11:30:41Z</time>
      </trkpt>
      <trkpt lat="44.86407" lon="3.4748">
        <ele>1253.22</ele>
        <time>2024-10-31T11:31:09Z</time>
      </trkpt>
      <trkpt lat="44.86408" lon="3.47474">
        <ele>1251.77</ele>
        <time>2024-10-31T11:31:40Z</time>
      </trkpt>
      <trkpt lat="44.86402" lon="3.47473">
        <ele>1257.54</ele>
        <time>2024-10-31T11:32:07Z</time>
      </trkpt>
      <trkpt lat="44.86407" lon="3.47471">
        <ele>1259.46</ele>
        <time>2024-10-31T11:32:35Z</time>
      </trkpt>
      <trkpt lat="44.86408" lon="3.47476">
        <ele>1258.98</ele>
        <time>2024-10-31T11:33:04Z</time>
      </trkpt>
      <trkpt lat="44.86405" lon="3.47471">
        <ele>1259.94</ele>
        <time>2024-10-31T11:33:31Z</time>
      </trkpt>
      <trkpt lat="44.86403" lon="3.47481">
        <ele>1261.87</ele>
        <time>2024-10-31T11:33:58Z</time>
      </trkpt>
      <trkpt lat="44.86404" lon="3.47479">
        <ele>1255.62</ele>
        <time>2024-10-31T11:34:17Z</time>
      </trkpt>
      <trkpt lat="44.86405" lon="3.47477">
        <ele>1255.62</ele>
        <time>2024-10-31T11:34:43Z</time>
      </trkpt>
      <trkpt lat="44.86404" lon="3.47474">
        <ele>1257.54</ele>
        <time>2024-10-31T11:35:13Z</time>
      </trkpt>
      <trkpt lat="44.86401" lon="3.47478">
        <ele>1264.27</ele>
        <time>2024-10-31T11:35:59Z</time>
      </trkpt>
      <trkpt lat="44.86399" lon="3.47479">
        <ele>1262.83</ele>
        <time>2024-10-31T11:36:34Z</time>
      </trkpt>
      <trkpt lat="44.864" lon="3.47476">
        <ele>1262.35</ele>
        <time>2024-10-31T11:37:01Z</time>
      </trkpt>
      <trkpt lat="44.86402" lon="3.47478">
        <ele>1261.87</ele>
        <time>2024-10-31T11:37:36Z</time>
      </trkpt>
      <trkpt lat="44.86402" lon="3.47482">
        <ele>1259.94</ele>
        <time>2024-10-31T11:38:13Z</time>
      </trkpt>
      <trkpt lat="44.86401" lon="3.47477">
        <ele>1260.43</ele>
        <time>2024-10-31T11:38:45Z</time>
      </trkpt>
      <trkpt lat="44.86403" lon="3.4748">
        <ele>1259.94</ele>
        <time>2024-10-31T11:39:13Z</time>
      </trkpt>
      <trkpt lat="44.86407" lon="3.47476">
        <ele>1255.62</ele>
        <time>2024-10-31T11:39:45Z</time>
      </trkpt>
      <trkpt lat="44.86403" lon="3.47473">
        <ele>1254.66</ele>
        <time>2024-10-31T11:40:17Z</time>
      </trkpt>
      <trkpt lat="44.86406" lon="3.47467">
        <ele>1255.14</ele>
        <time>2024-10-31T11:40:56Z</time>
      </trkpt>
      <trkpt lat="44.86408" lon="3.47476">
        <ele>1256.1</ele>
        <time>2024-10-31T11:41:31Z</time>
      </trkpt>
      <trkpt lat="44.86406" lon="3.47484">
        <ele>1256.1</ele>
        <time>2024-10-31T11:42:08Z</time>
      </trkpt>
      <trkpt lat="44.86404" lon="3.47479">
        <ele>1255.14</ele>
        <time>2024-10-31T11:42:37Z</time>
      </trkpt>
      <trkpt lat="44.86404" lon="3.47478">
        <ele>1260.91</ele>
        <time>2024-10-31T11:43:05Z</time>
      </trkpt>
      <trkpt lat="44.86399" lon="3.47472">
        <ele>1257.54</ele>
        <time>2024-10-31T11:43:40Z</time>
      </trkpt>
      <trkpt lat="44.86403" lon="3.47473">
        <ele>1258.02</ele>
        <time>2024-10-31T11:44:17Z</time>
      </trkpt>
      <trkpt lat="44.86404" lon="3.47471">
        <ele>1260.43</ele>
        <time>2024-10-31T11:44:48Z</time>
      </trkpt>
      <trkpt lat="44.86405" lon="3.47478">
        <ele>1257.54</ele>
        <time>2024-10-31T11:45:15Z</time>
      </trkpt>
      <trkpt lat="44.86406" lon="3.47474">
        <ele>1258.5</ele>
        <time>2024-10-31T11:45:43Z</time>
      </trkpt>
      <trkpt lat="44.86405" lon="3.47478">
        <ele>1256.1</ele>
        <time>2024-10-31T11:46:14Z</time>
      </trkpt>
      <trkpt lat="44.86408" lon="3.47484">
        <ele>1257.54</ele>
        <time>2024-10-31T11:46:46Z</time>
      </trkpt>
      <trkpt lat="44.86402" lon="3.47474">
        <ele>1255.62</ele>
        <time>2024-10-31T11:47:19Z</time>
      </trkpt>
      <trkpt lat="44.86401" lon="3.47474">
        <ele>1258.02</ele>
        <time>2024-10-31T11:47:56Z</time>
      </trkpt>
      <trkpt lat="44.86405" lon="3.47487">
        <ele>1256.1</ele>
        <time>2024-10-31T11:48:28Z</time>
      </trkpt>
      <trkpt lat="44.86405" lon="3.47474">
        <ele>1256.58</ele>
        <time>2024-10-31T11:48:56Z</time>
      </trkpt>
      <trkpt lat="44.86405" lon="3.4748">
        <ele>1254.18</ele>
        <time>2024-10-31T11:49:24Z</time>
      </trkpt>
      <trkpt lat="44.86405" lon="3.47485">
        <ele>1248.41</ele>
        <time>2024-10-31T11:49:56Z</time>
      </trkpt>
      <trkpt lat="44.86404" lon="3.47483">
        <ele>1249.85</ele>
        <time>2024-10-31T11:50:27Z</time>
      </trkpt>
      <trkpt lat="44.86406" lon="3.47482">
        <ele>1247.93</ele>
        <time>2024-10-31T11:50:53Z</time>
      </trkpt>
      <trkpt lat="44.86404" lon="3.47469">
        <ele>1244.08</ele>
        <time>2024-10-31T11:51:19Z</time>
      </trkpt>
      <trkpt lat="44.86403" lon="3.47477">
        <ele>1239.76</ele>
        <time>2024-10-31T11:51:44Z</time>
      </trkpt>
      <trkpt lat="44.86401" lon="3.47477">
        <ele>1237.83</ele>
        <time>2024-10-31T11:52:07Z</time>
      </trkpt>
      <trkpt lat="44.86404" lon="3.47481">
        <ele>1237.35</ele>
        <time>2024-10-31T11:52:32Z</time>
      </trkpt>
      <trkpt lat="44.86403" lon="3.47479">
        <ele>1248.41</ele>
        <time>2024-10-31T11:53:03Z</time>
      </trkpt>
      <trkpt lat="44.86404" lon="3.47474">
        <ele>1251.29</ele>
        <time>2024-10-31T11:53:37Z</time>
      </trkpt>
      <trkpt lat="44.86403" lon="3.47477">
        <ele>1254.66</ele>
        <time>2024-10-31T11:54:11Z</time>
      </trkpt>
      <trkpt lat="44.86404" lon="3.47484">
        <ele>1254.66</ele>
        <time>2024-10-31T11:54:46Z</time>
      </trkpt>
      <trkpt lat="44.86403" lon="3.47479">
        <ele>1260.43</ele>
        <time>2024-10-31T11:55:15Z</time>
      </trkpt>
      <trkpt lat="44.86404" lon="3.47483">
        <ele>1263.31</ele>
        <time>2024-10-31T11:55:48Z</time>
      </trkpt>
      <trkpt lat="44.86403" lon="3.47482">
        <ele>1268.6</ele>
        <time>2024-10-31T11:56:20Z</time>
      </trkpt>
      <trkpt lat="44.86402" lon="3.47483">
        <ele>1268.12</ele>
        <time>2024-10-31T11:56:55Z</time>
      </trkpt>
      <trkpt lat="44.86403" lon="3.47478">
        <ele>1270.52</ele>
        <time>2024-10-31T11:57:34Z</time>
      </trkpt>
      <trkpt lat="44.86401" lon="3.47481">
        <ele>1273.88</ele>
        <time>2024-10-31T11:58:08Z</time>
      </trkpt>
      <trkpt lat="44.86401" lon="3.47479">
        <ele>1265.23</ele>
        <time>2024-10-31T11:58:44Z</time>
      </trkpt>
      <trkpt lat="44.86403" lon="3.47481">
        <ele>1263.79</ele>
        <time>2024-10-31T11:59:18Z</time>
      </trkpt>
      <trkpt lat="44.86403" lon="3.47474">
        <ele>1263.79</ele>
        <time>2024-10-31T11:59:51Z</time>
      </trkpt>
      <trkpt lat="44.86404" lon="3.47475">
        <ele>1260.43</ele>
        <time>2024-10-31T12:00:32Z</time>
      </trkpt>
      <trkpt lat="44.86402" lon="3.47474">
        <ele>1259.94</ele>
        <time>2024-10-31T12:01:03Z</time>
      </trkpt>
      <trkpt lat="44.86402" lon="3.47472">
        <ele>1262.83</ele>
        <time>2024-10-31T12:01:42Z</time>
      </trkpt>
      <trkpt lat="44.86403" lon="3.4747">
        <ele>1260.43</ele>
        <time>2024-10-31T12:02:16Z</time>
      </trkpt>
      <trkpt lat="44.86404" lon="3.47476">
        <ele>1263.79</ele>
        <time>2024-10-31T12:02:44Z</time>
      </trkpt>
      <trkpt lat="44.86403" lon="3.47474">
        <ele>1265.71</ele>
        <time>2024-10-31T12:03:06Z</time>
      </trkpt>
      <trkpt lat="44.86405" lon="3.47476">
        <ele>1269.08</ele>
        <time>2024-10-31T12:03:35Z</time>
      </trkpt>
      <trkpt lat="44.86405" lon="3.47478">
        <ele>1272.92</ele>
        <time>2024-10-31T12:04:06Z</time>
      </trkpt>
      <trkpt lat="44.86405" lon="3.47476">
        <ele>1273.88</ele>
        <time>2024-10-31T12:04:32Z</time>
      </trkpt>
      <trkpt lat="44.86411" lon="3.47485">
        <ele>1274.36</ele>
        <time>2024-10-31T12:04:58Z</time>
      </trkpt>
      <trkpt lat="44.86413" lon="3.47479">
        <ele>1275.81</ele>
        <time>2024-10-31T12:05:23Z</time>
      </trkpt>
      <trkpt lat="44.86407" lon="3.47473">
        <ele>1278.21</ele>
        <time>2024-10-31T12:05:45Z</time>
      </trkpt>
      <trkpt lat="44.86411" lon="3.47492">
        <ele>1280.13</ele>
        <time>2024-10-31T12:06:07Z</time>
      </trkpt>
      <trkpt lat="44.86412" lon="3.47496">
        <ele>1280.13</ele>
        <time>2024-10-31T12:06:10Z</time>
      </trkpt>
      <trkpt lat="44.86413" lon="3.47498">
        <ele>1280.13</ele>
        <time>2024-10-31T12:06:11Z</time>
      </trkpt>
      <trkpt lat="44.86422" lon="3.47508">
        <ele>1279.65</ele>
        <time>2024-10-31T12:06:33Z</time>
      </trkpt>
      <trkpt lat="44.86424" lon="3.4753">
        <ele>1273.88</ele>
        <time>2024-10-31T12:06:58Z</time>
      </trkpt>
      <trkpt lat="44.86426" lon="3.47526">
        <ele>1265.71</ele>
        <time>2024-10-31T12:07:21Z</time>
      </trkpt>
      <trkpt lat="44.86427" lon="3.47526">
        <ele>1256.1</ele>
        <time>2024-10-31T12:07:44Z</time>
      </trkpt>
      <trkpt lat="44.86425" lon="3.47517">
        <ele>1251.77</ele>
        <time>2024-10-31T12:07:56Z</time>
      </trkpt>
      <trkpt lat="44.8641" lon="3.47457">
        <ele>1247.93</ele>
        <time>2024-10-31T12:08:20Z</time>
      </trkpt>
      <trkpt lat="44.86407" lon="3.4746">
        <ele>1248.89</ele>
        <time>2024-10-31T12:08:45Z</time>
      </trkpt>
      <trkpt lat="44.86404" lon="3.47461">
        <ele>1248.89</ele>
        <time>2024-10-31T12:09:09Z</time>
      </trkpt>
      <trkpt lat="44.86404" lon="3.47468">
        <ele>1247.45</ele>
        <time>2024-10-31T12:09:29Z</time>
      </trkpt>
      <trkpt lat="44.86403" lon="3.47469">
        <ele>1245.04</ele>
        <time>2024-10-31T12:09:53Z</time>
      </trkpt>
      <trkpt lat="44.86404" lon="3.47482">
        <ele>1246.01</ele>
        <time>2024-10-31T12:10:14Z</time>
      </trkpt>
      <trkpt lat="44.86406" lon="3.47483">
        <ele>1251.77</ele>
        <time>2024-10-31T12:10:40Z</time>
      </trkpt>
      <trkpt lat="44.86407" lon="3.47482">
        <ele>1255.14</ele>
        <time>2024-10-31T12:11:07Z</time>
      </trkpt>
      <trkpt lat="44.86403" lon="3.47484">
        <ele>1255.14</ele>
        <time>2024-10-31T12:11:27Z</time>
      </trkpt>
      <trkpt lat="44.86405" lon="3.4748">
        <ele>1255.14</ele>
        <time>2024-10-31T12:11:47Z</time>
      </trkpt>
      <trkpt lat="44.86406" lon="3.4748">
        <ele>1250.81</ele>
        <time>2024-10-31T12:12:13Z</time>
      </trkpt>
      <trkpt lat="44.86414" lon="3.47484">
        <ele>1252.25</ele>
        <time>2024-10-31T12:12:28Z</time>
      </trkpt>
      <trkpt lat="44.8641" lon="3.47487">
        <ele>1251.77</ele>
        <time>2024-10-31T12:12:46Z</time>
      </trkpt>
      <trkpt lat="44.86411" lon="3.47496">
        <ele>1254.66</ele>
        <time>2024-10-31T12:12:52Z</time>
      </trkpt>
      <trkpt lat="44.86406" lon="3.47506">
        <ele>1256.58</ele>
        <time>2024-10-31T12:13:09Z</time>
      </trkpt>
      <trkpt lat="44.86403" lon="3.47516">
        <ele>1257.54</ele>
        <time>2024-10-31T12:13:22Z</time>
      </trkpt>
      <trkpt lat="44.864" lon="3.47521">
        <ele>1257.54</ele>
        <time>2024-10-31T12:13:26Z</time>
      </trkpt>
      <trkpt lat="44.86386" lon="3.47537">
        <ele>1256.58</ele>
        <time>2024-10-31T12:13:44Z</time>
      </trkpt>
      <trkpt lat="44.86382" lon="3.47541">
        <ele>1256.1</ele>
        <time>2024-10-31T12:13:48Z</time>
      </trkpt>
      <trkpt lat="44.86371" lon="3.47563">
        <ele>1251.29</ele>
        <time>2024-10-31T12:14:05Z</time>
      </trkpt>
      <trkpt lat="44.8637" lon="3.47562">
        <ele>1250.81</ele>
        <time>2024-10-31T12:14:06Z</time>
      </trkpt>
      <trkpt lat="44.86366" lon="3.47567">
        <ele>1250.33</ele>
        <time>2024-10-31T12:14:09Z</time>
      </trkpt>
      <trkpt lat="44.86365" lon="3.47569">
        <ele>1249.85</ele>
        <time>2024-10-31T12:14:10Z</time>
      </trkpt>
      <trkpt lat="44.86362" lon="3.47574">
        <ele>1248.41</ele>
        <time>2024-10-31T12:14:24Z</time>
      </trkpt>
      <trkpt lat="44.86363" lon="3.47577">
        <ele>1246.49</ele>
        <time>2024-10-31T12:14:49Z</time>
      </trkpt>
      <trkpt lat="44.86362" lon="3.47584">
        <ele>1246.01</ele>
        <time>2024-10-31T12:14:55Z</time>
      </trkpt>
      <trkpt lat="44.86362" lon="3.47586">
        <ele>1246.01</ele>
        <time>2024-10-31T12:14:56Z</time>
      </trkpt>
      <trkpt lat="44.86357" lon="3.47615">
        <ele>1245.53</ele>
        <time>2024-10-31T12:15:14Z</time>
      </trkpt>
      <trkpt lat="44.86351" lon="3.47641">
        <ele>1244.56</ele>
        <time>2024-10-31T12:15:31Z</time>
      </trkpt>
      <trkpt lat="44.86348" lon="3.47649">
        <ele>1244.56</ele>
        <time>2024-10-31T12:15:37Z</time>
      </trkpt>
      <trkpt lat="44.86347" lon="3.47651">
        <ele>1244.56</ele>
        <time>2024-10-31T12:15:38Z</time>
      </trkpt>
      <trkpt lat="44.86338" lon="3.47678">
        <ele>1245.04</ele>
        <time>2024-10-31T12:15:55Z</time>
      </trkpt>
      <trkpt lat="44.86335" lon="3.47694">
        <ele>1244.56</ele>
        <time>2024-10-31T12:16:05Z</time>
      </trkpt>
      <trkpt lat="44.86325" lon="3.47709">
        <ele>1245.04</ele>
        <time>2024-10-31T12:16:20Z</time>
      </trkpt>
      <trkpt lat="44.86314" lon="3.47733">
        <ele>1244.56</ele>
        <time>2024-10-31T12:16:38Z</time>
      </trkpt>
      <trkpt lat="44.86309" lon="3.47758">
        <ele>1242.16</ele>
        <time>2024-10-31T12:16:53Z</time>
      </trkpt>
      <trkpt lat="44.86311" lon="3.47775">
        <ele>1241.2</ele>
        <time>2024-10-31T12:17:03Z</time>
      </trkpt>
      <trkpt lat="44.86312" lon="3.47777">
        <ele>1241.2</ele>
        <time>2024-10-31T12:17:04Z</time>
      </trkpt>
      <trkpt lat="44.8632" lon="3.47796">
        <ele>1238.32</ele>
        <time>2024-10-31T12:17:17Z</time>
      </trkpt>
      <trkpt lat="44.86325" lon="3.47804">
        <ele>1237.35</ele>
        <time>2024-10-31T12:17:24Z</time>
      </trkpt>
      <trkpt lat="44.86326" lon="3.47805">
        <ele>1236.87</ele>
        <time>2024-10-31T12:17:25Z</time>
      </trkpt>
      <trkpt lat="44.86327" lon="3.47809">
        <ele>1236.39</ele>
        <time>2024-10-31T12:17:28Z</time>
      </trkpt>
      <trkpt lat="44.86329" lon="3.47816">
        <ele>1235.43</ele>
        <time>2024-10-31T12:17:34Z</time>
      </trkpt>
      <trkpt lat="44.86334" lon="3.47838">
        <ele>1233.03</ele>
        <time>2024-10-31T12:17:47Z</time>
      </trkpt>
      <trkpt lat="44.86335" lon="3.47848">
        <ele>1232.07</ele>
        <time>2024-10-31T12:17:57Z</time>
      </trkpt>
      <trkpt lat="44.86335" lon="3.4785">
        <ele>1232.07</ele>
        <time>2024-10-31T12:17:58Z</time>
      </trkpt>
      <trkpt lat="44.86335" lon="3.47852">
        <ele>1232.07</ele>
        <time>2024-10-31T12:17:59Z</time>
      </trkpt>
      <trkpt lat="44.86335" lon="3.47853">
        <ele>1232.07</ele>
        <time>2024-10-31T12:18:00Z</time>
      </trkpt>
      <trkpt lat="44.86335" lon="3.47855">
        <ele>1232.07</ele>
        <time>2024-10-31T12:18:01Z</time>
      </trkpt>
      <trkpt lat="44.86337" lon="3.47877">
        <ele>1231.59</ele>
        <time>2024-10-31T12:18:19Z</time>
      </trkpt>
      <trkpt lat="44.86341" lon="3.47892">
        <ele>1230.62</ele>
        <time>2024-10-31T12:18:35Z</time>
      </trkpt>
      <trkpt lat="44.86341" lon="3.47899">
        <ele>1227.74</ele>
        <time>2024-10-31T12:18:57Z</time>
      </trkpt>
      <trkpt lat="44.86345" lon="3.47917">
        <ele>1227.26</ele>
        <time>2024-10-31T12:19:12Z</time>
      </trkpt>
      <trkpt lat="44.86352" lon="3.47941">
        <ele>1226.78</ele>
        <time>2024-10-31T12:19:27Z</time>
      </trkpt>
      <trkpt lat="44.86358" lon="3.47968">
        <ele>1225.82</ele>
        <time>2024-10-31T12:19:43Z</time>
      </trkpt>
      <trkpt lat="44.86364" lon="3.47989">
        <ele>1224.86</ele>
        <time>2024-10-31T12:19:57Z</time>
      </trkpt>
      <trkpt lat="44.86368" lon="3.48007">
        <ele>1222.45</ele>
        <time>2024-10-31T12:20:11Z</time>
      </trkpt>
      <trkpt lat="44.86369" lon="3.48009">
        <ele>1222.45</ele>
        <time>2024-10-31T12:20:12Z</time>
      </trkpt>
      <trkpt lat="44.86374" lon="3.48033">
        <ele>1219.57</ele>
        <time>2024-10-31T12:20:27Z</time>
      </trkpt>
      <trkpt lat="44.86372" lon="3.48064">
        <ele>1218.61</ele>
        <time>2024-10-31T12:20:44Z</time>
      </trkpt>
      <trkpt lat="44.86369" lon="3.48068">
        <ele>1218.61</ele>
        <time>2024-10-31T12:20:47Z</time>
      </trkpt>
      <trkpt lat="44.86352" lon="3.48085">
        <ele>1216.69</ele>
        <time>2024-10-31T12:21:03Z</time>
      </trkpt>
      <trkpt lat="44.86331" lon="3.48095">
        <ele>1215.72</ele>
        <time>2024-10-31T12:21:20Z</time>
      </trkpt>
      <trkpt lat="44.86318" lon="3.48098">
        <ele>1212.36</ele>
        <time>2024-10-31T12:21:29Z</time>
      </trkpt>
      <trkpt lat="44.86308" lon="3.481">
        <ele>1210.92</ele>
        <time>2024-10-31T12:21:37Z</time>
      </trkpt>
      <trkpt lat="44.86299" lon="3.481">
        <ele>1210.92</ele>
        <time>2024-10-31T12:21:45Z</time>
      </trkpt>
      <trkpt lat="44.86293" lon="3.48102">
        <ele>1210.92</ele>
        <time>2024-10-31T12:21:51Z</time>
      </trkpt>
      <trkpt lat="44.86292" lon="3.48103">
        <ele>1210.92</ele>
        <time>2024-10-31T12:21:52Z</time>
      </trkpt>
      <trkpt lat="44.86291" lon="3.48104">
        <ele>1210.92</ele>
        <time>2024-10-31T12:21:53Z</time>
      </trkpt>
      <trkpt lat="44.86287" lon="3.48113">
        <ele>1210.44</ele>
        <time>2024-10-31T12:22:02Z</time>
      </trkpt>
      <trkpt lat="44.86287" lon="3.48116">
        <ele>1210.44</ele>
        <time>2024-10-31T12:22:03Z</time>
      </trkpt>
      <trkpt lat="44.86287" lon="3.48117">
        <ele>1210.44</ele>
        <time>2024-10-31T12:22:04Z</time>
      </trkpt>
      <trkpt lat="44.86287" lon="3.48119">
        <ele>1209.96</ele>
        <time>2024-10-31T12:22:05Z</time>
      </trkpt>
      <trkpt lat="44.86287" lon="3.48122">
        <ele>1209.48</ele>
        <time>2024-10-31T12:22:06Z</time>
      </trkpt>
      <trkpt lat="44.86289" lon="3.48137">
        <ele>1207.07</ele>
        <time>2024-10-31T12:22:16Z</time>
      </trkpt>
      <trkpt lat="44.86295" lon="3.48155">
        <ele>1204.19</ele>
        <time>2024-10-31T12:22:28Z</time>
      </trkpt>
      <trkpt lat="44.86301" lon="3.48173">
        <ele>1201.3</ele>
        <time>2024-10-31T12:22:39Z</time>
      </trkpt>
      <trkpt lat="44.86305" lon="3.48183">
        <ele>1198.42</ele>
        <time>2024-10-31T12:22:49Z</time>
      </trkpt>
      <trkpt lat="44.86312" lon="3.482">
        <ele>1196.5</ele>
        <time>2024-10-31T12:23:00Z</time>
      </trkpt>
      <trkpt lat="44.86313" lon="3.48203">
        <ele>1195.54</ele>
        <time>2024-10-31T12:23:03Z</time>
      </trkpt>
      <trkpt lat="44.86315" lon="3.48204">
        <ele>1195.54</ele>
        <time>2024-10-31T12:23:04Z</time>
      </trkpt>
      <trkpt lat="44.86316" lon="3.48206">
        <ele>1195.54</ele>
        <time>2024-10-31T12:23:05Z</time>
      </trkpt>
      <trkpt lat="44.86323" lon="3.4822">
        <ele>1194.58</ele>
        <time>2024-10-31T12:23:16Z</time>
      </trkpt>
      <trkpt lat="44.86329" lon="3.48225">
        <ele>1192.17</ele>
        <time>2024-10-31T12:23:28Z</time>
      </trkpt>
      <trkpt lat="44.86333" lon="3.48228">
        <ele>1191.21</ele>
        <time>2024-10-31T12:23:33Z</time>
      </trkpt>
      <trkpt lat="44.86336" lon="3.48235">
        <ele>1191.21</ele>
        <time>2024-10-31T12:23:46Z</time>
      </trkpt>
      <trkpt lat="44.86343" lon="3.48242">
        <ele>1191.69</ele>
        <time>2024-10-31T12:24:09Z</time>
      </trkpt>
      <trkpt lat="44.86356" lon="3.48249">
        <ele>1189.77</ele>
        <time>2024-10-31T12:24:26Z</time>
      </trkpt>
      <trkpt lat="44.86376" lon="3.48256">
        <ele>1187.37</ele>
        <time>2024-10-31T12:24:45Z</time>
      </trkpt>
      <trkpt lat="44.86381" lon="3.48257">
        <ele>1185.92</ele>
        <time>2024-10-31T12:24:57Z</time>
      </trkpt>
      <trkpt lat="44.86382" lon="3.48256">
        <ele>1185.92</ele>
        <time>2024-10-31T12:24:58Z</time>
      </trkpt>
      <trkpt lat="44.86384" lon="3.48257">
        <ele>1185.92</ele>
        <time>2024-10-31T12:24:59Z</time>
      </trkpt>
      <trkpt lat="44.86403" lon="3.48265">
        <ele>1184.48</ele>
        <time>2024-10-31T12:25:15Z</time>
      </trkpt>
      <trkpt lat="44.86406" lon="3.4827">
        <ele>1183.52</ele>
        <time>2024-10-31T12:25:18Z</time>
      </trkpt>
      <trkpt lat="44.86413" lon="3.48297">
        <ele>1181.12</ele>
        <time>2024-10-31T12:25:33Z</time>
      </trkpt>
      <trkpt lat="44.86417" lon="3.48319">
        <ele>1178.71</ele>
        <time>2024-10-31T12:25:46Z</time>
      </trkpt>
      <trkpt lat="44.86416" lon="3.48321">
        <ele>1178.71</ele>
        <time>2024-10-31T12:25:47Z</time>
      </trkpt>
      <trkpt lat="44.86407" lon="3.48349">
        <ele>1177.27</ele>
        <time>2024-10-31T12:26:05Z</time>
      </trkpt>
      <trkpt lat="44.86395" lon="3.48376">
        <ele>1174.87</ele>
        <time>2024-10-31T12:26:22Z</time>
      </trkpt>
      <trkpt lat="44.86394" lon="3.48378">
        <ele>1174.39</ele>
        <time>2024-10-31T12:26:23Z</time>
      </trkpt>
      <trkpt lat="44.86393" lon="3.48381">
        <ele>1174.39</ele>
        <time>2024-10-31T12:26:24Z</time>
      </trkpt>
      <trkpt lat="44.86388" lon="3.48401">
        <ele>1173.43</ele>
        <time>2024-10-31T12:26:35Z</time>
      </trkpt>
      <trkpt lat="44.86383" lon="3.48421">
        <ele>1172.95</ele>
        <time>2024-10-31T12:26:46Z</time>
      </trkpt>
      <trkpt lat="44.86377" lon="3.48443">
        <ele>1171.02</ele>
        <time>2024-10-31T12:26:55Z</time>
      </trkpt>
      <trkpt lat="44.86376" lon="3.48446">
        <ele>1170.06</ele>
        <time>2024-10-31T12:27:00Z</time>
      </trkpt>
      <trkpt lat="44.86375" lon="3.48448">
        <ele>1170.06</ele>
        <time>2024-10-31T12:27:01Z</time>
      </trkpt>
      <trkpt lat="44.8637" lon="3.48468">
        <ele>1169.58</ele>
        <time>2024-10-31T12:27:12Z</time>
      </trkpt>
      <trkpt lat="44.86368" lon="3.48484">
        <ele>1170.06</ele>
        <time>2024-10-31T12:27:21Z</time>
      </trkpt>
      <trkpt lat="44.86365" lon="3.48499">
        <ele>1169.58</ele>
        <time>2024-10-31T12:27:31Z</time>
      </trkpt>
      <trkpt lat="44.86365" lon="3.48514">
        <ele>1168.62</ele>
        <time>2024-10-31T12:27:41Z</time>
      </trkpt>
      <trkpt lat="44.86364" lon="3.48516">
        <ele>1168.62</ele>
        <time>2024-10-31T12:27:42Z</time>
      </trkpt>
      <trkpt lat="44.86363" lon="3.48518">
        <ele>1168.62</ele>
        <time>2024-10-31T12:27:43Z</time>
      </trkpt>
      <trkpt lat="44.86363" lon="3.4852">
        <ele>1168.14</ele>
        <time>2024-10-31T12:27:44Z</time>
      </trkpt>
      <trkpt lat="44.86363" lon="3.48523">
        <ele>1168.14</ele>
        <time>2024-10-31T12:27:45Z</time>
      </trkpt>
      <trkpt lat="44.86362" lon="3.48525">
        <ele>1168.14</ele>
        <time>2024-10-31T12:27:46Z</time>
      </trkpt>
      <trkpt lat="44.86358" lon="3.48544">
        <ele>1166.22</ele>
        <time>2024-10-31T12:27:58Z</time>
      </trkpt>
      <trkpt lat="44.8635" lon="3.4856">
        <ele>1164.77</ele>
        <time>2024-10-31T12:28:09Z</time>
      </trkpt>
      <trkpt lat="44.86342" lon="3.48578">
        <ele>1164.77</ele>
        <time>2024-10-31T12:28:19Z</time>
      </trkpt>
      <trkpt lat="44.86332" lon="3.48595">
        <ele>1164.77</ele>
        <time>2024-10-31T12:28:30Z</time>
      </trkpt>
      <trkpt lat="44.86324" lon="3.48607">
        <ele>1164.29</ele>
        <time>2024-10-31T12:28:40Z</time>
      </trkpt>
      <trkpt lat="44.86317" lon="3.48619">
        <ele>1162.85</ele>
        <time>2024-10-31T12:28:49Z</time>
      </trkpt>
      <trkpt lat="44.86308" lon="3.48629">
        <ele>1159.97</ele>
        <time>2024-10-31T12:28:58Z</time>
      </trkpt>
      <trkpt lat="44.86298" lon="3.48639">
        <ele>1157.08</ele>
        <time>2024-10-31T12:29:09Z</time>
      </trkpt>
      <trkpt lat="44.86297" lon="3.48639">
        <ele>1157.08</ele>
        <time>2024-10-31T12:29:10Z</time>
      </trkpt>
      <trkpt lat="44.86284" lon="3.48651">
        <ele>1156.12</ele>
        <time>2024-10-31T12:29:22Z</time>
      </trkpt>
      <trkpt lat="44.86274" lon="3.48661">
        <ele>1155.64</ele>
        <time>2024-10-31T12:29:34Z</time>
      </trkpt>
      <trkpt lat="44.86263" lon="3.48673">
        <ele>1155.16</ele>
        <time>2024-10-31T12:29:44Z</time>
      </trkpt>
      <trkpt lat="44.86249" lon="3.48687">
        <ele>1154.2</ele>
        <time>2024-10-31T12:29:59Z</time>
      </trkpt>
      <trkpt lat="44.86238" lon="3.48696">
        <ele>1153.24</ele>
        <time>2024-10-31T12:30:13Z</time>
      </trkpt>
      <trkpt lat="44.8623" lon="3.48707">
        <ele>1151.32</ele>
        <time>2024-10-31T12:30:32Z</time>
      </trkpt>
      <trkpt lat="44.86228" lon="3.48712">
        <ele>1147.47</ele>
        <time>2024-10-31T12:30:49Z</time>
      </trkpt>
      <trkpt lat="44.86216" lon="3.48722">
        <ele>1147.47</ele>
        <time>2024-10-31T12:31:03Z</time>
      </trkpt>
      <trkpt lat="44.862" lon="3.4873">
        <ele>1151.32</ele>
        <time>2024-10-31T12:31:17Z</time>
      </trkpt>
      <trkpt lat="44.862" lon="3.48731">
        <ele>1153.72</ele>
        <time>2024-10-31T12:31:35Z</time>
      </trkpt>
      <trkpt lat="44.86186" lon="3.48739">
        <ele>1154.68</ele>
        <time>2024-10-31T12:31:47Z</time>
      </trkpt>
      <trkpt lat="44.8618" lon="3.4874">
        <ele>1153.72</ele>
        <time>2024-10-31T12:32:00Z</time>
      </trkpt>
      <trkpt lat="44.8618" lon="3.48743">
        <ele>1153.72</ele>
        <time>2024-10-31T12:32:16Z</time>
      </trkpt>
      <trkpt lat="44.8617" lon="3.48755">
        <ele>1152.28</ele>
        <time>2024-10-31T12:32:30Z</time>
      </trkpt>
      <trkpt lat="44.86168" lon="3.48765">
        <ele>1152.28</ele>
        <time>2024-10-31T12:32:45Z</time>
      </trkpt>
      <trkpt lat="44.86175" lon="3.48778">
        <ele>1151.8</ele>
        <time>2024-10-31T12:33:00Z</time>
      </trkpt>
      <trkpt lat="44.86174" lon="3.48789">
        <ele>1117.19</ele>
        <time>2024-10-31T12:33:44Z</time>
      </trkpt>
      <trkpt lat="44.86161" lon="3.48784">
        <ele>1134.49</ele>
        <time>2024-10-31T12:34:00Z</time>
      </trkpt>
      <trkpt lat="44.8616" lon="3.48799">
        <ele>1142.66</ele>
        <time>2024-10-31T12:34:16Z</time>
      </trkpt>
      <trkpt lat="44.86157" lon="3.4881">
        <ele>1148.43</ele>
        <time>2024-10-31T12:34:29Z</time>
      </trkpt>
      <trkpt lat="44.86157" lon="3.48817">
        <ele>1146.51</ele>
        <time>2024-10-31T12:34:44Z</time>
      </trkpt>
      <trkpt lat="44.86159" lon="3.48807">
        <ele>1145.07</ele>
        <time>2024-10-31T12:35:05Z</time>
      </trkpt>
      <trkpt lat="44.8616" lon="3.48799">
        <ele>1145.55</ele>
        <time>2024-10-31T12:35:22Z</time>
      </trkpt>
      <trkpt lat="44.86156" lon="3.48788">
        <ele>1146.03</ele>
        <time>2024-10-31T12:35:28Z</time>
      </trkpt>
      <trkpt lat="44.86157" lon="3.48785">
        <ele>1146.51</ele>
        <time>2024-10-31T12:35:30Z</time>
      </trkpt>
      <trkpt lat="44.86156" lon="3.48771">
        <ele>1146.99</ele>
        <time>2024-10-31T12:35:39Z</time>
      </trkpt>
      <trkpt lat="44.86154" lon="3.48766">
        <ele>1143.14</ele>
        <time>2024-10-31T12:35:54Z</time>
      </trkpt>
      <trkpt lat="44.86147" lon="3.48774">
        <ele>1138.34</ele>
        <time>2024-10-31T12:36:11Z</time>
      </trkpt>
      <trkpt lat="44.86133" lon="3.48768">
        <ele>1136.42</ele>
        <time>2024-10-31T12:36:28Z</time>
      </trkpt>
      <trkpt lat="44.86126" lon="3.48776">
        <ele>1138.34</ele>
        <time>2024-10-31T12:36:43Z</time>
      </trkpt>
      <trkpt lat="44.86092" lon="3.48746">
        <ele>1238.8</ele>
        <time>2024-10-31T12:37:41Z</time>
      </trkpt>
      <trkpt lat="44.86093" lon="3.48757">
        <ele>1217.65</ele>
        <time>2024-10-31T12:37:56Z</time>
      </trkpt>
      <trkpt lat="44.86102" lon="3.48747">
        <ele>1187.85</ele>
        <time>2024-10-31T12:38:31Z</time>
      </trkpt>
      <trkpt lat="44.86105" lon="3.4873">
        <ele>1182.56</ele>
        <time>2024-10-31T12:38:50Z</time>
      </trkpt>
      <trkpt lat="44.86099" lon="3.4872">
        <ele>1176.31</ele>
        <time>2024-10-31T12:39:16Z</time>
      </trkpt>
      <trkpt lat="44.86103" lon="3.48739">
        <ele>1156.6</ele>
        <time>2024-10-31T12:39:39Z</time>
      </trkpt>
      <trkpt lat="44.86093" lon="3.48752">
        <ele>1152.76</ele>
        <time>2024-10-31T12:39:57Z</time>
      </trkpt>
      <trkpt lat="44.8609" lon="3.48756">
        <ele>1151.8</ele>
        <time>2024-10-31T12:40:01Z</time>
      </trkpt>
      <trkpt lat="44.86075" lon="3.48766">
        <ele>1150.35</ele>
        <time>2024-10-31T12:40:14Z</time>
      </trkpt>
      <trkpt lat="44.86066" lon="3.48776">
        <ele>1146.99</ele>
        <time>2024-10-31T12:40:29Z</time>
      </trkpt>
      <trkpt lat="44.8605" lon="3.4879">
        <ele>1138.34</ele>
        <time>2024-10-31T12:40:46Z</time>
      </trkpt>
      <trkpt lat="44.86043" lon="3.48805">
        <ele>1137.38</ele>
        <time>2024-10-31T12:40:56Z</time>
      </trkpt>
      <trkpt lat="44.86038" lon="3.48824">
        <ele>1137.38</ele>
        <time>2024-10-31T12:41:09Z</time>
      </trkpt>
      <trkpt lat="44.86033" lon="3.48845">
        <ele>1136.9</ele>
        <time>2024-10-31T12:41:21Z</time>
      </trkpt>
      <trkpt lat="44.86031" lon="3.48866">
        <ele>1136.42</ele>
        <time>2024-10-31T12:41:33Z</time>
      </trkpt>
      <trkpt lat="44.86029" lon="3.48893">
        <ele>1135.94</ele>
        <time>2024-10-31T12:41:50Z</time>
      </trkpt>
      <trkpt lat="44.86025" lon="3.48919">
        <ele>1134.97</ele>
        <time>2024-10-31T12:42:07Z</time>
      </trkpt>
      <trkpt lat="44.8603" lon="3.48935">
        <ele>1133.53</ele>
        <time>2024-10-31T12:42:23Z</time>
      </trkpt>
      <trkpt lat="44.86027" lon="3.48951">
        <ele>1131.13</ele>
        <time>2024-10-31T12:42:38Z</time>
      </trkpt>
      <trkpt lat="44.86024" lon="3.48963">
        <ele>1128.73</ele>
        <time>2024-10-31T12:42:51Z</time>
      </trkpt>
      <trkpt lat="44.86023" lon="3.48964">
        <ele>1128.73</ele>
        <time>2024-10-31T12:42:52Z</time>
      </trkpt>
      <trkpt lat="44.8602" lon="3.48994">
        <ele>1125.84</ele>
        <time>2024-10-31T12:43:09Z</time>
      </trkpt>
      <trkpt lat="44.86018" lon="3.49013">
        <ele>1122.96</ele>
        <time>2024-10-31T12:43:19Z</time>
      </trkpt>
      <trkpt lat="44.86016" lon="3.49034">
        <ele>1121.03</ele>
        <time>2024-10-31T12:43:31Z</time>
      </trkpt>
      <trkpt lat="44.86015" lon="3.49037">
        <ele>1121.03</ele>
        <time>2024-10-31T12:43:34Z</time>
      </trkpt>
      <trkpt lat="44.86011" lon="3.49042">
        <ele>1120.55</ele>
        <time>2024-10-31T12:43:41Z</time>
      </trkpt>
      <trkpt lat="44.86009" lon="3.49043">
        <ele>1120.55</ele>
        <time>2024-10-31T12:43:42Z</time>
      </trkpt>
      <trkpt lat="44.86008" lon="3.49044">
        <ele>1120.55</ele>
        <time>2024-10-31T12:43:43Z</time>
      </trkpt>
      <trkpt lat="44.85999" lon="3.49047">
        <ele>1119.11</ele>
        <time>2024-10-31T12:43:53Z</time>
      </trkpt>
      <trkpt lat="44.85986" lon="3.49057">
        <ele>1115.75</ele>
        <time>2024-10-31T12:44:09Z</time>
      </trkpt>
      <trkpt lat="44.85981" lon="3.49069">
        <ele>1113.34</ele>
        <time>2024-10-31T12:44:25Z</time>
      </trkpt>
      <trkpt lat="44.85984" lon="3.49081">
        <ele>1109.02</ele>
        <time>2024-10-31T12:44:45Z</time>
      </trkpt>
      <trkpt lat="44.85973" lon="3.49086">
        <ele>1107.58</ele>
        <time>2024-10-31T12:45:02Z</time>
      </trkpt>
      <trkpt lat="44.85963" lon="3.4909">
        <ele>1106.61</ele>
        <time>2024-10-31T12:45:13Z</time>
      </trkpt>
      <trkpt lat="44.8596" lon="3.49097">
        <ele>1107.58</ele>
        <time>2024-10-31T12:45:17Z</time>
      </trkpt>
      <trkpt lat="44.85957" lon="3.49103">
        <ele>1108.06</ele>
        <time>2024-10-31T12:45:23Z</time>
      </trkpt>
      <trkpt lat="44.85956" lon="3.49104">
        <ele>1108.06</ele>
        <time>2024-10-31T12:45:24Z</time>
      </trkpt>
      <trkpt lat="44.85955" lon="3.49105">
        <ele>1108.54</ele>
        <time>2024-10-31T12:45:25Z</time>
      </trkpt>
      <trkpt lat="44.85954" lon="3.49106">
        <ele>1108.54</ele>
        <time>2024-10-31T12:45:26Z</time>
      </trkpt>
      <trkpt lat="44.85954" lon="3.49107">
        <ele>1108.54</ele>
        <time>2024-10-31T12:45:27Z</time>
      </trkpt>
      <trkpt lat="44.85948" lon="3.49113">
        <ele>1109.02</ele>
        <time>2024-10-31T12:45:33Z</time>
      </trkpt>
      <trkpt lat="44.85948" lon="3.49114">
        <ele>1109.02</ele>
        <time>2024-10-31T12:45:34Z</time>
      </trkpt>
      <trkpt lat="44.85947" lon="3.49119">
        <ele>1109.02</ele>
        <time>2024-10-31T12:45:43Z</time>
      </trkpt>
      <trkpt lat="44.85944" lon="3.49135">
        <ele>1109.98</ele>
        <time>2024-10-31T12:45:57Z</time>
      </trkpt>
      <trkpt lat="44.85947" lon="3.49141">
        <ele>1111.42</ele>
        <time>2024-10-31T12:46:03Z</time>
      </trkpt>
      <trkpt lat="44.85955" lon="3.49155">
        <ele>1108.54</ele>
        <time>2024-10-31T12:46:17Z</time>
      </trkpt>
      <trkpt lat="44.85964" lon="3.49167">
        <ele>1102.77</ele>
        <time>2024-10-31T12:46:40Z</time>
      </trkpt>
      <trkpt lat="44.85964" lon="3.49162">
        <ele>1101.81</ele>
        <time>2024-10-31T12:47:07Z</time>
      </trkpt>
      <trkpt lat="44.8597" lon="3.49167">
        <ele>1102.77</ele>
        <time>2024-10-31T12:47:30Z</time>
      </trkpt>
      <trkpt lat="44.85976" lon="3.49171">
        <ele>1108.54</ele>
        <time>2024-10-31T12:47:46Z</time>
      </trkpt>
      <trkpt lat="44.85982" lon="3.49179">
        <ele>1113.82</ele>
        <time>2024-10-31T12:48:13Z</time>
      </trkpt>
      <trkpt lat="44.85986" lon="3.49183">
        <ele>1115.27</ele>
        <time>2024-10-31T12:48:20Z</time>
      </trkpt>
      <trkpt lat="44.85998" lon="3.492">
        <ele>1116.23</ele>
        <time>2024-10-31T12:48:37Z</time>
      </trkpt>
      <trkpt lat="44.8602" lon="3.49222">
        <ele>1117.67</ele>
        <time>2024-10-31T12:48:57Z</time>
      </trkpt>
      <trkpt lat="44.86045" lon="3.4924">
        <ele>1123.44</ele>
        <time>2024-10-31T12:49:18Z</time>
      </trkpt>
      <trkpt lat="44.86062" lon="3.49256">
        <ele>1126.32</ele>
        <time>2024-10-31T12:49:37Z</time>
      </trkpt>
      <trkpt lat="44.86075" lon="3.49278">
        <ele>1126.8</ele>
        <time>2024-10-31T12:49:54Z</time>
      </trkpt>
      <trkpt lat="44.86088" lon="3.49313">
        <ele>1127.76</ele>
        <time>2024-10-31T12:50:16Z</time>
      </trkpt>
      <trkpt lat="44.86104" lon="3.49338">
        <ele>1127.28</ele>
        <time>2024-10-31T12:50:34Z</time>
      </trkpt>
      <trkpt lat="44.86126" lon="3.49366">
        <ele>1125.84</ele>
        <time>2024-10-31T12:50:54Z</time>
      </trkpt>
      <trkpt lat="44.86145" lon="3.49381">
        <ele>1125.84</ele>
        <time>2024-10-31T12:51:10Z</time>
      </trkpt>
      <trkpt lat="44.86163" lon="3.49399">
        <ele>1125.36</ele>
        <time>2024-10-31T12:51:27Z</time>
      </trkpt>
      <trkpt lat="44.8618" lon="3.49418">
        <ele>1124.88</ele>
        <time>2024-10-31T12:51:44Z</time>
      </trkpt>
      <trkpt lat="44.86195" lon="3.49441">
        <ele>1124.88</ele>
        <time>2024-10-31T12:52:02Z</time>
      </trkpt>
      <trkpt lat="44.86209" lon="3.49476">
        <ele>1124.88</ele>
        <time>2024-10-31T12:52:24Z</time>
      </trkpt>
      <trkpt lat="44.86212" lon="3.49483">
        <ele>1124.88</ele>
        <time>2024-10-31T12:52:29Z</time>
      </trkpt>
      <trkpt lat="44.86231" lon="3.495">
        <ele>1124.4</ele>
        <time>2024-10-31T12:52:48Z</time>
      </trkpt>
      <trkpt lat="44.86242" lon="3.49505">
        <ele>1123.92</ele>
        <time>2024-10-31T12:53:06Z</time>
      </trkpt>
      <trkpt lat="44.86249" lon="3.49504">
        <ele>1122.96</ele>
        <time>2024-10-31T12:53:23Z</time>
      </trkpt>
      <trkpt lat="44.86252" lon="3.49499">
        <ele>1121.03</ele>
        <time>2024-10-31T12:53:46Z</time>
      </trkpt>
      <trkpt lat="44.86252" lon="3.49502">
        <ele>1120.07</ele>
        <time>2024-10-31T12:54:09Z</time>
      </trkpt>
      <trkpt lat="44.86265" lon="3.4951">
        <ele>1121.03</ele>
        <time>2024-10-31T12:54:25Z</time>
      </trkpt>
      <trkpt lat="44.86285" lon="3.49517">
        <ele>1118.63</ele>
        <time>2024-10-31T12:54:44Z</time>
      </trkpt>
      <trkpt lat="44.86304" lon="3.4952">
        <ele>1119.11</ele>
        <time>2024-10-31T12:55:00Z</time>
      </trkpt>
      <trkpt lat="44.86328" lon="3.49519">
        <ele>1118.63</ele>
        <time>2024-10-31T12:55:19Z</time>
      </trkpt>
      <trkpt lat="44.86349" lon="3.49522">
        <ele>1119.59</ele>
        <time>2024-10-31T12:55:37Z</time>
      </trkpt>
      <trkpt lat="44.86366" lon="3.4953">
        <ele>1122</ele>
        <time>2024-10-31T12:55:53Z</time>
      </trkpt>
      <trkpt lat="44.86384" lon="3.49542">
        <ele>1125.36</ele>
        <time>2024-10-31T12:56:12Z</time>
      </trkpt>
      <trkpt lat="44.86399" lon="3.49558">
        <ele>1129.69</ele>
        <time>2024-10-31T12:56:32Z</time>
      </trkpt>
      <trkpt lat="44.86414" lon="3.49576">
        <ele>1134.01</ele>
        <time>2024-10-31T12:56:50Z</time>
      </trkpt>
      <trkpt lat="44.86427" lon="3.49594">
        <ele>1137.38</ele>
        <time>2024-10-31T12:57:08Z</time>
      </trkpt>
      <trkpt lat="44.86429" lon="3.49596">
        <ele>1137.86</ele>
        <time>2024-10-31T12:57:10Z</time>
      </trkpt>
      <trkpt lat="44.86445" lon="3.49618">
        <ele>1141.22</ele>
        <time>2024-10-31T12:57:29Z</time>
      </trkpt>
      <trkpt lat="44.86459" lon="3.49644">
        <ele>1143.14</ele>
        <time>2024-10-31T12:57:48Z</time>
      </trkpt>
      <trkpt lat="44.86474" lon="3.4967">
        <ele>1145.07</ele>
        <time>2024-10-31T12:58:08Z</time>
      </trkpt>
      <trkpt lat="44.86489" lon="3.49694">
        <ele>1146.03</ele>
        <time>2024-10-31T12:58:26Z</time>
      </trkpt>
      <trkpt lat="44.86507" lon="3.49716">
        <ele>1147.95</ele>
        <time>2024-10-31T12:58:44Z</time>
      </trkpt>
      <trkpt lat="44.86522" lon="3.49737">
        <ele>1149.39</ele>
        <time>2024-10-31T12:59:01Z</time>
      </trkpt>
      <trkpt lat="44.86539" lon="3.4976">
        <ele>1149.87</ele>
        <time>2024-10-31T12:59:20Z</time>
      </trkpt>
      <trkpt lat="44.86553" lon="3.49782">
        <ele>1152.76</ele>
        <time>2024-10-31T12:59:37Z</time>
      </trkpt>
      <trkpt lat="44.86567" lon="3.49806">
        <ele>1155.64</ele>
        <time>2024-10-31T12:59:56Z</time>
      </trkpt>
      <trkpt lat="44.86579" lon="3.49829">
        <ele>1156.12</ele>
        <time>2024-10-31T13:00:13Z</time>
      </trkpt>
      <trkpt lat="44.86583" lon="3.49834">
        <ele>1156.12</ele>
        <time>2024-10-31T13:00:17Z</time>
      </trkpt>
      <trkpt lat="44.86583" lon="3.49835">
        <ele>1156.12</ele>
        <time>2024-10-31T13:00:18Z</time>
      </trkpt>
      <trkpt lat="44.86597" lon="3.49855">
        <ele>1156.12</ele>
        <time>2024-10-31T13:00:35Z</time>
      </trkpt>
      <trkpt lat="44.86601" lon="3.49857">
        <ele>1156.12</ele>
        <time>2024-10-31T13:00:52Z</time>
      </trkpt>
      <trkpt lat="44.86609" lon="3.4987">
        <ele>1155.64</ele>
        <time>2024-10-31T13:01:07Z</time>
      </trkpt>
      <trkpt lat="44.86624" lon="3.49892">
        <ele>1157.08</ele>
        <time>2024-10-31T13:01:25Z</time>
      </trkpt>
      <trkpt lat="44.86638" lon="3.49921">
        <ele>1158.05</ele>
        <time>2024-10-31T13:01:44Z</time>
      </trkpt>
      <trkpt lat="44.86652" lon="3.49953">
        <ele>1159.01</ele>
        <time>2024-10-31T13:02:03Z</time>
      </trkpt>
      <trkpt lat="44.86662" lon="3.49981">
        <ele>1160.45</ele>
        <time>2024-10-31T13:02:20Z</time>
      </trkpt>
      <trkpt lat="44.86674" lon="3.50016">
        <ele>1160.45</ele>
        <time>2024-10-31T13:02:39Z</time>
      </trkpt>
      <trkpt lat="44.86683" lon="3.50047">
        <ele>1159.49</ele>
        <time>2024-10-31T13:02:56Z</time>
      </trkpt>
      <trkpt lat="44.86692" lon="3.50077">
        <ele>1158.05</ele>
        <time>2024-10-31T13:03:12Z</time>
      </trkpt>
      <trkpt lat="44.86702" lon="3.5011">
        <ele>1158.05</ele>
        <time>2024-10-31T13:03:31Z</time>
      </trkpt>
      <trkpt lat="44.86715" lon="3.5014">
        <ele>1159.97</ele>
        <time>2024-10-31T13:03:49Z</time>
      </trkpt>
      <trkpt lat="44.86729" lon="3.50163">
        <ele>1162.37</ele>
        <time>2024-10-31T13:04:06Z</time>
      </trkpt>
      <trkpt lat="44.86751" lon="3.50178">
        <ele>1165.74</ele>
        <time>2024-10-31T13:04:25Z</time>
      </trkpt>
      <trkpt lat="44.8677" lon="3.50196">
        <ele>1168.14</ele>
        <time>2024-10-31T13:04:42Z</time>
      </trkpt>
      <trkpt lat="44.86786" lon="3.50217">
        <ele>1171.02</ele>
        <time>2024-10-31T13:04:58Z</time>
      </trkpt>
      <trkpt lat="44.868" lon="3.50239">
        <ele>1171.5</ele>
        <time>2024-10-31T13:05:14Z</time>
      </trkpt>
      <trkpt lat="44.86811" lon="3.50263">
        <ele>1172.95</ele>
        <time>2024-10-31T13:05:30Z</time>
      </trkpt>
      <trkpt lat="44.86822" lon="3.50289">
        <ele>1173.91</ele>
        <time>2024-10-31T13:05:48Z</time>
      </trkpt>
      <trkpt lat="44.86829" lon="3.50312">
        <ele>1175.35</ele>
        <time>2024-10-31T13:06:04Z</time>
      </trkpt>
      <trkpt lat="44.86835" lon="3.50342">
        <ele>1177.27</ele>
        <time>2024-10-31T13:06:22Z</time>
      </trkpt>
      <trkpt lat="44.86839" lon="3.50372">
        <ele>1181.6</ele>
        <time>2024-10-31T13:06:35Z</time>
      </trkpt>
      <trkpt lat="44.86841" lon="3.5039">
        <ele>1183.52</ele>
        <time>2024-10-31T13:06:45Z</time>
      </trkpt>
      <trkpt lat="44.86846" lon="3.50408">
        <ele>1184</ele>
        <time>2024-10-31T13:06:56Z</time>
      </trkpt>
      <trkpt lat="44.86855" lon="3.5043">
        <ele>1185.44</ele>
        <time>2024-10-31T13:07:10Z</time>
      </trkpt>
      <trkpt lat="44.86861" lon="3.50442">
        <ele>1184.48</ele>
        <time>2024-10-31T13:07:19Z</time>
      </trkpt>
      <trkpt lat="44.86868" lon="3.50457">
        <ele>1183.52</ele>
        <time>2024-10-31T13:07:29Z</time>
      </trkpt>
      <trkpt lat="44.86876" lon="3.50477">
        <ele>1182.08</ele>
        <time>2024-10-31T13:07:40Z</time>
      </trkpt>
      <trkpt lat="44.86881" lon="3.50492">
        <ele>1180.64</ele>
        <time>2024-10-31T13:07:50Z</time>
      </trkpt>
      <trkpt lat="44.86887" lon="3.5051">
        <ele>1182.08</ele>
        <time>2024-10-31T13:08:02Z</time>
      </trkpt>
      <trkpt lat="44.86888" lon="3.50512">
        <ele>1182.56</ele>
        <time>2024-10-31T13:08:03Z</time>
      </trkpt>
      <trkpt lat="44.86895" lon="3.50531">
        <ele>1184</ele>
        <time>2024-10-31T13:08:14Z</time>
      </trkpt>
      <trkpt lat="44.86904" lon="3.50553">
        <ele>1184.96</ele>
        <time>2024-10-31T13:08:28Z</time>
      </trkpt>
      <trkpt lat="44.86913" lon="3.50569">
        <ele>1184.48</ele>
        <time>2024-10-31T13:08:40Z</time>
      </trkpt>
      <trkpt lat="44.86919" lon="3.50586">
        <ele>1184</ele>
        <time>2024-10-31T13:08:51Z</time>
      </trkpt>
      <trkpt lat="44.86925" lon="3.50603">
        <ele>1182.08</ele>
        <time>2024-10-31T13:09:01Z</time>
      </trkpt>
      <trkpt lat="44.8693" lon="3.50615">
        <ele>1181.12</ele>
        <time>2024-10-31T13:09:12Z</time>
      </trkpt>
      <trkpt lat="44.86934" lon="3.5063">
        <ele>1179.67</ele>
        <time>2024-10-31T13:09:24Z</time>
      </trkpt>
      <trkpt lat="44.86936" lon="3.50634">
        <ele>1179.67</ele>
        <time>2024-10-31T13:09:27Z</time>
      </trkpt>
      <trkpt lat="44.86937" lon="3.50636">
        <ele>1179.67</ele>
        <time>2024-10-31T13:09:28Z</time>
      </trkpt>
      <trkpt lat="44.86938" lon="3.50639">
        <ele>1179.67</ele>
        <time>2024-10-31T13:09:29Z</time>
      </trkpt>
      <trkpt lat="44.86938" lon="3.50642">
        <ele>1179.67</ele>
        <time>2024-10-31T13:09:30Z</time>
      </trkpt>
      <trkpt lat="44.86939" lon="3.50644">
        <ele>1179.67</ele>
        <time>2024-10-31T13:09:31Z</time>
      </trkpt>
      <trkpt lat="44.86944" lon="3.50665">
        <ele>1178.23</ele>
        <time>2024-10-31T13:09:42Z</time>
      </trkpt>
      <trkpt lat="44.86949" lon="3.50687">
        <ele>1177.75</ele>
        <time>2024-10-31T13:09:54Z</time>
      </trkpt>
      <trkpt lat="44.86954" lon="3.50705">
        <ele>1176.79</ele>
        <time>2024-10-31T13:10:05Z</time>
      </trkpt>
      <trkpt lat="44.86958" lon="3.50724">
        <ele>1176.31</ele>
        <time>2024-10-31T13:10:16Z</time>
      </trkpt>
      <trkpt lat="44.86964" lon="3.50741">
        <ele>1176.31</ele>
        <time>2024-10-31T13:10:25Z</time>
      </trkpt>
      <trkpt lat="44.86973" lon="3.50761">
        <ele>1177.75</ele>
        <time>2024-10-31T13:10:39Z</time>
      </trkpt>
      <trkpt lat="44.86981" lon="3.50783">
        <ele>1178.71</ele>
        <time>2024-10-31T13:10:51Z</time>
      </trkpt>
      <trkpt lat="44.86988" lon="3.508">
        <ele>1179.67</ele>
        <time>2024-10-31T13:11:02Z</time>
      </trkpt>
      <trkpt lat="44.86995" lon="3.50821">
        <ele>1178.71</ele>
        <time>2024-10-31T13:11:14Z</time>
      </trkpt>
      <trkpt lat="44.87" lon="3.50842">
        <ele>1179.19</ele>
        <time>2024-10-31T13:11:25Z</time>
      </trkpt>
      <trkpt lat="44.87006" lon="3.50859">
        <ele>1180.64</ele>
        <time>2024-10-31T13:11:36Z</time>
      </trkpt>
      <trkpt lat="44.87012" lon="3.50879">
        <ele>1181.12</ele>
        <time>2024-10-31T13:11:47Z</time>
      </trkpt>
      <trkpt lat="44.87017" lon="3.50893">
        <ele>1182.08</ele>
        <time>2024-10-31T13:11:56Z</time>
      </trkpt>
      <trkpt lat="44.87023" lon="3.50909">
        <ele>1183.52</ele>
        <time>2024-10-31T13:12:07Z</time>
      </trkpt>
      <trkpt lat="44.87031" lon="3.50923">
        <ele>1184.48</ele>
        <time>2024-10-31T13:12:16Z</time>
      </trkpt>
      <trkpt lat="44.87042" lon="3.5094">
        <ele>1184.96</ele>
        <time>2024-10-31T13:12:27Z</time>
      </trkpt>
      <trkpt lat="44.87048" lon="3.50952">
        <ele>1185.92</ele>
        <time>2024-10-31T13:12:36Z</time>
      </trkpt>
      <trkpt lat="44.87049" lon="3.50957">
        <ele>1186.88</ele>
        <time>2024-10-31T13:12:40Z</time>
      </trkpt>
      <trkpt lat="44.87048" lon="3.50959">
        <ele>1187.37</ele>
        <time>2024-10-31T13:12:41Z</time>
      </trkpt>
      <trkpt lat="44.87045" lon="3.50963">
        <ele>1188.33</ele>
        <time>2024-10-31T13:12:46Z</time>
      </trkpt>
      <trkpt lat="44.87043" lon="3.50964">
        <ele>1188.33</ele>
        <time>2024-10-31T13:12:47Z</time>
      </trkpt>
      <trkpt lat="44.87034" lon="3.50972">
        <ele>1190.73</ele>
        <time>2024-10-31T13:12:58Z</time>
      </trkpt>
      <trkpt lat="44.87023" lon="3.50976">
        <ele>1192.65</ele>
        <time>2024-10-31T13:13:09Z</time>
      </trkpt>
      <trkpt lat="44.87011" lon="3.50979">
        <ele>1195.06</ele>
        <time>2024-10-31T13:13:20Z</time>
      </trkpt>
      <trkpt lat="44.87004" lon="3.50979">
        <ele>1196.5</ele>
        <time>2024-10-31T13:13:26Z</time>
      </trkpt>
      <trkpt lat="44.86991" lon="3.50981">
        <ele>1197.94</ele>
        <time>2024-10-31T13:13:37Z</time>
      </trkpt>
      <trkpt lat="44.8698" lon="3.50982">
        <ele>1201.3</ele>
        <time>2024-10-31T13:13:49Z</time>
      </trkpt>
      <trkpt lat="44.86962" lon="3.50979">
        <ele>1202.27</ele>
        <time>2024-10-31T13:14:01Z</time>
      </trkpt>
      <trkpt lat="44.86944" lon="3.50974">
        <ele>1201.79</ele>
        <time>2024-10-31T13:14:14Z</time>
      </trkpt>
      <trkpt lat="44.86931" lon="3.50969">
        <ele>1200.34</ele>
        <time>2024-10-31T13:14:26Z</time>
      </trkpt>
      <trkpt lat="44.86916" lon="3.50966">
        <ele>1200.34</ele>
        <time>2024-10-31T13:14:39Z</time>
      </trkpt>
      <trkpt lat="44.86894" lon="3.50952">
        <ele>1197.94</ele>
        <time>2024-10-31T13:14:59Z</time>
      </trkpt>
      <trkpt lat="44.86875" lon="3.5094">
        <ele>1195.54</ele>
        <time>2024-10-31T13:15:18Z</time>
      </trkpt>
      <trkpt lat="44.8686" lon="3.50914">
        <ele>1196.02</ele>
        <time>2024-10-31T13:15:40Z</time>
      </trkpt>
      <trkpt lat="44.86842" lon="3.50882">
        <ele>1199.38</ele>
        <time>2024-10-31T13:16:01Z</time>
      </trkpt>
      <trkpt lat="44.86828" lon="3.50849">
        <ele>1199.86</ele>
        <time>2024-10-31T13:16:24Z</time>
      </trkpt>
      <trkpt lat="44.86818" lon="3.50812">
        <ele>1201.79</ele>
        <time>2024-10-31T13:16:46Z</time>
      </trkpt>
      <trkpt lat="44.86802" lon="3.50789">
        <ele>1203.71</ele>
        <time>2024-10-31T13:17:06Z</time>
      </trkpt>
      <trkpt lat="44.8678" lon="3.5076">
        <ele>1203.71</ele>
        <time>2024-10-31T13:17:28Z</time>
      </trkpt>
      <trkpt lat="44.86757" lon="3.50744">
        <ele>1202.75</ele>
        <time>2024-10-31T13:17:46Z</time>
      </trkpt>
      <trkpt lat="44.86738" lon="3.50728">
        <ele>1201.79</ele>
        <time>2024-10-31T13:18:02Z</time>
      </trkpt>
      <trkpt lat="44.86718" lon="3.50718">
        <ele>1200.82</ele>
        <time>2024-10-31T13:18:18Z</time>
      </trkpt>
      <trkpt lat="44.86696" lon="3.50705">
        <ele>1199.38</ele>
        <time>2024-10-31T13:18:36Z</time>
      </trkpt>
      <trkpt lat="44.86681" lon="3.50702">
        <ele>1197.94</ele>
        <time>2024-10-31T13:18:56Z</time>
      </trkpt>
      <trkpt lat="44.86666" lon="3.50692">
        <ele>1196.02</ele>
        <time>2024-10-31T13:19:12Z</time>
      </trkpt>
      <trkpt lat="44.86643" lon="3.50677">
        <ele>1197.46</ele>
        <time>2024-10-31T13:19:32Z</time>
      </trkpt>
      <trkpt lat="44.86619" lon="3.50669">
        <ele>1199.38</ele>
        <time>2024-10-31T13:19:50Z</time>
      </trkpt>
      <trkpt lat="44.86597" lon="3.50664">
        <ele>1201.3</ele>
        <time>2024-10-31T13:20:09Z</time>
      </trkpt>
      <trkpt lat="44.86574" lon="3.50666">
        <ele>1203.71</ele>
        <time>2024-10-31T13:20:27Z</time>
      </trkpt>
      <trkpt lat="44.86549" lon="3.50663">
        <ele>1209</ele>
        <time>2024-10-31T13:20:47Z</time>
      </trkpt>
      <trkpt lat="44.86516" lon="3.50653">
        <ele>1214.76</ele>
        <time>2024-10-31T13:21:08Z</time>
      </trkpt>
      <trkpt lat="44.86491" lon="3.50649">
        <ele>1218.61</ele>
        <time>2024-10-31T13:21:28Z</time>
      </trkpt>
      <trkpt lat="44.86462" lon="3.50651">
        <ele>1220.53</ele>
        <time>2024-10-31T13:21:46Z</time>
      </trkpt>
      <trkpt lat="44.86441" lon="3.50666">
        <ele>1222.93</ele>
        <time>2024-10-31T13:22:02Z</time>
      </trkpt>
      <trkpt lat="44.86422" lon="3.50685">
        <ele>1226.3</ele>
        <time>2024-10-31T13:22:21Z</time>
      </trkpt>
      <trkpt lat="44.86409" lon="3.50707">
        <ele>1227.26</ele>
        <time>2024-10-31T13:22:39Z</time>
      </trkpt>
      <trkpt lat="44.864" lon="3.50719">
        <ele>1228.7</ele>
        <time>2024-10-31T13:22:53Z</time>
      </trkpt>
      <trkpt lat="44.86382" lon="3.50738">
        <ele>1233.51</ele>
        <time>2024-10-31T13:23:12Z</time>
      </trkpt>
      <trkpt lat="44.86368" lon="3.50766">
        <ele>1238.32</ele>
        <time>2024-10-31T13:23:29Z</time>
      </trkpt>
      <trkpt lat="44.86359" lon="3.50796">
        <ele>1240.24</ele>
        <time>2024-10-31T13:23:46Z</time>
      </trkpt>
      <trkpt lat="44.8635" lon="3.50822">
        <ele>1241.2</ele>
        <time>2024-10-31T13:24:02Z</time>
      </trkpt>
      <trkpt lat="44.86341" lon="3.50843">
        <ele>1242.64</ele>
        <time>2024-10-31T13:24:16Z</time>
      </trkpt>
      <trkpt lat="44.86325" lon="3.50873">
        <ele>1244.56</ele>
        <time>2024-10-31T13:24:34Z</time>
      </trkpt>
      <trkpt lat="44.86311" lon="3.50905">
        <ele>1246.01</ele>
        <time>2024-10-31T13:24:54Z</time>
      </trkpt>
      <trkpt lat="44.86297" lon="3.50931">
        <ele>1247.45</ele>
        <time>2024-10-31T13:25:11Z</time>
      </trkpt>
      <trkpt lat="44.86287" lon="3.50952">
        <ele>1246.97</ele>
        <time>2024-10-31T13:25:29Z</time>
      </trkpt>
      <trkpt lat="44.86271" lon="3.50968">
        <ele>1247.93</ele>
        <time>2024-10-31T13:25:48Z</time>
      </trkpt>
      <trkpt lat="44.86269" lon="3.50982">
        <ele>1247.45</ele>
        <time>2024-10-31T13:26:08Z</time>
      </trkpt>
      <trkpt lat="44.86267" lon="3.50994">
        <ele>1239.76</ele>
        <time>2024-10-31T13:26:28Z</time>
      </trkpt>
      <trkpt lat="44.86267" lon="3.50997">
        <ele>1235.91</ele>
        <time>2024-10-31T13:26:48Z</time>
      </trkpt>
      <trkpt lat="44.86254" lon="3.51004">
        <ele>1234.95</ele>
        <time>2024-10-31T13:27:08Z</time>
      </trkpt>
      <trkpt lat="44.86238" lon="3.51014">
        <ele>1234.95</ele>
        <time>2024-10-31T13:27:26Z</time>
      </trkpt>
      <trkpt lat="44.86218" lon="3.51034">
        <ele>1234.95</ele>
        <time>2024-10-31T13:27:47Z</time>
      </trkpt>
      <trkpt lat="44.86202" lon="3.51053">
        <ele>1232.07</ele>
        <time>2024-10-31T13:28:06Z</time>
      </trkpt>
      <trkpt lat="44.86186" lon="3.51064">
        <ele>1229.66</ele>
        <time>2024-10-31T13:28:23Z</time>
      </trkpt>
      <trkpt lat="44.86164" lon="3.51082">
        <ele>1229.18</ele>
        <time>2024-10-31T13:28:42Z</time>
      </trkpt>
      <trkpt lat="44.86148" lon="3.51098">
        <ele>1229.66</ele>
        <time>2024-10-31T13:28:58Z</time>
      </trkpt>
      <trkpt lat="44.86138" lon="3.51108">
        <ele>1228.7</ele>
        <time>2024-10-31T13:29:07Z</time>
      </trkpt>
      <trkpt lat="44.86116" lon="3.51119">
        <ele>1228.22</ele>
        <time>2024-10-31T13:29:24Z</time>
      </trkpt>
      <trkpt lat="44.86091" lon="3.5113">
        <ele>1232.55</ele>
        <time>2024-10-31T13:29:44Z</time>
      </trkpt>
      <trkpt lat="44.86069" lon="3.51138">
        <ele>1233.99</ele>
        <time>2024-10-31T13:30:02Z</time>
      </trkpt>
      <trkpt lat="44.86042" lon="3.51143">
        <ele>1235.43</ele>
        <time>2024-10-31T13:30:22Z</time>
      </trkpt>
      <trkpt lat="44.86018" lon="3.51154">
        <ele>1238.32</ele>
        <time>2024-10-31T13:30:41Z</time>
      </trkpt>
      <trkpt lat="44.85999" lon="3.51167">
        <ele>1241.2</ele>
        <time>2024-10-31T13:30:58Z</time>
      </trkpt>
      <trkpt lat="44.85986" lon="3.51184">
        <ele>1241.2</ele>
        <time>2024-10-31T13:31:11Z</time>
      </trkpt>
      <trkpt lat="44.85978" lon="3.51192">
        <ele>1244.56</ele>
        <time>2024-10-31T13:31:15Z</time>
      </trkpt>
      <trkpt lat="44.85977" lon="3.51194">
        <ele>1245.04</ele>
        <time>2024-10-31T13:31:16Z</time>
      </trkpt>
      <trkpt lat="44.85963" lon="3.512">
        <ele>1244.56</ele>
        <time>2024-10-31T13:31:29Z</time>
      </trkpt>
      <trkpt lat="44.85955" lon="3.51198">
        <ele>1243.6</ele>
        <time>2024-10-31T13:31:49Z</time>
      </trkpt>
      <trkpt lat="44.85935" lon="3.51213">
        <ele>1242.64</ele>
        <time>2024-10-31T13:32:06Z</time>
      </trkpt>
      <trkpt lat="44.85923" lon="3.51225">
        <ele>1242.64</ele>
        <time>2024-10-31T13:32:17Z</time>
      </trkpt>
      <trkpt lat="44.85924" lon="3.51233">
        <ele>1243.6</ele>
        <time>2024-10-31T13:32:18Z</time>
      </trkpt>
      <trkpt lat="44.85918" lon="3.51254">
        <ele>1244.08</ele>
        <time>2024-10-31T13:32:29Z</time>
      </trkpt>
      <trkpt lat="44.85907" lon="3.51277">
        <ele>1241.2</ele>
        <time>2024-10-31T13:32:41Z</time>
      </trkpt>
      <trkpt lat="44.85896" lon="3.51293">
        <ele>1238.8</ele>
        <time>2024-10-31T13:32:53Z</time>
      </trkpt>
      <trkpt lat="44.85895" lon="3.51294">
        <ele>1238.32</ele>
        <time>2024-10-31T13:32:54Z</time>
      </trkpt>
      <trkpt lat="44.85893" lon="3.51295">
        <ele>1237.83</ele>
        <time>2024-10-31T13:32:55Z</time>
      </trkpt>
      <trkpt lat="44.85891" lon="3.51298">
        <ele>1237.83</ele>
        <time>2024-10-31T13:32:56Z</time>
      </trkpt>
      <trkpt lat="44.8589" lon="3.513">
        <ele>1237.35</ele>
        <time>2024-10-31T13:32:57Z</time>
      </trkpt>
      <trkpt lat="44.85888" lon="3.51302">
        <ele>1237.35</ele>
        <time>2024-10-31T13:32:58Z</time>
      </trkpt>
      <trkpt lat="44.85888" lon="3.51303">
        <ele>1237.35</ele>
        <time>2024-10-31T13:32:59Z</time>
      </trkpt>
      <trkpt lat="44.85879" lon="3.51327">
        <ele>1236.39</ele>
        <time>2024-10-31T13:33:11Z</time>
      </trkpt>
      <trkpt lat="44.85874" lon="3.51345">
        <ele>1236.87</ele>
        <time>2024-10-31T13:33:22Z</time>
      </trkpt>
      <trkpt lat="44.85865" lon="3.51378">
        <ele>1234.47</ele>
        <time>2024-10-31T13:33:41Z</time>
      </trkpt>
      <trkpt lat="44.85857" lon="3.51406">
        <ele>1232.55</ele>
        <time>2024-10-31T13:33:57Z</time>
      </trkpt>
      <trkpt lat="44.8585" lon="3.51436">
        <ele>1230.14</ele>
        <time>2024-10-31T13:34:15Z</time>
      </trkpt>
      <trkpt lat="44.85844" lon="3.5146">
        <ele>1226.78</ele>
        <time>2024-10-31T13:34:30Z</time>
      </trkpt>
      <trkpt lat="44.85838" lon="3.51485">
        <ele>1221.01</ele>
        <time>2024-10-31T13:34:45Z</time>
      </trkpt>
      <trkpt lat="44.85827" lon="3.51518">
        <ele>1214.76</ele>
        <time>2024-10-31T13:35:05Z</time>
      </trkpt>
      <trkpt lat="44.85815" lon="3.51551">
        <ele>1216.21</ele>
        <time>2024-10-31T13:35:25Z</time>
      </trkpt>
      <trkpt lat="44.85797" lon="3.51574">
        <ele>1218.61</ele>
        <time>2024-10-31T13:35:46Z</time>
      </trkpt>
      <trkpt lat="44.85777" lon="3.51586">
        <ele>1224.86</ele>
        <time>2024-10-31T13:36:05Z</time>
      </trkpt>
      <trkpt lat="44.85751" lon="3.51586">
        <ele>1230.62</ele>
        <time>2024-10-31T13:36:28Z</time>
      </trkpt>
      <trkpt lat="44.8573" lon="3.51581">
        <ele>1232.07</ele>
        <time>2024-10-31T13:36:47Z</time>
      </trkpt>
      <trkpt lat="44.8572" lon="3.51581">
        <ele>1229.66</ele>
        <time>2024-10-31T13:37:04Z</time>
      </trkpt>
      <trkpt lat="44.8569" lon="3.51574">
        <ele>1226.78</ele>
        <time>2024-10-31T13:37:26Z</time>
      </trkpt>
      <trkpt lat="44.85668" lon="3.51569">
        <ele>1221.97</ele>
        <time>2024-10-31T13:37:44Z</time>
      </trkpt>
      <trkpt lat="44.85644" lon="3.51562">
        <ele>1217.65</ele>
        <time>2024-10-31T13:38:06Z</time>
      </trkpt>
      <trkpt lat="44.85613" lon="3.51555">
        <ele>1216.69</ele>
        <time>2024-10-31T13:38:27Z</time>
      </trkpt>
      <trkpt lat="44.85584" lon="3.51549">
        <ele>1216.21</ele>
        <time>2024-10-31T13:38:49Z</time>
      </trkpt>
      <trkpt lat="44.85562" lon="3.51546">
        <ele>1215.24</ele>
        <time>2024-10-31T13:39:06Z</time>
      </trkpt>
      <trkpt lat="44.85535" lon="3.51537">
        <ele>1213.8</ele>
        <time>2024-10-31T13:39:26Z</time>
      </trkpt>
      <trkpt lat="44.85514" lon="3.51533">
        <ele>1215.24</ele>
        <time>2024-10-31T13:39:45Z</time>
      </trkpt>
      <trkpt lat="44.85483" lon="3.51536">
        <ele>1221.49</ele>
        <time>2024-10-31T13:40:08Z</time>
      </trkpt>
      <trkpt lat="44.8548" lon="3.51537">
        <ele>1222.45</ele>
        <time>2024-10-31T13:40:10Z</time>
      </trkpt>
      <trkpt lat="44.85478" lon="3.51538">
        <ele>1222.93</ele>
        <time>2024-10-31T13:40:11Z</time>
      </trkpt>
      <trkpt lat="44.85454" lon="3.51549">
        <ele>1230.14</ele>
        <time>2024-10-31T13:40:30Z</time>
      </trkpt>
      <trkpt lat="44.85428" lon="3.51565">
        <ele>1236.39</ele>
        <time>2024-10-31T13:40:49Z</time>
      </trkpt>
      <trkpt lat="44.85408" lon="3.51586">
        <ele>1243.6</ele>
        <time>2024-10-31T13:41:10Z</time>
      </trkpt>
      <trkpt lat="44.85385" lon="3.51612">
        <ele>1248.41</ele>
        <time>2024-10-31T13:41:32Z</time>
      </trkpt>
      <trkpt lat="44.85369" lon="3.51633">
        <ele>1251.77</ele>
        <time>2024-10-31T13:41:50Z</time>
      </trkpt>
      <trkpt lat="44.85349" lon="3.51656">
        <ele>1254.66</ele>
        <time>2024-10-31T13:42:10Z</time>
      </trkpt>
      <trkpt lat="44.85348" lon="3.51658">
        <ele>1255.14</ele>
        <time>2024-10-31T13:42:11Z</time>
      </trkpt>
      <trkpt lat="44.85329" lon="3.51675">
        <ele>1259.46</ele>
        <time>2024-10-31T13:42:28Z</time>
      </trkpt>
      <trkpt lat="44.85306" lon="3.5169">
        <ele>1262.83</ele>
        <time>2024-10-31T13:42:45Z</time>
      </trkpt>
      <trkpt lat="44.85286" lon="3.51708">
        <ele>1264.27</ele>
        <time>2024-10-31T13:43:04Z</time>
      </trkpt>
      <trkpt lat="44.85272" lon="3.51735">
        <ele>1257.06</ele>
        <time>2024-10-31T13:43:23Z</time>
      </trkpt>
      <trkpt lat="44.85244" lon="3.51754">
        <ele>1251.77</ele>
        <time>2024-10-31T13:43:44Z</time>
      </trkpt>
      <trkpt lat="44.85207" lon="3.51773">
        <ele>1248.89</ele>
        <time>2024-10-31T13:44:04Z</time>
      </trkpt>
      <trkpt lat="44.85185" lon="3.51793">
        <ele>1244.08</ele>
        <time>2024-10-31T13:44:21Z</time>
      </trkpt>
      <trkpt lat="44.8518" lon="3.51798">
        <ele>1242.16</ele>
        <time>2024-10-31T13:44:25Z</time>
      </trkpt>
      <trkpt lat="44.85178" lon="3.518">
        <ele>1241.68</ele>
        <time>2024-10-31T13:44:26Z</time>
      </trkpt>
      <trkpt lat="44.85177" lon="3.51802">
        <ele>1240.72</ele>
        <time>2024-10-31T13:44:27Z</time>
      </trkpt>
      <trkpt lat="44.85171" lon="3.51807">
        <ele>1238.8</ele>
        <time>2024-10-31T13:44:31Z</time>
      </trkpt>
      <trkpt lat="44.85168" lon="3.51809">
        <ele>1237.83</ele>
        <time>2024-10-31T13:44:34Z</time>
      </trkpt>
      <trkpt lat="44.85167" lon="3.51811">
        <ele>1237.35</ele>
        <time>2024-10-31T13:44:35Z</time>
      </trkpt>
      <trkpt lat="44.85166" lon="3.51812">
        <ele>1237.35</ele>
        <time>2024-10-31T13:44:36Z</time>
      </trkpt>
      <trkpt lat="44.85148" lon="3.51828">
        <ele>1235.91</ele>
        <time>2024-10-31T13:44:52Z</time>
      </trkpt>
      <trkpt lat="44.85129" lon="3.51844">
        <ele>1233.99</ele>
        <time>2024-10-31T13:45:09Z</time>
      </trkpt>
      <trkpt lat="44.85111" lon="3.51862">
        <ele>1233.03</ele>
        <time>2024-10-31T13:45:26Z</time>
      </trkpt>
      <trkpt lat="44.85092" lon="3.51877">
        <ele>1231.11</ele>
        <time>2024-10-31T13:45:43Z</time>
      </trkpt>
      <trkpt lat="44.85077" lon="3.51881">
        <ele>1232.55</ele>
        <time>2024-10-31T13:45:57Z</time>
      </trkpt>
      <trkpt lat="44.85074" lon="3.51881">
        <ele>1233.03</ele>
        <time>2024-10-31T13:46:00Z</time>
      </trkpt>
      <trkpt lat="44.85073" lon="3.51881">
        <ele>1233.03</ele>
        <time>2024-10-31T13:46:01Z</time>
      </trkpt>
      <trkpt lat="44.85054" lon="3.51877">
        <ele>1234.95</ele>
        <time>2024-10-31T13:46:17Z</time>
      </trkpt>
      <trkpt lat="44.85034" lon="3.5186">
        <ele>1237.35</ele>
        <time>2024-10-31T13:46:36Z</time>
      </trkpt>
      <trkpt lat="44.85019" lon="3.51836">
        <ele>1241.2</ele>
        <time>2024-10-31T13:46:54Z</time>
      </trkpt>
      <trkpt lat="44.85008" lon="3.51809">
        <ele>1245.53</ele>
        <time>2024-10-31T13:47:12Z</time>
      </trkpt>
      <trkpt lat="44.84994" lon="3.51783">
        <ele>1246.49</ele>
        <time>2024-10-31T13:47:30Z</time>
      </trkpt>
      <trkpt lat="44.84979" lon="3.51755">
        <ele>1249.37</ele>
        <time>2024-10-31T13:47:49Z</time>
      </trkpt>
      <trkpt lat="44.84965" lon="3.51727">
        <ele>1251.29</ele>
        <time>2024-10-31T13:48:08Z</time>
      </trkpt>
      <trkpt lat="44.84949" lon="3.51698">
        <ele>1253.7</ele>
        <time>2024-10-31T13:48:28Z</time>
      </trkpt>
      <trkpt lat="44.84938" lon="3.51673">
        <ele>1255.14</ele>
        <time>2024-10-31T13:48:45Z</time>
      </trkpt>
      <trkpt lat="44.84926" lon="3.51644">
        <ele>1256.58</ele>
        <time>2024-10-31T13:49:03Z</time>
      </trkpt>
      <trkpt lat="44.84913" lon="3.5162">
        <ele>1259.94</ele>
        <time>2024-10-31T13:49:18Z</time>
      </trkpt>
      <trkpt lat="44.84907" lon="3.51611">
        <ele>1260.43</ele>
        <time>2024-10-31T13:49:25Z</time>
      </trkpt>
      <trkpt lat="44.84908" lon="3.51604">
        <ele>1260.43</ele>
        <time>2024-10-31T13:49:29Z</time>
      </trkpt>
      <trkpt lat="44.84923" lon="3.51574">
        <ele>1256.58</ele>
        <time>2024-10-31T13:49:49Z</time>
      </trkpt>
      <trkpt lat="44.84934" lon="3.51543">
        <ele>1253.22</ele>
        <time>2024-10-31T13:50:08Z</time>
      </trkpt>
      <trkpt lat="44.84943" lon="3.51518">
        <ele>1251.77</ele>
        <time>2024-10-31T13:50:24Z</time>
      </trkpt>
      <trkpt lat="44.8495" lon="3.51484">
        <ele>1249.37</ele>
        <time>2024-10-31T13:50:43Z</time>
      </trkpt>
      <trkpt lat="44.8495" lon="3.51456">
        <ele>1245.53</ele>
        <time>2024-10-31T13:51:00Z</time>
      </trkpt>
      <trkpt lat="44.84948" lon="3.51429">
        <ele>1245.04</ele>
        <time>2024-10-31T13:51:17Z</time>
      </trkpt>
      <trkpt lat="44.84946" lon="3.514">
        <ele>1246.49</ele>
        <time>2024-10-31T13:51:34Z</time>
      </trkpt>
      <trkpt lat="44.84943" lon="3.51388">
        <ele>1246.01</ele>
        <time>2024-10-31T13:51:41Z</time>
      </trkpt>
      <trkpt lat="44.84942" lon="3.51384">
        <ele>1246.49</ele>
        <time>2024-10-31T13:51:43Z</time>
      </trkpt>
      <trkpt lat="44.84941" lon="3.51382">
        <ele>1246.49</ele>
        <time>2024-10-31T13:51:44Z</time>
      </trkpt>
      <trkpt lat="44.8494" lon="3.51381">
        <ele>1246.49</ele>
        <time>2024-10-31T13:51:45Z</time>
      </trkpt>
      <trkpt lat="44.84937" lon="3.5137">
        <ele>1246.01</ele>
        <time>2024-10-31T13:51:51Z</time>
      </trkpt>
      <trkpt lat="44.84937" lon="3.51369">
        <ele>1246.01</ele>
        <time>2024-10-31T13:51:52Z</time>
      </trkpt>
      <trkpt lat="44.84937" lon="3.51367">
        <ele>1246.01</ele>
        <time>2024-10-31T13:51:53Z</time>
      </trkpt>
      <trkpt lat="44.84936" lon="3.51365">
        <ele>1246.01</ele>
        <time>2024-10-31T13:51:54Z</time>
      </trkpt>
      <trkpt lat="44.84935" lon="3.51363">
        <ele>1246.01</ele>
        <time>2024-10-31T13:51:55Z</time>
      </trkpt>
      <trkpt lat="44.84935" lon="3.51362">
        <ele>1246.01</ele>
        <time>2024-10-31T13:51:56Z</time>
      </trkpt>
      <trkpt lat="44.84934" lon="3.5136">
        <ele>1246.01</ele>
        <time>2024-10-31T13:51:57Z</time>
      </trkpt>
      <trkpt lat="44.84933" lon="3.51358">
        <ele>1246.01</ele>
        <time>2024-10-31T13:51:58Z</time>
      </trkpt>
      <trkpt lat="44.84933" lon="3.51357">
        <ele>1246.01</ele>
        <time>2024-10-31T13:51:59Z</time>
      </trkpt>
      <trkpt lat="44.84924" lon="3.5133">
        <ele>1246.97</ele>
        <time>2024-10-31T13:52:15Z</time>
      </trkpt>
      <trkpt lat="44.84919" lon="3.51305">
        <ele>1247.93</ele>
        <time>2024-10-31T13:52:27Z</time>
      </trkpt>
      <trkpt lat="44.84919" lon="3.51303">
        <ele>1247.93</ele>
        <time>2024-10-31T13:52:28Z</time>
      </trkpt>
      <trkpt lat="44.84918" lon="3.51301">
        <ele>1247.93</ele>
        <time>2024-10-31T13:52:29Z</time>
      </trkpt>
      <trkpt lat="44.84918" lon="3.51299">
        <ele>1247.93</ele>
        <time>2024-10-31T13:52:30Z</time>
      </trkpt>
      <trkpt lat="44.84914" lon="3.51278">
        <ele>1246.97</ele>
        <time>2024-10-31T13:52:40Z</time>
      </trkpt>
      <trkpt lat="44.84907" lon="3.51259">
        <ele>1247.45</ele>
        <time>2024-10-31T13:52:51Z</time>
      </trkpt>
      <trkpt lat="44.849" lon="3.51243">
        <ele>1247.93</ele>
        <time>2024-10-31T13:53:02Z</time>
      </trkpt>
      <trkpt lat="44.84892" lon="3.51225">
        <ele>1247.93</ele>
        <time>2024-10-31T13:53:13Z</time>
      </trkpt>
      <trkpt lat="44.84886" lon="3.51214">
        <ele>1246.97</ele>
        <time>2024-10-31T13:53:23Z</time>
      </trkpt>
      <trkpt lat="44.84883" lon="3.51208">
        <ele>1246.97</ele>
        <time>2024-10-31T13:53:26Z</time>
      </trkpt>
      <trkpt lat="44.84882" lon="3.51203">
        <ele>1246.97</ele>
        <time>2024-10-31T13:53:31Z</time>
      </trkpt>
      <trkpt lat="44.84872" lon="3.51184">
        <ele>1248.41</ele>
        <time>2024-10-31T13:53:42Z</time>
      </trkpt>
      <trkpt lat="44.84868" lon="3.51167">
        <ele>1250.33</ele>
        <time>2024-10-31T13:53:54Z</time>
      </trkpt>
      <trkpt lat="44.84868" lon="3.51155">
        <ele>1250.81</ele>
        <time>2024-10-31T13:54:02Z</time>
      </trkpt>
      <trkpt lat="44.84868" lon="3.51153">
        <ele>1251.29</ele>
        <time>2024-10-31T13:54:03Z</time>
      </trkpt>
      <trkpt lat="44.84861" lon="3.51137">
        <ele>1252.74</ele>
        <time>2024-10-31T13:54:15Z</time>
      </trkpt>
      <trkpt lat="44.84851" lon="3.51122">
        <ele>1256.1</ele>
        <time>2024-10-31T13:54:27Z</time>
      </trkpt>
      <trkpt lat="44.84844" lon="3.51114">
        <ele>1262.35</ele>
        <time>2024-10-31T13:54:39Z</time>
      </trkpt>
      <trkpt lat="44.84842" lon="3.51114">
        <ele>1263.31</ele>
        <time>2024-10-31T13:54:41Z</time>
      </trkpt>
      <trkpt lat="44.8484" lon="3.51115">
        <ele>1263.79</ele>
        <time>2024-10-31T13:54:42Z</time>
      </trkpt>
      <trkpt lat="44.84832" lon="3.51116">
        <ele>1265.71</ele>
        <time>2024-10-31T13:54:50Z</time>
      </trkpt>
      <trkpt lat="44.84815" lon="3.51112">
        <ele>1270.52</ele>
        <time>2024-10-31T13:55:08Z</time>
      </trkpt>
      <trkpt lat="44.84787" lon="3.511">
        <ele>1271</ele>
        <time>2024-10-31T13:55:29Z</time>
      </trkpt>
      <trkpt lat="44.84763" lon="3.51091">
        <ele>1269.56</ele>
        <time>2024-10-31T13:55:47Z</time>
      </trkpt>
      <trkpt lat="44.84744" lon="3.51081">
        <ele>1267.64</ele>
        <time>2024-10-31T13:56:01Z</time>
      </trkpt>
      <trkpt lat="44.84729" lon="3.51066">
        <ele>1266.19</ele>
        <time>2024-10-31T13:56:16Z</time>
      </trkpt>
      <trkpt lat="44.84711" lon="3.51045">
        <ele>1265.71</ele>
        <time>2024-10-31T13:56:34Z</time>
      </trkpt>
      <trkpt lat="44.84699" lon="3.51021">
        <ele>1266.19</ele>
        <time>2024-10-31T13:56:51Z</time>
      </trkpt>
      <trkpt lat="44.84688" lon="3.51001">
        <ele>1266.19</ele>
        <time>2024-10-31T13:57:04Z</time>
      </trkpt>
      <trkpt lat="44.84678" lon="3.5098">
        <ele>1266.19</ele>
        <time>2024-10-31T13:57:19Z</time>
      </trkpt>
      <trkpt lat="44.84662" lon="3.50962">
        <ele>1267.64</ele>
        <time>2024-10-31T13:57:35Z</time>
      </trkpt>
      <trkpt lat="44.84651" lon="3.50956">
        <ele>1267.64</ele>
        <time>2024-10-31T13:57:44Z</time>
      </trkpt>
      <trkpt lat="44.84629" lon="3.50945">
        <ele>1269.56</ele>
        <time>2024-10-31T13:58:01Z</time>
      </trkpt>
      <trkpt lat="44.84616" lon="3.50942">
        <ele>1272.44</ele>
        <time>2024-10-31T13:58:15Z</time>
      </trkpt>
      <trkpt lat="44.84605" lon="3.50938">
        <ele>1273.4</ele>
        <time>2024-10-31T13:58:30Z</time>
      </trkpt>
      <trkpt lat="44.84591" lon="3.5093">
        <ele>1276.29</ele>
        <time>2024-10-31T13:58:48Z</time>
      </trkpt>
      <trkpt lat="44.84571" lon="3.50922">
        <ele>1277.25</ele>
        <time>2024-10-31T13:59:06Z</time>
      </trkpt>
      <trkpt lat="44.84551" lon="3.50911">
        <ele>1280.13</ele>
        <time>2024-10-31T13:59:23Z</time>
      </trkpt>
      <trkpt lat="44.84529" lon="3.50902">
        <ele>1283.5</ele>
        <time>2024-10-31T13:59:40Z</time>
      </trkpt>
      <trkpt lat="44.84511" lon="3.50899">
        <ele>1284.94</ele>
        <time>2024-10-31T13:59:57Z</time>
      </trkpt>
      <trkpt lat="44.8449" lon="3.50889">
        <ele>1286.86</ele>
        <time>2024-10-31T14:00:18Z</time>
      </trkpt>
      <trkpt lat="44.84467" lon="3.50876">
        <ele>1290.23</ele>
        <time>2024-10-31T14:00:40Z</time>
      </trkpt>
      <trkpt lat="44.84438" lon="3.50866">
        <ele>1295.51</ele>
        <time>2024-10-31T14:01:00Z</time>
      </trkpt>
      <trkpt lat="44.84415" lon="3.50852">
        <ele>1302.72</ele>
        <time>2024-10-31T14:01:20Z</time>
      </trkpt>
      <trkpt lat="44.84399" lon="3.5084">
        <ele>1304.17</ele>
        <time>2024-10-31T14:01:35Z</time>
      </trkpt>
      <trkpt lat="44.84384" lon="3.50834">
        <ele>1303.69</ele>
        <time>2024-10-31T14:01:51Z</time>
      </trkpt>
      <trkpt lat="44.84368" lon="3.50828">
        <ele>1301.76</ele>
        <time>2024-10-31T14:02:06Z</time>
      </trkpt>
      <trkpt lat="44.84349" lon="3.50825">
        <ele>1299.84</ele>
        <time>2024-10-31T14:02:22Z</time>
      </trkpt>
      <trkpt lat="44.84324" lon="3.50818">
        <ele>1302.72</ele>
        <time>2024-10-31T14:02:42Z</time>
      </trkpt>
      <trkpt lat="44.84292" lon="3.5081">
        <ele>1306.09</ele>
        <time>2024-10-31T14:03:03Z</time>
      </trkpt>
      <trkpt lat="44.84266" lon="3.50801">
        <ele>1306.57</ele>
        <time>2024-10-31T14:03:24Z</time>
      </trkpt>
      <trkpt lat="44.84246" lon="3.50793">
        <ele>1306.09</ele>
        <time>2024-10-31T14:03:41Z</time>
      </trkpt>
      <trkpt lat="44.8423" lon="3.50782">
        <ele>1305.13</ele>
        <time>2024-10-31T14:03:55Z</time>
      </trkpt>
      <trkpt lat="44.84207" lon="3.50766">
        <ele>1305.13</ele>
        <time>2024-10-31T14:04:14Z</time>
      </trkpt>
      <trkpt lat="44.84178" lon="3.50755">
        <ele>1306.57</ele>
        <time>2024-10-31T14:04:34Z</time>
      </trkpt>
      <trkpt lat="44.8415" lon="3.50747">
        <ele>1306.57</ele>
        <time>2024-10-31T14:04:53Z</time>
      </trkpt>
      <trkpt lat="44.84128" lon="3.50742">
        <ele>1307.53</ele>
        <time>2024-10-31T14:05:09Z</time>
      </trkpt>
      <trkpt lat="44.84108" lon="3.50738">
        <ele>1309.45</ele>
        <time>2024-10-31T14:05:23Z</time>
      </trkpt>
      <trkpt lat="44.84086" lon="3.50732">
        <ele>1312.34</ele>
        <time>2024-10-31T14:05:39Z</time>
      </trkpt>
      <trkpt lat="44.84064" lon="3.50731">
        <ele>1315.22</ele>
        <time>2024-10-31T14:05:56Z</time>
      </trkpt>
      <trkpt lat="44.84052" lon="3.50733">
        <ele>1315.7</ele>
        <time>2024-10-31T14:06:06Z</time>
      </trkpt>
      <trkpt lat="44.8405" lon="3.50734">
        <ele>1315.7</ele>
        <time>2024-10-31T14:06:07Z</time>
      </trkpt>
      <trkpt lat="44.84048" lon="3.50734">
        <ele>1315.7</ele>
        <time>2024-10-31T14:06:08Z</time>
      </trkpt>
      <trkpt lat="44.84031" lon="3.50741">
        <ele>1317.62</ele>
        <time>2024-10-31T14:06:22Z</time>
      </trkpt>
      <trkpt lat="44.84008" lon="3.50758">
        <ele>1321.95</ele>
        <time>2024-10-31T14:06:41Z</time>
      </trkpt>
      <trkpt lat="44.83993" lon="3.50774">
        <ele>1324.83</ele>
        <time>2024-10-31T14:06:56Z</time>
      </trkpt>
      <trkpt lat="44.83979" lon="3.50792">
        <ele>1328.2</ele>
        <time>2024-10-31T14:07:13Z</time>
      </trkpt>
      <trkpt lat="44.83969" lon="3.50815">
        <ele>1329.64</ele>
        <time>2024-10-31T14:07:26Z</time>
      </trkpt>
      <trkpt lat="44.83966" lon="3.50822">
        <ele>1330.6</ele>
        <time>2024-10-31T14:07:32Z</time>
      </trkpt>
      <trkpt lat="44.83963" lon="3.50829">
        <ele>1331.08</ele>
        <time>2024-10-31T14:07:37Z</time>
      </trkpt>
      <trkpt lat="44.83962" lon="3.50831">
        <ele>1331.56</ele>
        <time>2024-10-31T14:07:38Z</time>
      </trkpt>
      <trkpt lat="44.83955" lon="3.50848">
        <ele>1333.97</ele>
        <time>2024-10-31T14:07:50Z</time>
      </trkpt>
      <trkpt lat="44.83952" lon="3.50856">
        <ele>1335.41</ele>
        <time>2024-10-31T14:07:55Z</time>
      </trkpt>
      <trkpt lat="44.83944" lon="3.50875">
        <ele>1336.37</ele>
        <time>2024-10-31T14:08:08Z</time>
      </trkpt>
      <trkpt lat="44.83939" lon="3.50894">
        <ele>1337.33</ele>
        <time>2024-10-31T14:08:20Z</time>
      </trkpt>
      <trkpt lat="44.83939" lon="3.5092">
        <ele>1338.77</ele>
        <time>2024-10-31T14:08:34Z</time>
      </trkpt>
      <trkpt lat="44.83937" lon="3.50948">
        <ele>1340.7</ele>
        <time>2024-10-31T14:08:51Z</time>
      </trkpt>
      <trkpt lat="44.83942" lon="3.50954">
        <ele>1339.73</ele>
        <time>2024-10-31T14:09:07Z</time>
      </trkpt>
      <trkpt lat="44.83947" lon="3.50962">
        <ele>1338.29</ele>
        <time>2024-10-31T14:09:39Z</time>
      </trkpt>
      <trkpt lat="44.83943" lon="3.50975">
        <ele>1338.77</ele>
        <time>2024-10-31T14:09:57Z</time>
      </trkpt>
      <trkpt lat="44.8394" lon="3.51015">
        <ele>1342.62</ele>
        <time>2024-10-31T14:10:18Z</time>
      </trkpt>
      <trkpt lat="44.83941" lon="3.5102">
        <ele>1343.1</ele>
        <time>2024-10-31T14:10:20Z</time>
      </trkpt>
      <trkpt lat="44.83941" lon="3.51023">
        <ele>1343.1</ele>
        <time>2024-10-31T14:10:21Z</time>
      </trkpt>
      <trkpt lat="44.83941" lon="3.51025">
        <ele>1343.1</ele>
        <time>2024-10-31T14:10:22Z</time>
      </trkpt>
      <trkpt lat="44.83941" lon="3.51027">
        <ele>1343.1</ele>
        <time>2024-10-31T14:10:23Z</time>
      </trkpt>
      <trkpt lat="44.83943" lon="3.51048">
        <ele>1343.58</ele>
        <time>2024-10-31T14:10:33Z</time>
      </trkpt>
      <trkpt lat="44.83941" lon="3.51066">
        <ele>1344.54</ele>
        <time>2024-10-31T14:10:44Z</time>
      </trkpt>
      <trkpt lat="44.83944" lon="3.51088">
        <ele>1347.43</ele>
        <time>2024-10-31T14:10:54Z</time>
      </trkpt>
      <trkpt lat="44.83945" lon="3.51091">
        <ele>1347.91</ele>
        <time>2024-10-31T14:10:55Z</time>
      </trkpt>
      <trkpt lat="44.83947" lon="3.51102">
        <ele>1350.31</ele>
        <time>2024-10-31T14:11:02Z</time>
      </trkpt>
      <trkpt lat="44.83947" lon="3.51105">
        <ele>1350.31</ele>
        <time>2024-10-31T14:11:03Z</time>
      </trkpt>
      <trkpt lat="44.83947" lon="3.51126">
        <ele>1354.15</ele>
        <time>2024-10-31T14:11:14Z</time>
      </trkpt>
      <trkpt lat="44.83946" lon="3.51147">
        <ele>1355.6</ele>
        <time>2024-10-31T14:11:25Z</time>
      </trkpt>
      <trkpt lat="44.83942" lon="3.51167">
        <ele>1354.63</ele>
        <time>2024-10-31T14:11:37Z</time>
      </trkpt>
      <trkpt lat="44.8394" lon="3.5119">
        <ele>1356.56</ele>
        <time>2024-10-31T14:11:49Z</time>
      </trkpt>
      <trkpt lat="44.83939" lon="3.51191">
        <ele>1357.04</ele>
        <time>2024-10-31T14:11:50Z</time>
      </trkpt>
      <trkpt lat="44.83937" lon="3.51192">
        <ele>1357.04</ele>
        <time>2024-10-31T14:11:51Z</time>
      </trkpt>
      <trkpt lat="44.83935" lon="3.51192">
        <ele>1357.52</ele>
        <time>2024-10-31T14:11:52Z</time>
      </trkpt>
      <trkpt lat="44.83933" lon="3.51192">
        <ele>1357.52</ele>
        <time>2024-10-31T14:11:53Z</time>
      </trkpt>
      <trkpt lat="44.83932" lon="3.51191">
        <ele>1358</ele>
        <time>2024-10-31T14:11:54Z</time>
      </trkpt>
      <trkpt lat="44.8393" lon="3.51187">
        <ele>1358.96</ele>
        <time>2024-10-31T14:11:58Z</time>
      </trkpt>
      <trkpt lat="44.8393" lon="3.51186">
        <ele>1358.96</ele>
        <time>2024-10-31T14:11:59Z</time>
      </trkpt>
      <trkpt lat="44.83928" lon="3.5118">
        <ele>1359.92</ele>
        <time>2024-10-31T14:12:03Z</time>
      </trkpt>
      <trkpt lat="44.83926" lon="3.51163">
        <ele>1362.33</ele>
        <time>2024-10-31T14:12:13Z</time>
      </trkpt>
      <trkpt lat="44.83923" lon="3.51142">
        <ele>1364.25</ele>
        <time>2024-10-31T14:12:24Z</time>
      </trkpt>
      <trkpt lat="44.83919" lon="3.51127">
        <ele>1366.65</ele>
        <time>2024-10-31T14:12:40Z</time>
      </trkpt>
      <trkpt lat="44.83921" lon="3.51129">
        <ele>1367.13</ele>
        <time>2024-10-31T14:13:02Z</time>
      </trkpt>
      <trkpt lat="44.83925" lon="3.51125">
        <ele>1366.65</ele>
        <time>2024-10-31T14:13:33Z</time>
      </trkpt>
      <trkpt lat="44.83921" lon="3.51119">
        <ele>1366.17</ele>
        <time>2024-10-31T14:13:54Z</time>
      </trkpt>
      <trkpt lat="44.8392" lon="3.51119">
        <ele>1365.69</ele>
        <time>2024-10-31T14:14:11Z</time>
      </trkpt>
      <trkpt lat="44.83921" lon="3.51115">
        <ele>1364.25</ele>
        <time>2024-10-31T14:14:35Z</time>
      </trkpt>
      <trkpt lat="44.83919" lon="3.5112">
        <ele>1359.44</ele>
        <time>2024-10-31T14:15:07Z</time>
      </trkpt>
      <trkpt lat="44.83919" lon="3.51117">
        <ele>1357.04</ele>
        <time>2024-10-31T14:15:31Z</time>
      </trkpt>
      <trkpt lat="44.83918" lon="3.51114">
        <ele>1357.52</ele>
        <time>2024-10-31T14:16:00Z</time>
      </trkpt>
      <trkpt lat="44.83914" lon="3.51107">
        <ele>1355.12</ele>
        <time>2024-10-31T14:16:26Z</time>
      </trkpt>
      <trkpt lat="44.83913" lon="3.51106">
        <ele>1355.12</ele>
        <time>2024-10-31T14:16:28Z</time>
      </trkpt>
      <trkpt lat="44.83901" lon="3.51091">
        <ele>1355.12</ele>
        <time>2024-10-31T14:16:44Z</time>
      </trkpt>
      <trkpt lat="44.83899" lon="3.51088">
        <ele>1355.12</ele>
        <time>2024-10-31T14:16:46Z</time>
      </trkpt>
      <trkpt lat="44.83886" lon="3.51075">
        <ele>1354.15</ele>
        <time>2024-10-31T14:17:01Z</time>
      </trkpt>
      <trkpt lat="44.83883" lon="3.51069">
        <ele>1354.63</ele>
        <time>2024-10-31T14:17:06Z</time>
      </trkpt>
      <trkpt lat="44.83869" lon="3.51049">
        <ele>1353.67</ele>
        <time>2024-10-31T14:17:23Z</time>
      </trkpt>
      <trkpt lat="44.83852" lon="3.5103">
        <ele>1353.67</ele>
        <time>2024-10-31T14:17:42Z</time>
      </trkpt>
      <trkpt lat="44.83838" lon="3.51018">
        <ele>1354.63</ele>
        <time>2024-10-31T14:17:56Z</time>
      </trkpt>
      <trkpt lat="44.83822" lon="3.51005">
        <ele>1356.08</ele>
        <time>2024-10-31T14:18:13Z</time>
      </trkpt>
      <trkpt lat="44.83803" lon="3.50991">
        <ele>1358</ele>
        <time>2024-10-31T14:18:28Z</time>
      </trkpt>
      <trkpt lat="44.83786" lon="3.50979">
        <ele>1360.88</ele>
        <time>2024-10-31T14:18:43Z</time>
      </trkpt>
      <trkpt lat="44.83769" lon="3.50968">
        <ele>1362.33</ele>
        <time>2024-10-31T14:18:57Z</time>
      </trkpt>
      <trkpt lat="44.83756" lon="3.5096">
        <ele>1364.73</ele>
        <time>2024-10-31T14:19:10Z</time>
      </trkpt>
      <trkpt lat="44.83745" lon="3.50951">
        <ele>1366.65</ele>
        <time>2024-10-31T14:19:23Z</time>
      </trkpt>
      <trkpt lat="44.83734" lon="3.50942">
        <ele>1368.09</ele>
        <time>2024-10-31T14:19:36Z</time>
      </trkpt>
      <trkpt lat="44.8372" lon="3.50931">
        <ele>1369.05</ele>
        <time>2024-10-31T14:19:49Z</time>
      </trkpt>
      <trkpt lat="44.83709" lon="3.50924">
        <ele>1370.98</ele>
        <time>2024-10-31T14:20:01Z</time>
      </trkpt>
      <trkpt lat="44.83693" lon="3.50915">
        <ele>1373.86</ele>
        <time>2024-10-31T14:20:16Z</time>
      </trkpt>
      <trkpt lat="44.83677" lon="3.50912">
        <ele>1374.82</ele>
        <time>2024-10-31T14:20:29Z</time>
      </trkpt>
      <trkpt lat="44.8366" lon="3.50905">
        <ele>1375.78</ele>
        <time>2024-10-31T14:20:43Z</time>
      </trkpt>
      <trkpt lat="44.83641" lon="3.509">
        <ele>1376.75</ele>
        <time>2024-10-31T14:20:58Z</time>
      </trkpt>
      <trkpt lat="44.83623" lon="3.50895">
        <ele>1378.19</ele>
        <time>2024-10-31T14:21:13Z</time>
      </trkpt>
      <trkpt lat="44.83605" lon="3.50892">
        <ele>1378.67</ele>
        <time>2024-10-31T14:21:27Z</time>
      </trkpt>
      <trkpt lat="44.83588" lon="3.50888">
        <ele>1380.11</ele>
        <time>2024-10-31T14:21:42Z</time>
      </trkpt>
      <trkpt lat="44.83568" lon="3.50888">
        <ele>1382.03</ele>
        <time>2024-10-31T14:21:57Z</time>
      </trkpt>
      <trkpt lat="44.83547" lon="3.50888">
        <ele>1384.44</ele>
        <time>2024-10-31T14:22:13Z</time>
      </trkpt>
      <trkpt lat="44.83526" lon="3.50887">
        <ele>1385.88</ele>
        <time>2024-10-31T14:22:28Z</time>
      </trkpt>
      <trkpt lat="44.83503" lon="3.5088">
        <ele>1388.28</ele>
        <time>2024-10-31T14:22:44Z</time>
      </trkpt>
      <trkpt lat="44.83497" lon="3.50878">
        <ele>1388.76</ele>
        <time>2024-10-31T14:22:49Z</time>
      </trkpt>
      <trkpt lat="44.83493" lon="3.50875">
        <ele>1388.76</ele>
        <time>2024-10-31T14:22:52Z</time>
      </trkpt>
      <trkpt lat="44.83491" lon="3.50874">
        <ele>1388.76</ele>
        <time>2024-10-31T14:22:53Z</time>
      </trkpt>
      <trkpt lat="44.83488" lon="3.50874">
        <ele>1388.28</ele>
        <time>2024-10-31T14:22:54Z</time>
      </trkpt>
      <trkpt lat="44.83478" lon="3.50868">
        <ele>1386.84</ele>
        <time>2024-10-31T14:23:03Z</time>
      </trkpt>
      <trkpt lat="44.83465" lon="3.50858">
        <ele>1387.32</ele>
        <time>2024-10-31T14:23:15Z</time>
      </trkpt>
      <trkpt lat="44.83457" lon="3.50849">
        <ele>1388.28</ele>
        <time>2024-10-31T14:23:23Z</time>
      </trkpt>
      <trkpt lat="44.8345" lon="3.50831">
        <ele>1390.68</ele>
        <time>2024-10-31T14:23:33Z</time>
      </trkpt>
      <trkpt lat="44.83444" lon="3.50812">
        <ele>1391.17</ele>
        <time>2024-10-31T14:23:44Z</time>
      </trkpt>
      <trkpt lat="44.83443" lon="3.50807">
        <ele>1391.65</ele>
        <time>2024-10-31T14:23:49Z</time>
      </trkpt>
      <trkpt lat="44.83441" lon="3.50789">
        <ele>1390.2</ele>
        <time>2024-10-31T14:23:59Z</time>
      </trkpt>
      <trkpt lat="44.8344" lon="3.50765">
        <ele>1389.72</ele>
        <time>2024-10-31T14:24:10Z</time>
      </trkpt>
      <trkpt lat="44.8344" lon="3.50745">
        <ele>1390.2</ele>
        <time>2024-10-31T14:24:20Z</time>
      </trkpt>
      <trkpt lat="44.83438" lon="3.50722">
        <ele>1389.72</ele>
        <time>2024-10-31T14:24:32Z</time>
      </trkpt>
      <trkpt lat="44.83435" lon="3.50691">
        <ele>1388.76</ele>
        <time>2024-10-31T14:24:49Z</time>
      </trkpt>
      <trkpt lat="44.83427" lon="3.50665">
        <ele>1386.84</ele>
        <time>2024-10-31T14:25:03Z</time>
      </trkpt>
      <trkpt lat="44.83416" lon="3.50642">
        <ele>1386.84</ele>
        <time>2024-10-31T14:25:18Z</time>
      </trkpt>
      <trkpt lat="44.83404" lon="3.50623">
        <ele>1386.84</ele>
        <time>2024-10-31T14:25:32Z</time>
      </trkpt>
      <trkpt lat="44.83389" lon="3.50607">
        <ele>1386.84</ele>
        <time>2024-10-31T14:25:46Z</time>
      </trkpt>
      <trkpt lat="44.83372" lon="3.50595">
        <ele>1386.84</ele>
        <time>2024-10-31T14:26:01Z</time>
      </trkpt>
      <trkpt lat="44.83355" lon="3.50587">
        <ele>1387.32</ele>
        <time>2024-10-31T14:26:14Z</time>
      </trkpt>
      <trkpt lat="44.83336" lon="3.50582">
        <ele>1387.8</ele>
        <time>2024-10-31T14:26:29Z</time>
      </trkpt>
      <trkpt lat="44.83322" lon="3.5058">
        <ele>1388.28</ele>
        <time>2024-10-31T14:26:41Z</time>
      </trkpt>
      <trkpt lat="44.83303" lon="3.50576">
        <ele>1387.8</ele>
        <time>2024-10-31T14:26:56Z</time>
      </trkpt>
      <trkpt lat="44.83289" lon="3.50571">
        <ele>1386.84</ele>
        <time>2024-10-31T14:27:09Z</time>
      </trkpt>
      <trkpt lat="44.83284" lon="3.50568">
        <ele>1386.84</ele>
        <time>2024-10-31T14:27:13Z</time>
      </trkpt>
      <trkpt lat="44.83283" lon="3.50567">
        <ele>1386.84</ele>
        <time>2024-10-31T14:27:14Z</time>
      </trkpt>
      <trkpt lat="44.83282" lon="3.50567">
        <ele>1386.36</ele>
        <time>2024-10-31T14:27:15Z</time>
      </trkpt>
      <trkpt lat="44.83274" lon="3.50563">
        <ele>1386.36</ele>
        <time>2024-10-31T14:27:22Z</time>
      </trkpt>
      <trkpt lat="44.83273" lon="3.50562">
        <ele>1386.36</ele>
        <time>2024-10-31T14:27:23Z</time>
      </trkpt>
      <trkpt lat="44.83271" lon="3.50561">
        <ele>1386.36</ele>
        <time>2024-10-31T14:27:24Z</time>
      </trkpt>
      <trkpt lat="44.83255" lon="3.50549">
        <ele>1385.88</ele>
        <time>2024-10-31T14:27:37Z</time>
      </trkpt>
      <trkpt lat="44.83239" lon="3.50535">
        <ele>1387.32</ele>
        <time>2024-10-31T14:27:50Z</time>
      </trkpt>
      <trkpt lat="44.83226" lon="3.50522">
        <ele>1386.84</ele>
        <time>2024-10-31T14:28:03Z</time>
      </trkpt>
      <trkpt lat="44.83216" lon="3.50511">
        <ele>1386.84</ele>
        <time>2024-10-31T14:28:14Z</time>
      </trkpt>
      <trkpt lat="44.83213" lon="3.50507">
        <ele>1386.84</ele>
        <time>2024-10-31T14:28:27Z</time>
      </trkpt>
      <trkpt lat="44.83208" lon="3.5051">
        <ele>1388.28</ele>
        <time>2024-10-31T14:28:46Z</time>
      </trkpt>
      <trkpt lat="44.83196" lon="3.50518">
        <ele>1389.72</ele>
        <time>2024-10-31T14:29:02Z</time>
      </trkpt>
      <trkpt lat="44.83176" lon="3.50538">
        <ele>1393.57</ele>
        <time>2024-10-31T14:29:22Z</time>
      </trkpt>
      <trkpt lat="44.83161" lon="3.50553">
        <ele>1395.97</ele>
        <time>2024-10-31T14:29:37Z</time>
      </trkpt>
      <trkpt lat="44.83144" lon="3.5057">
        <ele>1398.37</ele>
        <time>2024-10-31T14:29:54Z</time>
      </trkpt>
      <trkpt lat="44.83128" lon="3.50586">
        <ele>1400.3</ele>
        <time>2024-10-31T14:30:11Z</time>
      </trkpt>
      <trkpt lat="44.83111" lon="3.50603">
        <ele>1401.26</ele>
        <time>2024-10-31T14:30:31Z</time>
      </trkpt>
      <trkpt lat="44.831" lon="3.50593">
        <ele>1401.74</ele>
        <time>2024-10-31T14:30:48Z</time>
      </trkpt>
      <trkpt lat="44.83087" lon="3.50573">
        <ele>1402.7</ele>
        <time>2024-10-31T14:31:05Z</time>
      </trkpt>
      <trkpt lat="44.83071" lon="3.50548">
        <ele>1402.22</ele>
        <time>2024-10-31T14:31:24Z</time>
      </trkpt>
      <trkpt lat="44.83057" lon="3.50525">
        <ele>1401.74</ele>
        <time>2024-10-31T14:31:43Z</time>
      </trkpt>
      <trkpt lat="44.83039" lon="3.505">
        <ele>1401.26</ele>
        <time>2024-10-31T14:32:03Z</time>
      </trkpt>
      <trkpt lat="44.83019" lon="3.50472">
        <ele>1398.86</ele>
        <time>2024-10-31T14:32:23Z</time>
      </trkpt>
      <trkpt lat="44.83002" lon="3.50451">
        <ele>1397.89</ele>
        <time>2024-10-31T14:32:40Z</time>
      </trkpt>
      <trkpt lat="44.82984" lon="3.50429">
        <ele>1395.49</ele>
        <time>2024-10-31T14:33:00Z</time>
      </trkpt>
      <trkpt lat="44.82965" lon="3.50402">
        <ele>1393.57</ele>
        <time>2024-10-31T14:33:20Z</time>
      </trkpt>
      <trkpt lat="44.82947" lon="3.50379">
        <ele>1389.72</ele>
        <time>2024-10-31T14:33:38Z</time>
      </trkpt>
      <trkpt lat="44.82925" lon="3.50352">
        <ele>1386.36</ele>
        <time>2024-10-31T14:33:58Z</time>
      </trkpt>
      <trkpt lat="44.82906" lon="3.50324">
        <ele>1379.63</ele>
        <time>2024-10-31T14:34:18Z</time>
      </trkpt>
      <trkpt lat="44.82889" lon="3.50298">
        <ele>1375.3</ele>
        <time>2024-10-31T14:34:37Z</time>
      </trkpt>
      <trkpt lat="44.82872" lon="3.50275">
        <ele>1374.34</ele>
        <time>2024-10-31T14:34:56Z</time>
      </trkpt>
      <trkpt lat="44.82856" lon="3.50253">
        <ele>1371.46</ele>
        <time>2024-10-31T14:35:12Z</time>
      </trkpt>
      <trkpt lat="44.82843" lon="3.50235">
        <ele>1369.05</ele>
        <time>2024-10-31T14:35:28Z</time>
      </trkpt>
      <trkpt lat="44.82823" lon="3.5021">
        <ele>1367.61</ele>
        <time>2024-10-31T14:35:48Z</time>
      </trkpt>
      <trkpt lat="44.82806" lon="3.50191">
        <ele>1366.65</ele>
        <time>2024-10-31T14:36:04Z</time>
      </trkpt>
      <trkpt lat="44.82793" lon="3.50172">
        <ele>1365.21</ele>
        <time>2024-10-31T14:36:18Z</time>
      </trkpt>
      <trkpt lat="44.82779" lon="3.50148">
        <ele>1364.25</ele>
        <time>2024-10-31T14:36:37Z</time>
      </trkpt>
      <trkpt lat="44.82765" lon="3.50127">
        <ele>1364.25</ele>
        <time>2024-10-31T14:36:53Z</time>
      </trkpt>
      <trkpt lat="44.82749" lon="3.50104">
        <ele>1364.73</ele>
        <time>2024-10-31T14:37:09Z</time>
      </trkpt>
      <trkpt lat="44.82746" lon="3.50093">
        <ele>1363.29</ele>
        <time>2024-10-31T14:37:25Z</time>
      </trkpt>
      <trkpt lat="44.82748" lon="3.50088">
        <ele>1363.29</ele>
        <time>2024-10-31T14:37:29Z</time>
      </trkpt>
      <trkpt lat="44.82757" lon="3.50077">
        <ele>1362.81</ele>
        <time>2024-10-31T14:37:44Z</time>
      </trkpt>
      <trkpt lat="44.82767" lon="3.50066">
        <ele>1362.33</ele>
        <time>2024-10-31T14:37:59Z</time>
      </trkpt>
      <trkpt lat="44.82782" lon="3.50047">
        <ele>1359.44</ele>
        <time>2024-10-31T14:38:18Z</time>
      </trkpt>
      <trkpt lat="44.82794" lon="3.50031">
        <ele>1356.56</ele>
        <time>2024-10-31T14:38:32Z</time>
      </trkpt>
      <trkpt lat="44.82797" lon="3.50027">
        <ele>1356.08</ele>
        <time>2024-10-31T14:38:35Z</time>
      </trkpt>
      <trkpt lat="44.82803" lon="3.5002">
        <ele>1354.15</ele>
        <time>2024-10-31T14:38:42Z</time>
      </trkpt>
      <trkpt lat="44.82819" lon="3.50005">
        <ele>1350.79</ele>
        <time>2024-10-31T14:38:59Z</time>
      </trkpt>
      <trkpt lat="44.82833" lon="3.49991">
        <ele>1346.46</ele>
        <time>2024-10-31T14:39:17Z</time>
      </trkpt>
      <trkpt lat="44.8285" lon="3.4998">
        <ele>1345.5</ele>
        <time>2024-10-31T14:39:37Z</time>
      </trkpt>
      <trkpt lat="44.82867" lon="3.49968">
        <ele>1347.91</ele>
        <time>2024-10-31T14:39:56Z</time>
      </trkpt>
      <trkpt lat="44.8289" lon="3.49952">
        <ele>1351.75</ele>
        <time>2024-10-31T14:40:15Z</time>
      </trkpt>
      <trkpt lat="44.82919" lon="3.49932">
        <ele>1350.79</ele>
        <time>2024-10-31T14:40:34Z</time>
      </trkpt>
      <trkpt lat="44.82935" lon="3.49908">
        <ele>1351.75</ele>
        <time>2024-10-31T14:40:53Z</time>
      </trkpt>
      <trkpt lat="44.8294" lon="3.49902">
        <ele>1351.75</ele>
        <time>2024-10-31T14:40:58Z</time>
      </trkpt>
      <trkpt lat="44.82953" lon="3.49879">
        <ele>1352.23</ele>
        <time>2024-10-31T14:41:13Z</time>
      </trkpt>
      <trkpt lat="44.82967" lon="3.49856">
        <ele>1354.15</ele>
        <time>2024-10-31T14:41:32Z</time>
      </trkpt>
      <trkpt lat="44.82978" lon="3.49827">
        <ele>1351.75</ele>
        <time>2024-10-31T14:41:51Z</time>
      </trkpt>
      <trkpt lat="44.82983" lon="3.4979">
        <ele>1346.94</ele>
        <time>2024-10-31T14:42:11Z</time>
      </trkpt>
      <trkpt lat="44.82987" lon="3.49761">
        <ele>1343.1</ele>
        <time>2024-10-31T14:42:27Z</time>
      </trkpt>
      <trkpt lat="44.82987" lon="3.49759">
        <ele>1343.1</ele>
        <time>2024-10-31T14:42:28Z</time>
      </trkpt>
      <trkpt lat="44.82989" lon="3.49728">
        <ele>1339.25</ele>
        <time>2024-10-31T14:42:44Z</time>
      </trkpt>
      <trkpt lat="44.82991" lon="3.49704">
        <ele>1337.81</ele>
        <time>2024-10-31T14:42:56Z</time>
      </trkpt>
      <trkpt lat="44.82993" lon="3.4968">
        <ele>1333.01</ele>
        <time>2024-10-31T14:43:11Z</time>
      </trkpt>
      <trkpt lat="44.82996" lon="3.49648">
        <ele>1329.16</ele>
        <time>2024-10-31T14:43:30Z</time>
      </trkpt>
      <trkpt lat="44.82998" lon="3.4962">
        <ele>1323.39</ele>
        <time>2024-10-31T14:43:47Z</time>
      </trkpt>
      <trkpt lat="44.82999" lon="3.49617">
        <ele>1322.91</ele>
        <time>2024-10-31T14:43:50Z</time>
      </trkpt>
      <trkpt lat="44.83001" lon="3.49615">
        <ele>1322.43</ele>
        <time>2024-10-31T14:43:51Z</time>
      </trkpt>
      <trkpt lat="44.83001" lon="3.49614">
        <ele>1322.43</ele>
        <time>2024-10-31T14:43:52Z</time>
      </trkpt>
      <trkpt lat="44.83018" lon="3.49594">
        <ele>1317.62</ele>
        <time>2024-10-31T14:44:10Z</time>
      </trkpt>
      <trkpt lat="44.83032" lon="3.49579">
        <ele>1314.26</ele>
        <time>2024-10-31T14:44:23Z</time>
      </trkpt>
      <trkpt lat="44.83046" lon="3.49568">
        <ele>1311.38</ele>
        <time>2024-10-31T14:44:37Z</time>
      </trkpt>
      <trkpt lat="44.83059" lon="3.49553">
        <ele>1309.45</ele>
        <time>2024-10-31T14:44:51Z</time>
      </trkpt>
      <trkpt lat="44.83068" lon="3.49538">
        <ele>1308.97</ele>
        <time>2024-10-31T14:45:03Z</time>
      </trkpt>
      <trkpt lat="44.83076" lon="3.49522">
        <ele>1308.49</ele>
        <time>2024-10-31T14:45:16Z</time>
      </trkpt>
      <trkpt lat="44.83083" lon="3.495">
        <ele>1308.49</ele>
        <time>2024-10-31T14:45:29Z</time>
      </trkpt>
      <trkpt lat="44.83085" lon="3.4948">
        <ele>1308.97</ele>
        <time>2024-10-31T14:45:41Z</time>
      </trkpt>
      <trkpt lat="44.83087" lon="3.49451">
        <ele>1308.97</ele>
        <time>2024-10-31T14:45:56Z</time>
      </trkpt>
      <trkpt lat="44.83088" lon="3.49427">
        <ele>1308.49</ele>
        <time>2024-10-31T14:46:10Z</time>
      </trkpt>
      <trkpt lat="44.83089" lon="3.49402">
        <ele>1308.49</ele>
        <time>2024-10-31T14:46:24Z</time>
      </trkpt>
      <trkpt lat="44.83084" lon="3.49383">
        <ele>1307.53</ele>
        <time>2024-10-31T14:46:37Z</time>
      </trkpt>
      <trkpt lat="44.83077" lon="3.49364">
        <ele>1307.53</ele>
        <time>2024-10-31T14:46:49Z</time>
      </trkpt>
      <trkpt lat="44.83074" lon="3.4936">
        <ele>1307.05</ele>
        <time>2024-10-31T14:46:53Z</time>
      </trkpt>
      <trkpt lat="44.83073" lon="3.49358">
        <ele>1307.05</ele>
        <time>2024-10-31T14:46:54Z</time>
      </trkpt>
      <trkpt lat="44.83073" lon="3.49356">
        <ele>1306.57</ele>
        <time>2024-10-31T14:46:55Z</time>
      </trkpt>
      <trkpt lat="44.83072" lon="3.49355">
        <ele>1306.57</ele>
        <time>2024-10-31T14:46:56Z</time>
      </trkpt>
      <trkpt lat="44.83071" lon="3.49353">
        <ele>1306.57</ele>
        <time>2024-10-31T14:46:57Z</time>
      </trkpt>
      <trkpt lat="44.8307" lon="3.49351">
        <ele>1306.57</ele>
        <time>2024-10-31T14:46:58Z</time>
      </trkpt>
      <trkpt lat="44.83069" lon="3.4935">
        <ele>1306.57</ele>
        <time>2024-10-31T14:46:59Z</time>
      </trkpt>
      <trkpt lat="44.83058" lon="3.4933">
        <ele>1304.65</ele>
        <time>2024-10-31T14:47:14Z</time>
      </trkpt>
      <trkpt lat="44.83048" lon="3.49312">
        <ele>1302.24</ele>
        <time>2024-10-31T14:47:27Z</time>
      </trkpt>
      <trkpt lat="44.83041" lon="3.49291">
        <ele>1299.84</ele>
        <time>2024-10-31T14:47:41Z</time>
      </trkpt>
      <trkpt lat="44.83033" lon="3.49267">
        <ele>1298.4</ele>
        <time>2024-10-31T14:47:56Z</time>
      </trkpt>
      <trkpt lat="44.83025" lon="3.49243">
        <ele>1297.92</ele>
        <time>2024-10-31T14:48:12Z</time>
      </trkpt>
      <trkpt lat="44.83017" lon="3.49225">
        <ele>1297.44</ele>
        <time>2024-10-31T14:48:26Z</time>
      </trkpt>
      <trkpt lat="44.83014" lon="3.4922">
        <ele>1296.96</ele>
        <time>2024-10-31T14:48:29Z</time>
      </trkpt>
      <trkpt lat="44.83013" lon="3.49219">
        <ele>1296.96</ele>
        <time>2024-10-31T14:48:30Z</time>
      </trkpt>
      <trkpt lat="44.83012" lon="3.49218">
        <ele>1296.96</ele>
        <time>2024-10-31T14:48:31Z</time>
      </trkpt>
      <trkpt lat="44.83011" lon="3.49217">
        <ele>1296.96</ele>
        <time>2024-10-31T14:48:32Z</time>
      </trkpt>
      <trkpt lat="44.83002" lon="3.492">
        <ele>1295.51</ele>
        <time>2024-10-31T14:48:45Z</time>
      </trkpt>
      <trkpt lat="44.82993" lon="3.4918">
        <ele>1294.07</ele>
        <time>2024-10-31T14:48:59Z</time>
      </trkpt>
      <trkpt lat="44.82979" lon="3.49159">
        <ele>1293.11</ele>
        <time>2024-10-31T14:49:14Z</time>
      </trkpt>
      <trkpt lat="44.82962" lon="3.49144">
        <ele>1292.15</ele>
        <time>2024-10-31T14:49:29Z</time>
      </trkpt>
      <trkpt lat="44.82943" lon="3.49129">
        <ele>1292.15</ele>
        <time>2024-10-31T14:49:46Z</time>
      </trkpt>
      <trkpt lat="44.82923" lon="3.49116">
        <ele>1290.71</ele>
        <time>2024-10-31T14:50:03Z</time>
      </trkpt>
      <trkpt lat="44.82905" lon="3.49107">
        <ele>1289.75</ele>
        <time>2024-10-31T14:50:17Z</time>
      </trkpt>
      <trkpt lat="44.82881" lon="3.491">
        <ele>1288.3</ele>
        <time>2024-10-31T14:50:34Z</time>
      </trkpt>
      <trkpt lat="44.82862" lon="3.49091">
        <ele>1287.34</ele>
        <time>2024-10-31T14:50:48Z</time>
      </trkpt>
      <trkpt lat="44.82841" lon="3.49084">
        <ele>1288.3</ele>
        <time>2024-10-31T14:51:03Z</time>
      </trkpt>
      <trkpt lat="44.82822" lon="3.49075">
        <ele>1290.23</ele>
        <time>2024-10-31T14:51:18Z</time>
      </trkpt>
      <trkpt lat="44.82802" lon="3.49065">
        <ele>1291.19</ele>
        <time>2024-10-31T14:51:34Z</time>
      </trkpt>
      <trkpt lat="44.82785" lon="3.49067">
        <ele>1293.11</ele>
        <time>2024-10-31T14:51:49Z</time>
      </trkpt>
      <trkpt lat="44.82772" lon="3.4908">
        <ele>1295.03</ele>
        <time>2024-10-31T14:52:02Z</time>
      </trkpt>
      <trkpt lat="44.82755" lon="3.49093">
        <ele>1296.96</ele>
        <time>2024-10-31T14:52:17Z</time>
      </trkpt>
      <trkpt lat="44.82736" lon="3.4911">
        <ele>1298.88</ele>
        <time>2024-10-31T14:52:32Z</time>
      </trkpt>
      <trkpt lat="44.8272" lon="3.4912">
        <ele>1300.32</ele>
        <time>2024-10-31T14:52:46Z</time>
      </trkpt>
      <trkpt lat="44.82698" lon="3.49119">
        <ele>1300.8</ele>
        <time>2024-10-31T14:53:02Z</time>
      </trkpt>
      <trkpt lat="44.82673" lon="3.49111">
        <ele>1300.32</ele>
        <time>2024-10-31T14:53:20Z</time>
      </trkpt>
      <trkpt lat="44.82653" lon="3.49105">
        <ele>1298.4</ele>
        <time>2024-10-31T14:53:35Z</time>
      </trkpt>
      <trkpt lat="44.82631" lon="3.49098">
        <ele>1295.99</ele>
        <time>2024-10-31T14:53:51Z</time>
      </trkpt>
      <trkpt lat="44.82612" lon="3.49088">
        <ele>1294.55</ele>
        <time>2024-10-31T14:54:06Z</time>
      </trkpt>
      <trkpt lat="44.82589" lon="3.49076">
        <ele>1293.11</ele>
        <time>2024-10-31T14:54:23Z</time>
      </trkpt>
      <trkpt lat="44.82569" lon="3.49063">
        <ele>1292.63</ele>
        <time>2024-10-31T14:54:39Z</time>
      </trkpt>
      <trkpt lat="44.82547" lon="3.49052">
        <ele>1290.71</ele>
        <time>2024-10-31T14:54:55Z</time>
      </trkpt>
      <trkpt lat="44.82529" lon="3.4904">
        <ele>1291.19</ele>
        <time>2024-10-31T14:55:10Z</time>
      </trkpt>
      <trkpt lat="44.82508" lon="3.49029">
        <ele>1290.23</ele>
        <time>2024-10-31T14:55:26Z</time>
      </trkpt>
      <trkpt lat="44.82492" lon="3.49017">
        <ele>1290.71</ele>
        <time>2024-10-31T14:55:40Z</time>
      </trkpt>
      <trkpt lat="44.82475" lon="3.48989">
        <ele>1291.67</ele>
        <time>2024-10-31T14:55:57Z</time>
      </trkpt>
      <trkpt lat="44.8247" lon="3.48977">
        <ele>1291.19</ele>
        <time>2024-10-31T14:56:05Z</time>
      </trkpt>
      <trkpt lat="44.82469" lon="3.48975">
        <ele>1290.71</ele>
        <time>2024-10-31T14:56:06Z</time>
      </trkpt>
      <trkpt lat="44.82467" lon="3.48972">
        <ele>1290.71</ele>
        <time>2024-10-31T14:56:07Z</time>
      </trkpt>
      <trkpt lat="44.82466" lon="3.4897">
        <ele>1290.71</ele>
        <time>2024-10-31T14:56:08Z</time>
      </trkpt>
      <trkpt lat="44.82466" lon="3.48969">
        <ele>1290.71</ele>
        <time>2024-10-31T14:56:09Z</time>
      </trkpt>
      <trkpt lat="44.82465" lon="3.48967">
        <ele>1290.23</ele>
        <time>2024-10-31T14:56:10Z</time>
      </trkpt>
      <trkpt lat="44.82465" lon="3.48966">
        <ele>1290.23</ele>
        <time>2024-10-31T14:56:11Z</time>
      </trkpt>
      <trkpt lat="44.82465" lon="3.48965">
        <ele>1290.23</ele>
        <time>2024-10-31T14:56:12Z</time>
      </trkpt>
      <trkpt lat="44.82464" lon="3.48963">
        <ele>1290.23</ele>
        <time>2024-10-31T14:56:13Z</time>
      </trkpt>
      <trkpt lat="44.82456" lon="3.48938">
        <ele>1292.63</ele>
        <time>2024-10-31T14:56:30Z</time>
      </trkpt>
      <trkpt lat="44.82453" lon="3.48924">
        <ele>1292.63</ele>
        <time>2024-10-31T14:56:37Z</time>
      </trkpt>
      <trkpt lat="44.82453" lon="3.48922">
        <ele>1293.11</ele>
        <time>2024-10-31T14:56:38Z</time>
      </trkpt>
      <trkpt lat="44.82452" lon="3.48919">
        <ele>1293.11</ele>
        <time>2024-10-31T14:56:39Z</time>
      </trkpt>
      <trkpt lat="44.82453" lon="3.48902">
        <ele>1295.03</ele>
        <time>2024-10-31T14:56:49Z</time>
      </trkpt>
      <trkpt lat="44.82453" lon="3.4888">
        <ele>1294.55</ele>
        <time>2024-10-31T14:57:03Z</time>
      </trkpt>
      <trkpt lat="44.82452" lon="3.48868">
        <ele>1294.55</ele>
        <time>2024-10-31T14:57:11Z</time>
      </trkpt>
      <trkpt lat="44.82451" lon="3.48847">
        <ele>1294.07</ele>
        <time>2024-10-31T14:57:21Z</time>
      </trkpt>
      <trkpt lat="44.82449" lon="3.48818">
        <ele>1292.15</ele>
        <time>2024-10-31T14:57:38Z</time>
      </trkpt>
      <trkpt lat="44.82449" lon="3.48804">
        <ele>1291.19</ele>
        <time>2024-10-31T14:57:46Z</time>
      </trkpt>
      <trkpt lat="44.82448" lon="3.4878">
        <ele>1290.71</ele>
        <time>2024-10-31T14:57:57Z</time>
      </trkpt>
      <trkpt lat="44.82448" lon="3.48776">
        <ele>1290.71</ele>
        <time>2024-10-31T14:57:59Z</time>
      </trkpt>
      <trkpt lat="44.82434" lon="3.48775">
        <ele>1291.19</ele>
        <time>2024-10-31T14:58:12Z</time>
      </trkpt>
    </trkseg>
  </trk>
</gpx>